<?xml version="1.0" encoding="UTF-8" standalone="no" ?>
<gpx xmlns="http://www.topografix.com/GPX/1/1" xmlns:xsi="http://www.w3.org/2001/XMLSchema-instance" xsi:schemaLocation="http://www.topografix.com/GPX/1/1 http://www.topografix.com/GPX/1/1/gpx.xsd" version="1.1" creator="VisuGPX - https://www.visugpx.com">
  <metadata>
    <name>le rochail</name>
    <desc><![CDATA[ balade très minérale, peu de cairn au dessus du refuge.
 les données d altitude initiales sont plus que discutables car variables montee descente , valeurs erratiques au début supprimées donc la trace valable débute a 9h 11]]></desc>
  </metadata>
  <trk>
    <name><![CDATA[rochail 11 08 2012]]></name>
    <trkseg>
      <trkpt lat="45.01225" lon="6.03981">
        <ele>1383.47</ele>
        <time>2012-08-11T07:11:26Z</time>
      </trkpt>
      <trkpt lat="45.01226" lon="6.03989">
        <ele>1382.99</ele>
        <time>2012-08-11T07:11:34Z</time>
      </trkpt>
      <trkpt lat="45.01227" lon="6.03996">
        <ele>1383.96</ele>
        <time>2012-08-11T07:11:40Z</time>
      </trkpt>
      <trkpt lat="45.01225" lon="6.04007">
        <ele>1383.96</ele>
        <time>2012-08-11T07:11:48Z</time>
      </trkpt>
      <trkpt lat="45.01218" lon="6.04015">
        <ele>1386.36</ele>
        <time>2012-08-11T07:11:58Z</time>
      </trkpt>
      <trkpt lat="45.01217" lon="6.04016">
        <ele>1385.88</ele>
        <time>2012-08-11T07:11:59Z</time>
      </trkpt>
      <trkpt lat="45.0121" lon="6.0402">
        <ele>1387.8</ele>
        <time>2012-08-11T07:12:08Z</time>
      </trkpt>
      <trkpt lat="45.01211" lon="6.04023">
        <ele>1389.72</ele>
        <time>2012-08-11T07:12:21Z</time>
      </trkpt>
      <trkpt lat="45.0121" lon="6.04024">
        <ele>1385.88</ele>
        <time>2012-08-11T07:12:25Z</time>
      </trkpt>
      <trkpt lat="45.0121" lon="6.04024">
        <ele>1388.76</ele>
        <time>2012-08-11T07:12:27Z</time>
      </trkpt>
      <trkpt lat="45.01209" lon="6.04026">
        <ele>1390.68</ele>
        <time>2012-08-11T07:12:41Z</time>
      </trkpt>
      <trkpt lat="45.0121" lon="6.04029">
        <ele>1391.17</ele>
        <time>2012-08-11T07:13:08Z</time>
      </trkpt>
      <trkpt lat="45.0121" lon="6.04029">
        <ele>1511.33</ele>
        <time>2012-08-11T07:13:16Z</time>
      </trkpt>
      <trkpt lat="45.0121" lon="6.04029">
        <ele>1393.57</ele>
        <time>2012-08-11T07:13:18Z</time>
      </trkpt>
      <trkpt lat="45.0121" lon="6.04029">
        <ele>1392.61</ele>
        <time>2012-08-11T07:13:24Z</time>
      </trkpt>
      <trkpt lat="45.01215" lon="6.04047">
        <ele>1392.13</ele>
        <time>2012-08-11T07:13:25Z</time>
      </trkpt>
      <trkpt lat="45.01215" lon="6.04037">
        <ele>1393.57</ele>
        <time>2012-08-11T07:13:29Z</time>
      </trkpt>
      <trkpt lat="45.0121" lon="6.04034">
        <ele>1392.61</ele>
        <time>2012-08-11T07:13:32Z</time>
      </trkpt>
      <trkpt lat="45.01206" lon="6.04031">
        <ele>1393.09</ele>
        <time>2012-08-11T07:13:35Z</time>
      </trkpt>
      <trkpt lat="45.01194" lon="6.04013">
        <ele>1393.09</ele>
        <time>2012-08-11T07:13:46Z</time>
      </trkpt>
      <trkpt lat="45.01184" lon="6.03999">
        <ele>1392.13</ele>
        <time>2012-08-11T07:13:57Z</time>
      </trkpt>
      <trkpt lat="45.01182" lon="6.03998">
        <ele>1392.13</ele>
        <time>2012-08-11T07:13:59Z</time>
      </trkpt>
      <trkpt lat="45.01175" lon="6.03997">
        <ele>1393.09</ele>
        <time>2012-08-11T07:14:04Z</time>
      </trkpt>
      <trkpt lat="45.01169" lon="6.03998">
        <ele>1393.57</ele>
        <time>2012-08-11T07:14:09Z</time>
      </trkpt>
      <trkpt lat="45.01167" lon="6.04">
        <ele>1393.57</ele>
        <time>2012-08-11T07:14:11Z</time>
      </trkpt>
      <trkpt lat="45.01155" lon="6.04004">
        <ele>1394.05</ele>
        <time>2012-08-11T07:14:21Z</time>
      </trkpt>
      <trkpt lat="45.01145" lon="6.04">
        <ele>1393.09</ele>
        <time>2012-08-11T07:14:30Z</time>
      </trkpt>
      <trkpt lat="45.01139" lon="6.04001">
        <ele>1394.53</ele>
        <time>2012-08-11T07:14:36Z</time>
      </trkpt>
      <trkpt lat="45.01135" lon="6.03999">
        <ele>1394.05</ele>
        <time>2012-08-11T07:14:39Z</time>
      </trkpt>
      <trkpt lat="45.01132" lon="6.04001">
        <ele>1394.05</ele>
        <time>2012-08-11T07:14:43Z</time>
      </trkpt>
      <trkpt lat="45.01128" lon="6.04004">
        <ele>1394.05</ele>
        <time>2012-08-11T07:14:48Z</time>
      </trkpt>
      <trkpt lat="45.01122" lon="6.0401">
        <ele>1394.05</ele>
        <time>2012-08-11T07:14:55Z</time>
      </trkpt>
      <trkpt lat="45.01111" lon="6.04012">
        <ele>1394.05</ele>
        <time>2012-08-11T07:15:02Z</time>
      </trkpt>
      <trkpt lat="45.01104" lon="6.04021">
        <ele>1393.57</ele>
        <time>2012-08-11T07:15:10Z</time>
      </trkpt>
      <trkpt lat="45.01098" lon="6.04025">
        <ele>1395.49</ele>
        <time>2012-08-11T07:15:15Z</time>
      </trkpt>
      <trkpt lat="45.01098" lon="6.04025">
        <ele>1395.01</ele>
        <time>2012-08-11T07:15:24Z</time>
      </trkpt>
      <trkpt lat="45.01098" lon="6.04024">
        <ele>1395.01</ele>
        <time>2012-08-11T07:15:25Z</time>
      </trkpt>
      <trkpt lat="45.01113" lon="6.04011">
        <ele>1394.53</ele>
        <time>2012-08-11T07:15:33Z</time>
      </trkpt>
      <trkpt lat="45.01123" lon="6.04005">
        <ele>1396.45</ele>
        <time>2012-08-11T07:15:39Z</time>
      </trkpt>
      <trkpt lat="45.01126" lon="6.04001">
        <ele>1395.49</ele>
        <time>2012-08-11T07:15:41Z</time>
      </trkpt>
      <trkpt lat="45.01132" lon="6.03996">
        <ele>1395.97</ele>
        <time>2012-08-11T07:15:44Z</time>
      </trkpt>
      <trkpt lat="45.01143" lon="6.03997">
        <ele>1397.89</ele>
        <time>2012-08-11T07:15:50Z</time>
      </trkpt>
      <trkpt lat="45.0115" lon="6.03999">
        <ele>1399.34</ele>
        <time>2012-08-11T07:15:56Z</time>
      </trkpt>
      <trkpt lat="45.01159" lon="6.04">
        <ele>1399.34</ele>
        <time>2012-08-11T07:16:03Z</time>
      </trkpt>
      <trkpt lat="45.01176" lon="6.03998">
        <ele>1400.3</ele>
        <time>2012-08-11T07:16:12Z</time>
      </trkpt>
      <trkpt lat="45.0119" lon="6.04003">
        <ele>1400.3</ele>
        <time>2012-08-11T07:16:18Z</time>
      </trkpt>
      <trkpt lat="45.01202" lon="6.04013">
        <ele>1402.7</ele>
        <time>2012-08-11T07:16:28Z</time>
      </trkpt>
      <trkpt lat="45.01206" lon="6.04016">
        <ele>1401.26</ele>
        <time>2012-08-11T07:16:32Z</time>
      </trkpt>
      <trkpt lat="45.01208" lon="6.04017">
        <ele>1402.22</ele>
        <time>2012-08-11T07:16:44Z</time>
      </trkpt>
      <trkpt lat="45.01208" lon="6.04018">
        <ele>1404.14</ele>
        <time>2012-08-11T07:17:17Z</time>
      </trkpt>
      <trkpt lat="45.01209" lon="6.04015">
        <ele>1404.14</ele>
        <time>2012-08-11T07:17:21Z</time>
      </trkpt>
      <trkpt lat="45.01205" lon="6.04015">
        <ele>1404.62</ele>
        <time>2012-08-11T07:17:25Z</time>
      </trkpt>
      <trkpt lat="45.01191" lon="6.04001">
        <ele>1405.58</ele>
        <time>2012-08-11T07:17:34Z</time>
      </trkpt>
      <trkpt lat="45.01185" lon="6.03998">
        <ele>1404.62</ele>
        <time>2012-08-11T07:17:37Z</time>
      </trkpt>
      <trkpt lat="45.01165" lon="6.03997">
        <ele>1405.58</ele>
        <time>2012-08-11T07:17:46Z</time>
      </trkpt>
      <trkpt lat="45.01157" lon="6.03998">
        <ele>1405.1</ele>
        <time>2012-08-11T07:17:50Z</time>
      </trkpt>
      <trkpt lat="45.01149" lon="6.03994">
        <ele>1404.14</ele>
        <time>2012-08-11T07:17:56Z</time>
      </trkpt>
      <trkpt lat="45.01137" lon="6.03994">
        <ele>1404.14</ele>
        <time>2012-08-11T07:18:03Z</time>
      </trkpt>
      <trkpt lat="45.01124" lon="6.04006">
        <ele>1402.7</ele>
        <time>2012-08-11T07:18:11Z</time>
      </trkpt>
      <trkpt lat="45.0112" lon="6.04008">
        <ele>1404.14</ele>
        <time>2012-08-11T07:18:13Z</time>
      </trkpt>
      <trkpt lat="45.01114" lon="6.04009">
        <ele>1402.22</ele>
        <time>2012-08-11T07:18:16Z</time>
      </trkpt>
      <trkpt lat="45.01103" lon="6.04025">
        <ele>1404.14</ele>
        <time>2012-08-11T07:18:24Z</time>
      </trkpt>
      <trkpt lat="45.01101" lon="6.04026">
        <ele>1403.66</ele>
        <time>2012-08-11T07:18:25Z</time>
      </trkpt>
      <trkpt lat="45.01082" lon="6.04041">
        <ele>1405.58</ele>
        <time>2012-08-11T07:18:36Z</time>
      </trkpt>
      <trkpt lat="45.01073" lon="6.04045">
        <ele>1407.99</ele>
        <time>2012-08-11T07:18:44Z</time>
      </trkpt>
      <trkpt lat="45.01064" lon="6.04047">
        <ele>1409.43</ele>
        <time>2012-08-11T07:18:53Z</time>
      </trkpt>
      <trkpt lat="45.01062" lon="6.04046">
        <ele>1410.87</ele>
        <time>2012-08-11T07:18:56Z</time>
      </trkpt>
      <trkpt lat="45.01061" lon="6.04046">
        <ele>1410.39</ele>
        <time>2012-08-11T07:18:58Z</time>
      </trkpt>
      <trkpt lat="45.01059" lon="6.04046">
        <ele>1411.83</ele>
        <time>2012-08-11T07:19:00Z</time>
      </trkpt>
      <trkpt lat="45.0105" lon="6.04049">
        <ele>1413.76</ele>
        <time>2012-08-11T07:19:11Z</time>
      </trkpt>
      <trkpt lat="45.01047" lon="6.0405">
        <ele>1414.72</ele>
        <time>2012-08-11T07:19:13Z</time>
      </trkpt>
      <trkpt lat="45.01046" lon="6.04051">
        <ele>1414.72</ele>
        <time>2012-08-11T07:19:14Z</time>
      </trkpt>
      <trkpt lat="45.0104" lon="6.04051">
        <ele>1416.64</ele>
        <time>2012-08-11T07:19:19Z</time>
      </trkpt>
      <trkpt lat="45.01035" lon="6.04054">
        <ele>1417.12</ele>
        <time>2012-08-11T07:19:24Z</time>
      </trkpt>
      <trkpt lat="45.01035" lon="6.04056">
        <ele>1417.6</ele>
        <time>2012-08-11T07:19:26Z</time>
      </trkpt>
      <trkpt lat="45.0102" lon="6.04064">
        <ele>1420</ele>
        <time>2012-08-11T07:19:36Z</time>
      </trkpt>
      <trkpt lat="45.01011" lon="6.04068">
        <ele>1420.97</ele>
        <time>2012-08-11T07:19:43Z</time>
      </trkpt>
      <trkpt lat="45.01008" lon="6.04068">
        <ele>1420.97</ele>
        <time>2012-08-11T07:19:46Z</time>
      </trkpt>
      <trkpt lat="45.00994" lon="6.04071">
        <ele>1423.37</ele>
        <time>2012-08-11T07:19:57Z</time>
      </trkpt>
      <trkpt lat="45.00987" lon="6.04072">
        <ele>1424.33</ele>
        <time>2012-08-11T07:20:02Z</time>
      </trkpt>
      <trkpt lat="45.00981" lon="6.04074">
        <ele>1425.77</ele>
        <time>2012-08-11T07:20:06Z</time>
      </trkpt>
      <trkpt lat="45.00966" lon="6.04077">
        <ele>1425.29</ele>
        <time>2012-08-11T07:20:16Z</time>
      </trkpt>
      <trkpt lat="45.00954" lon="6.04078">
        <ele>1426.25</ele>
        <time>2012-08-11T07:20:24Z</time>
      </trkpt>
      <trkpt lat="45.00951" lon="6.04077">
        <ele>1426.25</ele>
        <time>2012-08-11T07:20:26Z</time>
      </trkpt>
      <trkpt lat="45.00948" lon="6.04079">
        <ele>1426.73</ele>
        <time>2012-08-11T07:20:28Z</time>
      </trkpt>
      <trkpt lat="45.00935" lon="6.04076">
        <ele>1426.25</ele>
        <time>2012-08-11T07:20:38Z</time>
      </trkpt>
      <trkpt lat="45.00934" lon="6.04077">
        <ele>1426.25</ele>
        <time>2012-08-11T07:20:39Z</time>
      </trkpt>
      <trkpt lat="45.00928" lon="6.04078">
        <ele>1427.21</ele>
        <time>2012-08-11T07:20:43Z</time>
      </trkpt>
      <trkpt lat="45.00918" lon="6.04092">
        <ele>1427.7</ele>
        <time>2012-08-11T07:20:57Z</time>
      </trkpt>
      <trkpt lat="45.00917" lon="6.04093">
        <ele>1427.7</ele>
        <time>2012-08-11T07:20:58Z</time>
      </trkpt>
      <trkpt lat="45.00914" lon="6.04097">
        <ele>1428.66</ele>
        <time>2012-08-11T07:21:01Z</time>
      </trkpt>
      <trkpt lat="45.009" lon="6.04111">
        <ele>1429.14</ele>
        <time>2012-08-11T07:21:10Z</time>
      </trkpt>
      <trkpt lat="45.00884" lon="6.04122">
        <ele>1431.54</ele>
        <time>2012-08-11T07:21:19Z</time>
      </trkpt>
      <trkpt lat="45.00876" lon="6.04123">
        <ele>1434.42</ele>
        <time>2012-08-11T07:21:28Z</time>
      </trkpt>
      <trkpt lat="45.00872" lon="6.04122">
        <ele>1436.35</ele>
        <time>2012-08-11T07:21:37Z</time>
      </trkpt>
      <trkpt lat="45.00868" lon="6.04122">
        <ele>1440.19</ele>
        <time>2012-08-11T07:21:46Z</time>
      </trkpt>
      <trkpt lat="45.00869" lon="6.04115">
        <ele>1443.08</ele>
        <time>2012-08-11T07:21:57Z</time>
      </trkpt>
      <trkpt lat="45.00868" lon="6.04115">
        <ele>1443.56</ele>
        <time>2012-08-11T07:21:58Z</time>
      </trkpt>
      <trkpt lat="45.00866" lon="6.04112">
        <ele>1445</ele>
        <time>2012-08-11T07:22:03Z</time>
      </trkpt>
      <trkpt lat="45.0086" lon="6.04111">
        <ele>1446.92</ele>
        <time>2012-08-11T07:22:11Z</time>
      </trkpt>
      <trkpt lat="45.00851" lon="6.04111">
        <ele>1449.32</ele>
        <time>2012-08-11T07:22:20Z</time>
      </trkpt>
      <trkpt lat="45.00847" lon="6.04111">
        <ele>1450.77</ele>
        <time>2012-08-11T07:22:24Z</time>
      </trkpt>
      <trkpt lat="45.00839" lon="6.04107">
        <ele>1453.65</ele>
        <time>2012-08-11T07:22:34Z</time>
      </trkpt>
      <trkpt lat="45.00836" lon="6.04104">
        <ele>1455.57</ele>
        <time>2012-08-11T07:22:38Z</time>
      </trkpt>
      <trkpt lat="45.00832" lon="6.041">
        <ele>1458.46</ele>
        <time>2012-08-11T07:22:48Z</time>
      </trkpt>
      <trkpt lat="45.00829" lon="6.04095">
        <ele>1460.38</ele>
        <time>2012-08-11T07:22:54Z</time>
      </trkpt>
      <trkpt lat="45.00826" lon="6.04092">
        <ele>1461.82</ele>
        <time>2012-08-11T07:22:59Z</time>
      </trkpt>
      <trkpt lat="45.00818" lon="6.04087">
        <ele>1464.71</ele>
        <time>2012-08-11T07:23:10Z</time>
      </trkpt>
      <trkpt lat="45.00815" lon="6.04078">
        <ele>1467.11</ele>
        <time>2012-08-11T07:23:19Z</time>
      </trkpt>
      <trkpt lat="45.00815" lon="6.04076">
        <ele>1467.59</ele>
        <time>2012-08-11T07:23:20Z</time>
      </trkpt>
      <trkpt lat="45.00815" lon="6.04069">
        <ele>1469.03</ele>
        <time>2012-08-11T07:23:29Z</time>
      </trkpt>
      <trkpt lat="45.00812" lon="6.04068">
        <ele>1470.47</ele>
        <time>2012-08-11T07:23:33Z</time>
      </trkpt>
      <trkpt lat="45.00809" lon="6.04064">
        <ele>1471.44</ele>
        <time>2012-08-11T07:23:38Z</time>
      </trkpt>
      <trkpt lat="45.00806" lon="6.04062">
        <ele>1472.4</ele>
        <time>2012-08-11T07:23:42Z</time>
      </trkpt>
      <trkpt lat="45.00808" lon="6.04057">
        <ele>1476.24</ele>
        <time>2012-08-11T07:23:53Z</time>
      </trkpt>
      <trkpt lat="45.00809" lon="6.04055">
        <ele>1477.2</ele>
        <time>2012-08-11T07:23:58Z</time>
      </trkpt>
      <trkpt lat="45.00809" lon="6.04051">
        <ele>1479.61</ele>
        <time>2012-08-11T07:24:04Z</time>
      </trkpt>
      <trkpt lat="45.00814" lon="6.0405">
        <ele>1481.53</ele>
        <time>2012-08-11T07:24:13Z</time>
      </trkpt>
      <trkpt lat="45.00817" lon="6.04046">
        <ele>1485.37</ele>
        <time>2012-08-11T07:24:25Z</time>
      </trkpt>
      <trkpt lat="45.00821" lon="6.04038">
        <ele>1488.26</ele>
        <time>2012-08-11T07:24:37Z</time>
      </trkpt>
      <trkpt lat="45.00824" lon="6.04031">
        <ele>1491.14</ele>
        <time>2012-08-11T07:24:49Z</time>
      </trkpt>
      <trkpt lat="45.00821" lon="6.04027">
        <ele>1494.51</ele>
        <time>2012-08-11T07:25:03Z</time>
      </trkpt>
      <trkpt lat="45.00817" lon="6.04024">
        <ele>1497.87</ele>
        <time>2012-08-11T07:25:19Z</time>
      </trkpt>
      <trkpt lat="45.00816" lon="6.0402">
        <ele>1500.27</ele>
        <time>2012-08-11T07:25:29Z</time>
      </trkpt>
      <trkpt lat="45.00811" lon="6.04018">
        <ele>1502.2</ele>
        <time>2012-08-11T07:25:38Z</time>
      </trkpt>
      <trkpt lat="45.00809" lon="6.04013">
        <ele>1504.6</ele>
        <time>2012-08-11T07:25:50Z</time>
      </trkpt>
      <trkpt lat="45.00806" lon="6.04009">
        <ele>1507.97</ele>
        <time>2012-08-11T07:26:07Z</time>
      </trkpt>
      <trkpt lat="45.00802" lon="6.04007">
        <ele>1510.37</ele>
        <time>2012-08-11T07:26:19Z</time>
      </trkpt>
      <trkpt lat="45.00804" lon="6.04002">
        <ele>1512.77</ele>
        <time>2012-08-11T07:26:31Z</time>
      </trkpt>
      <trkpt lat="45.00806" lon="6.04">
        <ele>1515.66</ele>
        <time>2012-08-11T07:26:43Z</time>
      </trkpt>
      <trkpt lat="45.00808" lon="6.03996">
        <ele>1518.54</ele>
        <time>2012-08-11T07:26:58Z</time>
      </trkpt>
      <trkpt lat="45.00803" lon="6.03995">
        <ele>1520.46</ele>
        <time>2012-08-11T07:27:08Z</time>
      </trkpt>
      <trkpt lat="45.00803" lon="6.03996">
        <ele>1520.94</ele>
        <time>2012-08-11T07:27:09Z</time>
      </trkpt>
      <trkpt lat="45.00799" lon="6.03991">
        <ele>1522.87</ele>
        <time>2012-08-11T07:27:22Z</time>
      </trkpt>
      <trkpt lat="45.00793" lon="6.03987">
        <ele>1525.27</ele>
        <time>2012-08-11T07:27:35Z</time>
      </trkpt>
      <trkpt lat="45.00792" lon="6.03987">
        <ele>1526.23</ele>
        <time>2012-08-11T07:27:38Z</time>
      </trkpt>
      <trkpt lat="45.00789" lon="6.0398">
        <ele>1527.67</ele>
        <time>2012-08-11T07:27:49Z</time>
      </trkpt>
      <trkpt lat="45.0079" lon="6.03979">
        <ele>1528.15</ele>
        <time>2012-08-11T07:27:50Z</time>
      </trkpt>
      <trkpt lat="45.00786" lon="6.03976">
        <ele>1528.63</ele>
        <time>2012-08-11T07:27:54Z</time>
      </trkpt>
      <trkpt lat="45.0078" lon="6.03974">
        <ele>1531.52</ele>
        <time>2012-08-11T07:28:07Z</time>
      </trkpt>
      <trkpt lat="45.00779" lon="6.03967">
        <ele>1534.4</ele>
        <time>2012-08-11T07:28:20Z</time>
      </trkpt>
      <trkpt lat="45.00779" lon="6.03963">
        <ele>1537.29</ele>
        <time>2012-08-11T07:28:31Z</time>
      </trkpt>
      <trkpt lat="45.0078" lon="6.03959">
        <ele>1539.69</ele>
        <time>2012-08-11T07:28:42Z</time>
      </trkpt>
      <trkpt lat="45.00779" lon="6.03959">
        <ele>1540.17</ele>
        <time>2012-08-11T07:28:44Z</time>
      </trkpt>
      <trkpt lat="45.00778" lon="6.03956">
        <ele>1542.57</ele>
        <time>2012-08-11T07:28:55Z</time>
      </trkpt>
      <trkpt lat="45.00774" lon="6.03956">
        <ele>1544.98</ele>
        <time>2012-08-11T07:29:06Z</time>
      </trkpt>
      <trkpt lat="45.00771" lon="6.03952">
        <ele>1547.38</ele>
        <time>2012-08-11T07:29:17Z</time>
      </trkpt>
      <trkpt lat="45.00767" lon="6.03951">
        <ele>1549.3</ele>
        <time>2012-08-11T07:29:30Z</time>
      </trkpt>
      <trkpt lat="45.00764" lon="6.03951">
        <ele>1552.19</ele>
        <time>2012-08-11T07:29:42Z</time>
      </trkpt>
      <trkpt lat="45.0076" lon="6.03947">
        <ele>1554.11</ele>
        <time>2012-08-11T07:29:56Z</time>
      </trkpt>
      <trkpt lat="45.00759" lon="6.03937">
        <ele>1556.99</ele>
        <time>2012-08-11T07:30:06Z</time>
      </trkpt>
      <trkpt lat="45.00761" lon="6.03934">
        <ele>1558.43</ele>
        <time>2012-08-11T07:30:18Z</time>
      </trkpt>
      <trkpt lat="45.0076" lon="6.03933">
        <ele>1560.84</ele>
        <time>2012-08-11T07:30:59Z</time>
      </trkpt>
      <trkpt lat="45.00757" lon="6.03933">
        <ele>1562.76</ele>
        <time>2012-08-11T07:31:13Z</time>
      </trkpt>
      <trkpt lat="45.00757" lon="6.03933">
        <ele>1563.24</ele>
        <time>2012-08-11T07:31:29Z</time>
      </trkpt>
      <trkpt lat="45.00757" lon="6.03932">
        <ele>1564.68</ele>
        <time>2012-08-11T07:31:55Z</time>
      </trkpt>
      <trkpt lat="45.00757" lon="6.03931">
        <ele>1566.12</ele>
        <time>2012-08-11T07:32:40Z</time>
      </trkpt>
      <trkpt lat="45.00751" lon="6.0393">
        <ele>1567.57</ele>
        <time>2012-08-11T07:33:00Z</time>
      </trkpt>
      <trkpt lat="45.00746" lon="6.03927">
        <ele>1569.97</ele>
        <time>2012-08-11T07:33:12Z</time>
      </trkpt>
      <trkpt lat="45.00741" lon="6.03923">
        <ele>1572.85</ele>
        <time>2012-08-11T07:33:24Z</time>
      </trkpt>
      <trkpt lat="45.00735" lon="6.03917">
        <ele>1575.26</ele>
        <time>2012-08-11T07:33:36Z</time>
      </trkpt>
      <trkpt lat="45.00731" lon="6.03913">
        <ele>1577.66</ele>
        <time>2012-08-11T07:33:46Z</time>
      </trkpt>
      <trkpt lat="45.0073" lon="6.03908">
        <ele>1580.54</ele>
        <time>2012-08-11T07:33:58Z</time>
      </trkpt>
      <trkpt lat="45.00728" lon="6.03904">
        <ele>1582.47</ele>
        <time>2012-08-11T07:34:09Z</time>
      </trkpt>
      <trkpt lat="45.00727" lon="6.039">
        <ele>1583.43</ele>
        <time>2012-08-11T07:34:14Z</time>
      </trkpt>
      <trkpt lat="45.00724" lon="6.03895">
        <ele>1586.31</ele>
        <time>2012-08-11T07:34:26Z</time>
      </trkpt>
      <trkpt lat="45.0072" lon="6.03895">
        <ele>1587.75</ele>
        <time>2012-08-11T07:34:36Z</time>
      </trkpt>
      <trkpt lat="45.00717" lon="6.03895">
        <ele>1589.2</ele>
        <time>2012-08-11T07:34:45Z</time>
      </trkpt>
      <trkpt lat="45.00713" lon="6.03894">
        <ele>1591.12</ele>
        <time>2012-08-11T07:34:56Z</time>
      </trkpt>
      <trkpt lat="45.00713" lon="6.03887">
        <ele>1593.52</ele>
        <time>2012-08-11T07:35:07Z</time>
      </trkpt>
      <trkpt lat="45.00712" lon="6.03884">
        <ele>1594</ele>
        <time>2012-08-11T07:35:10Z</time>
      </trkpt>
      <trkpt lat="45.00707" lon="6.03884">
        <ele>1596.41</ele>
        <time>2012-08-11T07:35:22Z</time>
      </trkpt>
      <trkpt lat="45.007" lon="6.03881">
        <ele>1598.33</ele>
        <time>2012-08-11T07:35:34Z</time>
      </trkpt>
      <trkpt lat="45.00698" lon="6.0388">
        <ele>1599.29</ele>
        <time>2012-08-11T07:35:37Z</time>
      </trkpt>
      <trkpt lat="45.00697" lon="6.03874">
        <ele>1600.73</ele>
        <time>2012-08-11T07:35:47Z</time>
      </trkpt>
      <trkpt lat="45.0069" lon="6.03874">
        <ele>1602.66</ele>
        <time>2012-08-11T07:35:59Z</time>
      </trkpt>
      <trkpt lat="45.00689" lon="6.03869">
        <ele>1605.54</ele>
        <time>2012-08-11T07:36:11Z</time>
      </trkpt>
      <trkpt lat="45.00682" lon="6.03869">
        <ele>1607.46</ele>
        <time>2012-08-11T07:36:22Z</time>
      </trkpt>
      <trkpt lat="45.00677" lon="6.03871">
        <ele>1608.9</ele>
        <time>2012-08-11T07:36:32Z</time>
      </trkpt>
      <trkpt lat="45.00676" lon="6.03872">
        <ele>1609.86</ele>
        <time>2012-08-11T07:36:51Z</time>
      </trkpt>
      <trkpt lat="45.00678" lon="6.03864">
        <ele>1610.83</ele>
        <time>2012-08-11T07:37:07Z</time>
      </trkpt>
      <trkpt lat="45.00675" lon="6.03861">
        <ele>1612.27</ele>
        <time>2012-08-11T07:37:14Z</time>
      </trkpt>
      <trkpt lat="45.00666" lon="6.03857">
        <ele>1613.71</ele>
        <time>2012-08-11T07:37:26Z</time>
      </trkpt>
      <trkpt lat="45.00662" lon="6.03859">
        <ele>1614.19</ele>
        <time>2012-08-11T07:37:33Z</time>
      </trkpt>
      <trkpt lat="45.00656" lon="6.03862">
        <ele>1613.23</ele>
        <time>2012-08-11T07:37:39Z</time>
      </trkpt>
      <trkpt lat="45.00651" lon="6.0386">
        <ele>1614.19</ele>
        <time>2012-08-11T07:37:45Z</time>
      </trkpt>
      <trkpt lat="45.00647" lon="6.0386">
        <ele>1615.63</ele>
        <time>2012-08-11T07:37:50Z</time>
      </trkpt>
      <trkpt lat="45.00644" lon="6.03858">
        <ele>1616.11</ele>
        <time>2012-08-11T07:37:54Z</time>
      </trkpt>
      <trkpt lat="45.0064" lon="6.03856">
        <ele>1616.59</ele>
        <time>2012-08-11T07:38:00Z</time>
      </trkpt>
      <trkpt lat="45.00635" lon="6.03856">
        <ele>1617.07</ele>
        <time>2012-08-11T07:38:06Z</time>
      </trkpt>
      <trkpt lat="45.00631" lon="6.03853">
        <ele>1617.56</ele>
        <time>2012-08-11T07:38:12Z</time>
      </trkpt>
      <trkpt lat="45.0063" lon="6.03853">
        <ele>1618.04</ele>
        <time>2012-08-11T07:38:14Z</time>
      </trkpt>
      <trkpt lat="45.00625" lon="6.03853">
        <ele>1616.59</ele>
        <time>2012-08-11T07:38:20Z</time>
      </trkpt>
      <trkpt lat="45.00622" lon="6.03854">
        <ele>1616.59</ele>
        <time>2012-08-11T07:38:24Z</time>
      </trkpt>
      <trkpt lat="45.00609" lon="6.0385">
        <ele>1617.07</ele>
        <time>2012-08-11T07:38:38Z</time>
      </trkpt>
      <trkpt lat="45.00604" lon="6.03848">
        <ele>1617.56</ele>
        <time>2012-08-11T07:38:43Z</time>
      </trkpt>
      <trkpt lat="45.00594" lon="6.03841">
        <ele>1618.04</ele>
        <time>2012-08-11T07:38:56Z</time>
      </trkpt>
      <trkpt lat="45.00588" lon="6.03838">
        <ele>1619.96</ele>
        <time>2012-08-11T07:39:08Z</time>
      </trkpt>
      <trkpt lat="45.00586" lon="6.03839">
        <ele>1620.44</ele>
        <time>2012-08-11T07:39:10Z</time>
      </trkpt>
      <trkpt lat="45.00582" lon="6.0384">
        <ele>1619.48</ele>
        <time>2012-08-11T07:39:14Z</time>
      </trkpt>
      <trkpt lat="45.00573" lon="6.03837">
        <ele>1620.92</ele>
        <time>2012-08-11T07:39:25Z</time>
      </trkpt>
      <trkpt lat="45.00572" lon="6.03837">
        <ele>1621.4</ele>
        <time>2012-08-11T07:39:26Z</time>
      </trkpt>
      <trkpt lat="45.00565" lon="6.03829">
        <ele>1624.28</ele>
        <time>2012-08-11T07:39:38Z</time>
      </trkpt>
      <trkpt lat="45.00563" lon="6.03827">
        <ele>1625.25</ele>
        <time>2012-08-11T07:39:42Z</time>
      </trkpt>
      <trkpt lat="45.00555" lon="6.03825">
        <ele>1626.69</ele>
        <time>2012-08-11T07:39:55Z</time>
      </trkpt>
      <trkpt lat="45.00555" lon="6.03825">
        <ele>1626.21</ele>
        <time>2012-08-11T07:39:56Z</time>
      </trkpt>
      <trkpt lat="45.00547" lon="6.03819">
        <ele>1628.13</ele>
        <time>2012-08-11T07:40:09Z</time>
      </trkpt>
      <trkpt lat="45.00544" lon="6.03814">
        <ele>1630.53</ele>
        <time>2012-08-11T07:40:20Z</time>
      </trkpt>
      <trkpt lat="45.00539" lon="6.03806">
        <ele>1632.94</ele>
        <time>2012-08-11T07:40:33Z</time>
      </trkpt>
      <trkpt lat="45.00531" lon="6.038">
        <ele>1634.38</ele>
        <time>2012-08-11T07:40:46Z</time>
      </trkpt>
      <trkpt lat="45.00527" lon="6.03795">
        <ele>1635.82</ele>
        <time>2012-08-11T07:40:55Z</time>
      </trkpt>
      <trkpt lat="45.00524" lon="6.03788">
        <ele>1638.7</ele>
        <time>2012-08-11T07:41:08Z</time>
      </trkpt>
      <trkpt lat="45.00523" lon="6.03784">
        <ele>1640.15</ele>
        <time>2012-08-11T07:41:14Z</time>
      </trkpt>
      <trkpt lat="45.00524" lon="6.03779">
        <ele>1642.55</ele>
        <time>2012-08-11T07:41:27Z</time>
      </trkpt>
      <trkpt lat="45.0052" lon="6.03771">
        <ele>1644.95</ele>
        <time>2012-08-11T07:41:41Z</time>
      </trkpt>
      <trkpt lat="45.00518" lon="6.03769">
        <ele>1646.4</ele>
        <time>2012-08-11T07:41:48Z</time>
      </trkpt>
      <trkpt lat="45.00512" lon="6.03763">
        <ele>1647.36</ele>
        <time>2012-08-11T07:41:58Z</time>
      </trkpt>
      <trkpt lat="45.00508" lon="6.03758">
        <ele>1649.76</ele>
        <time>2012-08-11T07:42:10Z</time>
      </trkpt>
      <trkpt lat="45.00503" lon="6.03753">
        <ele>1651.2</ele>
        <time>2012-08-11T07:42:21Z</time>
      </trkpt>
      <trkpt lat="45.00502" lon="6.03753">
        <ele>1651.2</ele>
        <time>2012-08-11T07:42:23Z</time>
      </trkpt>
      <trkpt lat="45.00498" lon="6.03749">
        <ele>1652.64</ele>
        <time>2012-08-11T07:42:32Z</time>
      </trkpt>
      <trkpt lat="45.00491" lon="6.03746">
        <ele>1653.6</ele>
        <time>2012-08-11T07:42:44Z</time>
      </trkpt>
      <trkpt lat="45.00486" lon="6.03741">
        <ele>1654.09</ele>
        <time>2012-08-11T07:42:54Z</time>
      </trkpt>
      <trkpt lat="45.00485" lon="6.03738">
        <ele>1655.53</ele>
        <time>2012-08-11T07:43:05Z</time>
      </trkpt>
      <trkpt lat="45.00485" lon="6.03737">
        <ele>1655.53</ele>
        <time>2012-08-11T07:43:32Z</time>
      </trkpt>
      <trkpt lat="45.00484" lon="6.03737">
        <ele>1655.53</ele>
        <time>2012-08-11T07:43:55Z</time>
      </trkpt>
      <trkpt lat="45.00479" lon="6.03726">
        <ele>1658.41</ele>
        <time>2012-08-11T07:44:07Z</time>
      </trkpt>
      <trkpt lat="45.00476" lon="6.03721">
        <ele>1660.81</ele>
        <time>2012-08-11T07:44:19Z</time>
      </trkpt>
      <trkpt lat="45.00474" lon="6.03714">
        <ele>1662.26</ele>
        <time>2012-08-11T07:44:26Z</time>
      </trkpt>
      <trkpt lat="45.00472" lon="6.03708">
        <ele>1665.14</ele>
        <time>2012-08-11T07:44:39Z</time>
      </trkpt>
      <trkpt lat="45.00469" lon="6.03701">
        <ele>1665.62</ele>
        <time>2012-08-11T07:44:50Z</time>
      </trkpt>
      <trkpt lat="45.00463" lon="6.037">
        <ele>1667.54</ele>
        <time>2012-08-11T07:45:01Z</time>
      </trkpt>
      <trkpt lat="45.00458" lon="6.03699">
        <ele>1669.95</ele>
        <time>2012-08-11T07:45:15Z</time>
      </trkpt>
      <trkpt lat="45.00457" lon="6.03698">
        <ele>1669.95</ele>
        <time>2012-08-11T07:45:18Z</time>
      </trkpt>
      <trkpt lat="45.00454" lon="6.03694">
        <ele>1670.91</ele>
        <time>2012-08-11T07:45:22Z</time>
      </trkpt>
      <trkpt lat="45.00447" lon="6.0369">
        <ele>1672.83</ele>
        <time>2012-08-11T07:45:35Z</time>
      </trkpt>
      <trkpt lat="45.00446" lon="6.0369">
        <ele>1673.31</ele>
        <time>2012-08-11T07:45:36Z</time>
      </trkpt>
      <trkpt lat="45.00441" lon="6.03684">
        <ele>1674.27</ele>
        <time>2012-08-11T07:45:47Z</time>
      </trkpt>
      <trkpt lat="45.0044" lon="6.03684">
        <ele>1674.27</ele>
        <time>2012-08-11T07:45:50Z</time>
      </trkpt>
      <trkpt lat="45.00437" lon="6.0368">
        <ele>1677.16</ele>
        <time>2012-08-11T07:46:01Z</time>
      </trkpt>
      <trkpt lat="45.0043" lon="6.03675">
        <ele>1678.6</ele>
        <time>2012-08-11T07:46:12Z</time>
      </trkpt>
      <trkpt lat="45.00428" lon="6.03674">
        <ele>1680.04</ele>
        <time>2012-08-11T07:46:18Z</time>
      </trkpt>
      <trkpt lat="45.00422" lon="6.03671">
        <ele>1681.48</ele>
        <time>2012-08-11T07:46:29Z</time>
      </trkpt>
      <trkpt lat="45.00416" lon="6.0367">
        <ele>1682.44</ele>
        <time>2012-08-11T07:46:40Z</time>
      </trkpt>
      <trkpt lat="45.00408" lon="6.03667">
        <ele>1685.33</ele>
        <time>2012-08-11T07:46:54Z</time>
      </trkpt>
      <trkpt lat="45.00399" lon="6.03665">
        <ele>1686.77</ele>
        <time>2012-08-11T07:47:06Z</time>
      </trkpt>
      <trkpt lat="45.0039" lon="6.0366">
        <ele>1688.21</ele>
        <time>2012-08-11T07:47:19Z</time>
      </trkpt>
      <trkpt lat="45.00382" lon="6.03655">
        <ele>1689.65</ele>
        <time>2012-08-11T07:47:31Z</time>
      </trkpt>
      <trkpt lat="45.00382" lon="6.03654">
        <ele>1690.62</ele>
        <time>2012-08-11T07:47:32Z</time>
      </trkpt>
      <trkpt lat="45.00375" lon="6.03649">
        <ele>1691.1</ele>
        <time>2012-08-11T07:47:44Z</time>
      </trkpt>
      <trkpt lat="45.00372" lon="6.03647">
        <ele>1691.58</ele>
        <time>2012-08-11T07:47:49Z</time>
      </trkpt>
      <trkpt lat="45.00363" lon="6.03643">
        <ele>1692.06</ele>
        <time>2012-08-11T07:48:00Z</time>
      </trkpt>
      <trkpt lat="45.00361" lon="6.03641">
        <ele>1693.98</ele>
        <time>2012-08-11T07:48:11Z</time>
      </trkpt>
      <trkpt lat="45.00361" lon="6.03636">
        <ele>1696.86</ele>
        <time>2012-08-11T07:48:22Z</time>
      </trkpt>
      <trkpt lat="45.0036" lon="6.0363">
        <ele>1698.79</ele>
        <time>2012-08-11T07:48:45Z</time>
      </trkpt>
      <trkpt lat="45.00358" lon="6.03621">
        <ele>1702.15</ele>
        <time>2012-08-11T07:49:00Z</time>
      </trkpt>
      <trkpt lat="45.00356" lon="6.03614">
        <ele>1704.55</ele>
        <time>2012-08-11T07:49:12Z</time>
      </trkpt>
      <trkpt lat="45.00348" lon="6.03606">
        <ele>1706</ele>
        <time>2012-08-11T07:49:25Z</time>
      </trkpt>
      <trkpt lat="45.00344" lon="6.03607">
        <ele>1706.96</ele>
        <time>2012-08-11T07:49:36Z</time>
      </trkpt>
      <trkpt lat="45.00341" lon="6.03607">
        <ele>1709.36</ele>
        <time>2012-08-11T07:49:49Z</time>
      </trkpt>
      <trkpt lat="45.00337" lon="6.03601">
        <ele>1711.76</ele>
        <time>2012-08-11T07:50:01Z</time>
      </trkpt>
      <trkpt lat="45.00337" lon="6.03599">
        <ele>1713.21</ele>
        <time>2012-08-11T07:50:08Z</time>
      </trkpt>
      <trkpt lat="45.00335" lon="6.03596">
        <ele>1715.61</ele>
        <time>2012-08-11T07:50:23Z</time>
      </trkpt>
      <trkpt lat="45.00326" lon="6.03592">
        <ele>1718.49</ele>
        <time>2012-08-11T07:50:36Z</time>
      </trkpt>
      <trkpt lat="45.00319" lon="6.03586">
        <ele>1720.42</ele>
        <time>2012-08-11T07:50:48Z</time>
      </trkpt>
      <trkpt lat="45.00315" lon="6.03582">
        <ele>1722.34</ele>
        <time>2012-08-11T07:51:00Z</time>
      </trkpt>
      <trkpt lat="45.00308" lon="6.03579">
        <ele>1724.26</ele>
        <time>2012-08-11T07:51:13Z</time>
      </trkpt>
      <trkpt lat="45.00301" lon="6.03576">
        <ele>1725.7</ele>
        <time>2012-08-11T07:51:25Z</time>
      </trkpt>
      <trkpt lat="45.00296" lon="6.0357">
        <ele>1728.59</ele>
        <time>2012-08-11T07:51:38Z</time>
      </trkpt>
      <trkpt lat="45.0029" lon="6.03569">
        <ele>1730.03</ele>
        <time>2012-08-11T07:51:50Z</time>
      </trkpt>
      <trkpt lat="45.00287" lon="6.03568">
        <ele>1731.47</ele>
        <time>2012-08-11T07:51:59Z</time>
      </trkpt>
      <trkpt lat="45.00283" lon="6.03567">
        <ele>1732.43</ele>
        <time>2012-08-11T07:52:04Z</time>
      </trkpt>
      <trkpt lat="45.00281" lon="6.03567">
        <ele>1733.39</ele>
        <time>2012-08-11T07:52:07Z</time>
      </trkpt>
      <trkpt lat="45.00272" lon="6.03564">
        <ele>1734.36</ele>
        <time>2012-08-11T07:52:21Z</time>
      </trkpt>
      <trkpt lat="45.00265" lon="6.0356">
        <ele>1736.76</ele>
        <time>2012-08-11T07:52:35Z</time>
      </trkpt>
      <trkpt lat="45.00257" lon="6.0356">
        <ele>1738.68</ele>
        <time>2012-08-11T07:52:52Z</time>
      </trkpt>
      <trkpt lat="45.00251" lon="6.03555">
        <ele>1741.08</ele>
        <time>2012-08-11T07:53:04Z</time>
      </trkpt>
      <trkpt lat="45.00247" lon="6.03552">
        <ele>1743.01</ele>
        <time>2012-08-11T07:53:18Z</time>
      </trkpt>
      <trkpt lat="45.00244" lon="6.03551">
        <ele>1745.41</ele>
        <time>2012-08-11T07:53:30Z</time>
      </trkpt>
      <trkpt lat="45.0024" lon="6.0355">
        <ele>1746.85</ele>
        <time>2012-08-11T07:53:44Z</time>
      </trkpt>
      <trkpt lat="45.00235" lon="6.03548">
        <ele>1749.26</ele>
        <time>2012-08-11T07:53:55Z</time>
      </trkpt>
      <trkpt lat="45.00229" lon="6.0355">
        <ele>1749.26</ele>
        <time>2012-08-11T07:54:07Z</time>
      </trkpt>
      <trkpt lat="45.00223" lon="6.03548">
        <ele>1752.62</ele>
        <time>2012-08-11T07:54:23Z</time>
      </trkpt>
      <trkpt lat="45.0022" lon="6.03546">
        <ele>1754.06</ele>
        <time>2012-08-11T07:54:35Z</time>
      </trkpt>
      <trkpt lat="45.00216" lon="6.03544">
        <ele>1755.99</ele>
        <time>2012-08-11T07:54:48Z</time>
      </trkpt>
      <trkpt lat="45.0021" lon="6.03538">
        <ele>1757.91</ele>
        <time>2012-08-11T07:55:01Z</time>
      </trkpt>
      <trkpt lat="45.00206" lon="6.03531">
        <ele>1759.83</ele>
        <time>2012-08-11T07:55:13Z</time>
      </trkpt>
      <trkpt lat="45.00202" lon="6.03527">
        <ele>1762.71</ele>
        <time>2012-08-11T07:55:26Z</time>
      </trkpt>
      <trkpt lat="45.00199" lon="6.03523">
        <ele>1763.68</ele>
        <time>2012-08-11T07:55:31Z</time>
      </trkpt>
      <trkpt lat="45.00194" lon="6.03518">
        <ele>1765.6</ele>
        <time>2012-08-11T07:55:46Z</time>
      </trkpt>
      <trkpt lat="45.00187" lon="6.03516">
        <ele>1765.12</ele>
        <time>2012-08-11T07:55:58Z</time>
      </trkpt>
      <trkpt lat="45.00179" lon="6.03516">
        <ele>1766.56</ele>
        <time>2012-08-11T07:56:10Z</time>
      </trkpt>
      <trkpt lat="45.00174" lon="6.03519">
        <ele>1768</ele>
        <time>2012-08-11T07:56:20Z</time>
      </trkpt>
      <trkpt lat="45.00168" lon="6.03523">
        <ele>1769.92</ele>
        <time>2012-08-11T07:56:33Z</time>
      </trkpt>
      <trkpt lat="45.00167" lon="6.03523">
        <ele>1772.81</ele>
        <time>2012-08-11T07:56:41Z</time>
      </trkpt>
      <trkpt lat="45.00167" lon="6.03523">
        <ele>1772.81</ele>
        <time>2012-08-11T07:56:46Z</time>
      </trkpt>
      <trkpt lat="45.00161" lon="6.03524">
        <ele>1774.25</ele>
        <time>2012-08-11T07:56:57Z</time>
      </trkpt>
      <trkpt lat="45.00157" lon="6.03525">
        <ele>1776.17</ele>
        <time>2012-08-11T07:57:08Z</time>
      </trkpt>
      <trkpt lat="45.00156" lon="6.03526">
        <ele>1777.13</ele>
        <time>2012-08-11T07:57:14Z</time>
      </trkpt>
      <trkpt lat="45.00151" lon="6.03525">
        <ele>1779.06</ele>
        <time>2012-08-11T07:57:27Z</time>
      </trkpt>
      <trkpt lat="45.00149" lon="6.03525">
        <ele>1780.02</ele>
        <time>2012-08-11T07:57:36Z</time>
      </trkpt>
      <trkpt lat="45.00144" lon="6.03525">
        <ele>1782.42</ele>
        <time>2012-08-11T07:57:48Z</time>
      </trkpt>
      <trkpt lat="45.00139" lon="6.03526">
        <ele>1783.86</ele>
        <time>2012-08-11T07:57:57Z</time>
      </trkpt>
      <trkpt lat="45.00137" lon="6.03523">
        <ele>1785.31</ele>
        <time>2012-08-11T07:58:03Z</time>
      </trkpt>
      <trkpt lat="45.00135" lon="6.03524">
        <ele>1786.27</ele>
        <time>2012-08-11T07:58:10Z</time>
      </trkpt>
      <trkpt lat="45.00128" lon="6.03524">
        <ele>1788.19</ele>
        <time>2012-08-11T07:58:21Z</time>
      </trkpt>
      <trkpt lat="45.00129" lon="6.03521">
        <ele>1788.67</ele>
        <time>2012-08-11T08:00:20Z</time>
      </trkpt>
      <trkpt lat="45.00128" lon="6.0352">
        <ele>1791.07</ele>
        <time>2012-08-11T08:01:48Z</time>
      </trkpt>
      <trkpt lat="45.00128" lon="6.03518">
        <ele>1790.11</ele>
        <time>2012-08-11T08:03:23Z</time>
      </trkpt>
      <trkpt lat="45.00128" lon="6.03519">
        <ele>1781.46</ele>
        <time>2012-08-11T08:03:31Z</time>
      </trkpt>
      <trkpt lat="45.00128" lon="6.03519">
        <ele>1787.71</ele>
        <time>2012-08-11T08:03:32Z</time>
      </trkpt>
      <trkpt lat="45.00128" lon="6.03519">
        <ele>1789.15</ele>
        <time>2012-08-11T08:03:34Z</time>
      </trkpt>
      <trkpt lat="45.00126" lon="6.03519">
        <ele>1792.52</ele>
        <time>2012-08-11T08:03:56Z</time>
      </trkpt>
      <trkpt lat="45.00126" lon="6.03519">
        <ele>1789.63</ele>
        <time>2012-08-11T08:03:57Z</time>
      </trkpt>
      <trkpt lat="45.00126" lon="6.03519">
        <ele>1791.07</ele>
        <time>2012-08-11T08:04:01Z</time>
      </trkpt>
      <trkpt lat="45.00126" lon="6.03519">
        <ele>1791.07</ele>
        <time>2012-08-11T08:04:31Z</time>
      </trkpt>
      <trkpt lat="45.00126" lon="6.03518">
        <ele>1791.55</ele>
        <time>2012-08-11T08:04:51Z</time>
      </trkpt>
      <trkpt lat="45.00127" lon="6.03519">
        <ele>1791.55</ele>
        <time>2012-08-11T08:07:11Z</time>
      </trkpt>
      <trkpt lat="45.00128" lon="6.03519">
        <ele>1791.55</ele>
        <time>2012-08-11T08:07:35Z</time>
      </trkpt>
      <trkpt lat="45.00128" lon="6.03518">
        <ele>1793</ele>
        <time>2012-08-11T08:08:09Z</time>
      </trkpt>
      <trkpt lat="45.00128" lon="6.03518">
        <ele>1790.59</ele>
        <time>2012-08-11T08:08:32Z</time>
      </trkpt>
      <trkpt lat="45.00126" lon="6.03518">
        <ele>1792.03</ele>
        <time>2012-08-11T08:09:09Z</time>
      </trkpt>
      <trkpt lat="45.00125" lon="6.03518">
        <ele>1793</ele>
        <time>2012-08-11T08:10:34Z</time>
      </trkpt>
      <trkpt lat="45.00125" lon="6.03518">
        <ele>1790.59</ele>
        <time>2012-08-11T08:10:51Z</time>
      </trkpt>
      <trkpt lat="45.00124" lon="6.03519">
        <ele>1790.11</ele>
        <time>2012-08-11T08:11:03Z</time>
      </trkpt>
      <trkpt lat="45.00124" lon="6.03519">
        <ele>1793.96</ele>
        <time>2012-08-11T08:11:05Z</time>
      </trkpt>
      <trkpt lat="45.00124" lon="6.03519">
        <ele>1793.48</ele>
        <time>2012-08-11T08:11:06Z</time>
      </trkpt>
      <trkpt lat="45.00124" lon="6.03519">
        <ele>1792.03</ele>
        <time>2012-08-11T08:11:09Z</time>
      </trkpt>
      <trkpt lat="45.00126" lon="6.03518">
        <ele>1793.48</ele>
        <time>2012-08-11T08:11:36Z</time>
      </trkpt>
      <trkpt lat="45.00126" lon="6.03518">
        <ele>1793.96</ele>
        <time>2012-08-11T08:12:05Z</time>
      </trkpt>
      <trkpt lat="45.00128" lon="6.03518">
        <ele>1793.48</ele>
        <time>2012-08-11T08:12:35Z</time>
      </trkpt>
      <trkpt lat="45.00131" lon="6.03516">
        <ele>1795.4</ele>
        <time>2012-08-11T08:12:45Z</time>
      </trkpt>
      <trkpt lat="45.0013" lon="6.0351">
        <ele>1796.84</ele>
        <time>2012-08-11T08:12:56Z</time>
      </trkpt>
      <trkpt lat="45.00127" lon="6.03508">
        <ele>1798.76</ele>
        <time>2012-08-11T08:13:03Z</time>
      </trkpt>
      <trkpt lat="45.00123" lon="6.03504">
        <ele>1799.73</ele>
        <time>2012-08-11T08:13:15Z</time>
      </trkpt>
      <trkpt lat="45.0012" lon="6.03502">
        <ele>1802.13</ele>
        <time>2012-08-11T08:13:26Z</time>
      </trkpt>
      <trkpt lat="45.00116" lon="6.035">
        <ele>1802.61</ele>
        <time>2012-08-11T08:13:33Z</time>
      </trkpt>
      <trkpt lat="45.00109" lon="6.03499">
        <ele>1805.01</ele>
        <time>2012-08-11T08:13:43Z</time>
      </trkpt>
      <trkpt lat="45.00107" lon="6.035">
        <ele>1806.45</ele>
        <time>2012-08-11T08:13:45Z</time>
      </trkpt>
      <trkpt lat="45.00104" lon="6.03501">
        <ele>1807.42</ele>
        <time>2012-08-11T08:13:58Z</time>
      </trkpt>
      <trkpt lat="45.00104" lon="6.03501">
        <ele>1807.42</ele>
        <time>2012-08-11T08:13:59Z</time>
      </trkpt>
      <trkpt lat="45.00095" lon="6.03503">
        <ele>1809.82</ele>
        <time>2012-08-11T08:14:14Z</time>
      </trkpt>
      <trkpt lat="45.00095" lon="6.03504">
        <ele>1810.3</ele>
        <time>2012-08-11T08:14:17Z</time>
      </trkpt>
      <trkpt lat="45.00092" lon="6.03505">
        <ele>1811.74</ele>
        <time>2012-08-11T08:14:30Z</time>
      </trkpt>
      <trkpt lat="45.00091" lon="6.03502">
        <ele>1814.15</ele>
        <time>2012-08-11T08:14:42Z</time>
      </trkpt>
      <trkpt lat="45.0009" lon="6.03497">
        <ele>1816.07</ele>
        <time>2012-08-11T08:14:54Z</time>
      </trkpt>
      <trkpt lat="45.0009" lon="6.03493">
        <ele>1817.99</ele>
        <time>2012-08-11T08:15:08Z</time>
      </trkpt>
      <trkpt lat="45.00089" lon="6.03488">
        <ele>1819.91</ele>
        <time>2012-08-11T08:15:20Z</time>
      </trkpt>
      <trkpt lat="45.00086" lon="6.03482">
        <ele>1821.35</ele>
        <time>2012-08-11T08:15:31Z</time>
      </trkpt>
      <trkpt lat="45.00082" lon="6.03481">
        <ele>1823.76</ele>
        <time>2012-08-11T08:15:43Z</time>
      </trkpt>
      <trkpt lat="45.00083" lon="6.03478">
        <ele>1825.68</ele>
        <time>2012-08-11T08:15:52Z</time>
      </trkpt>
      <trkpt lat="45.00081" lon="6.03476">
        <ele>1826.16</ele>
        <time>2012-08-11T08:16:03Z</time>
      </trkpt>
      <trkpt lat="45.00076" lon="6.03474">
        <ele>1828.56</ele>
        <time>2012-08-11T08:16:15Z</time>
      </trkpt>
      <trkpt lat="45.00072" lon="6.03472">
        <ele>1830.49</ele>
        <time>2012-08-11T08:16:28Z</time>
      </trkpt>
      <trkpt lat="45.00069" lon="6.03472">
        <ele>1832.41</ele>
        <time>2012-08-11T08:16:36Z</time>
      </trkpt>
      <trkpt lat="45.00067" lon="6.03469">
        <ele>1833.37</ele>
        <time>2012-08-11T08:16:49Z</time>
      </trkpt>
      <trkpt lat="45.00067" lon="6.03467">
        <ele>1835.77</ele>
        <time>2012-08-11T08:16:58Z</time>
      </trkpt>
      <trkpt lat="45.00065" lon="6.03464">
        <ele>1837.22</ele>
        <time>2012-08-11T08:17:13Z</time>
      </trkpt>
      <trkpt lat="45.00063" lon="6.03462">
        <ele>1839.14</ele>
        <time>2012-08-11T08:17:23Z</time>
      </trkpt>
      <trkpt lat="45.00058" lon="6.03462">
        <ele>1840.1</ele>
        <time>2012-08-11T08:17:35Z</time>
      </trkpt>
      <trkpt lat="45.00055" lon="6.03465">
        <ele>1840.58</ele>
        <time>2012-08-11T08:17:50Z</time>
      </trkpt>
      <trkpt lat="45.0005" lon="6.03461">
        <ele>1842.98</ele>
        <time>2012-08-11T08:18:04Z</time>
      </trkpt>
      <trkpt lat="45.00047" lon="6.03459">
        <ele>1844.91</ele>
        <time>2012-08-11T08:18:14Z</time>
      </trkpt>
      <trkpt lat="45.00045" lon="6.03456">
        <ele>1847.31</ele>
        <time>2012-08-11T08:18:26Z</time>
      </trkpt>
      <trkpt lat="45.00041" lon="6.03455">
        <ele>1849.23</ele>
        <time>2012-08-11T08:18:38Z</time>
      </trkpt>
      <trkpt lat="45.00038" lon="6.03456">
        <ele>1851.64</ele>
        <time>2012-08-11T08:18:47Z</time>
      </trkpt>
      <trkpt lat="45.00035" lon="6.03454">
        <ele>1853.08</ele>
        <time>2012-08-11T08:18:58Z</time>
      </trkpt>
      <trkpt lat="45.0003" lon="6.03454">
        <ele>1855</ele>
        <time>2012-08-11T08:19:06Z</time>
      </trkpt>
      <trkpt lat="45.00028" lon="6.03452">
        <ele>1856.92</ele>
        <time>2012-08-11T08:19:15Z</time>
      </trkpt>
      <trkpt lat="45.00026" lon="6.03451">
        <ele>1858.85</ele>
        <time>2012-08-11T08:19:26Z</time>
      </trkpt>
      <trkpt lat="45.00019" lon="6.03449">
        <ele>1860.77</ele>
        <time>2012-08-11T08:19:39Z</time>
      </trkpt>
      <trkpt lat="45.00015" lon="6.03445">
        <ele>1862.69</ele>
        <time>2012-08-11T08:19:49Z</time>
      </trkpt>
      <trkpt lat="45.00014" lon="6.03444">
        <ele>1864.13</ele>
        <time>2012-08-11T08:19:57Z</time>
      </trkpt>
      <trkpt lat="45.00012" lon="6.0344">
        <ele>1865.58</ele>
        <time>2012-08-11T08:20:09Z</time>
      </trkpt>
      <trkpt lat="45.00009" lon="6.03436">
        <ele>1867.98</ele>
        <time>2012-08-11T08:20:20Z</time>
      </trkpt>
      <trkpt lat="45.00008" lon="6.03435">
        <ele>1868.94</ele>
        <time>2012-08-11T08:20:27Z</time>
      </trkpt>
      <trkpt lat="45.00005" lon="6.03434">
        <ele>1869.9</ele>
        <time>2012-08-11T08:20:30Z</time>
      </trkpt>
      <trkpt lat="44.99998" lon="6.03435">
        <ele>1871.34</ele>
        <time>2012-08-11T08:20:42Z</time>
      </trkpt>
      <trkpt lat="44.99995" lon="6.03433">
        <ele>1874.23</ele>
        <time>2012-08-11T08:20:55Z</time>
      </trkpt>
      <trkpt lat="44.99986" lon="6.03434">
        <ele>1875.19</ele>
        <time>2012-08-11T08:21:07Z</time>
      </trkpt>
      <trkpt lat="44.9998" lon="6.03431">
        <ele>1877.11</ele>
        <time>2012-08-11T08:21:19Z</time>
      </trkpt>
      <trkpt lat="44.99973" lon="6.03429">
        <ele>1878.55</ele>
        <time>2012-08-11T08:21:29Z</time>
      </trkpt>
      <trkpt lat="44.99967" lon="6.03425">
        <ele>1880.48</ele>
        <time>2012-08-11T08:21:41Z</time>
      </trkpt>
      <trkpt lat="44.9996" lon="6.0342">
        <ele>1883.36</ele>
        <time>2012-08-11T08:21:54Z</time>
      </trkpt>
      <trkpt lat="44.99955" lon="6.03419">
        <ele>1885.28</ele>
        <time>2012-08-11T08:22:06Z</time>
      </trkpt>
      <trkpt lat="44.99949" lon="6.03415">
        <ele>1886.72</ele>
        <time>2012-08-11T08:22:19Z</time>
      </trkpt>
      <trkpt lat="44.99943" lon="6.03413">
        <ele>1888.65</ele>
        <time>2012-08-11T08:22:32Z</time>
      </trkpt>
      <trkpt lat="44.9994" lon="6.03409">
        <ele>1890.09</ele>
        <time>2012-08-11T08:22:38Z</time>
      </trkpt>
      <trkpt lat="44.99937" lon="6.03405">
        <ele>1891.53</ele>
        <time>2012-08-11T08:22:47Z</time>
      </trkpt>
      <trkpt lat="44.9993" lon="6.03402">
        <ele>1892.97</ele>
        <time>2012-08-11T08:23:00Z</time>
      </trkpt>
      <trkpt lat="44.99928" lon="6.03401">
        <ele>1893.93</ele>
        <time>2012-08-11T08:23:17Z</time>
      </trkpt>
      <trkpt lat="44.99928" lon="6.03401">
        <ele>1894.42</ele>
        <time>2012-08-11T08:23:51Z</time>
      </trkpt>
      <trkpt lat="44.99926" lon="6.03401">
        <ele>1894.9</ele>
        <time>2012-08-11T08:24:15Z</time>
      </trkpt>
      <trkpt lat="44.9992" lon="6.03397">
        <ele>1895.86</ele>
        <time>2012-08-11T08:24:26Z</time>
      </trkpt>
      <trkpt lat="44.99916" lon="6.03391">
        <ele>1897.78</ele>
        <time>2012-08-11T08:24:38Z</time>
      </trkpt>
      <trkpt lat="44.99908" lon="6.03386">
        <ele>1899.22</ele>
        <time>2012-08-11T08:24:50Z</time>
      </trkpt>
      <trkpt lat="44.99905" lon="6.03385">
        <ele>1899.22</ele>
        <time>2012-08-11T08:24:53Z</time>
      </trkpt>
      <trkpt lat="44.99897" lon="6.03386">
        <ele>1901.63</ele>
        <time>2012-08-11T08:25:06Z</time>
      </trkpt>
      <trkpt lat="44.99891" lon="6.0338">
        <ele>1903.07</ele>
        <time>2012-08-11T08:25:19Z</time>
      </trkpt>
      <trkpt lat="44.9989" lon="6.03377">
        <ele>1904.03</ele>
        <time>2012-08-11T08:25:30Z</time>
      </trkpt>
      <trkpt lat="44.9989" lon="6.03376">
        <ele>1905.47</ele>
        <time>2012-08-11T08:27:49Z</time>
      </trkpt>
      <trkpt lat="44.9989" lon="6.03376">
        <ele>1905.95</ele>
        <time>2012-08-11T08:28:59Z</time>
      </trkpt>
      <trkpt lat="44.99889" lon="6.03377">
        <ele>1905.47</ele>
        <time>2012-08-11T08:30:18Z</time>
      </trkpt>
      <trkpt lat="44.99889" lon="6.03376">
        <ele>1906.43</ele>
        <time>2012-08-11T08:31:15Z</time>
      </trkpt>
      <trkpt lat="44.9988" lon="6.03373">
        <ele>1907.87</ele>
        <time>2012-08-11T08:31:27Z</time>
      </trkpt>
      <trkpt lat="44.9988" lon="6.03372">
        <ele>1908.35</ele>
        <time>2012-08-11T08:31:28Z</time>
      </trkpt>
      <trkpt lat="44.99878" lon="6.0337">
        <ele>1908.35</ele>
        <time>2012-08-11T08:31:31Z</time>
      </trkpt>
      <trkpt lat="44.9987" lon="6.03369">
        <ele>1909.8</ele>
        <time>2012-08-11T08:31:40Z</time>
      </trkpt>
      <trkpt lat="44.99864" lon="6.0336">
        <ele>1911.24</ele>
        <time>2012-08-11T08:31:53Z</time>
      </trkpt>
      <trkpt lat="44.9986" lon="6.0336">
        <ele>1911.72</ele>
        <time>2012-08-11T08:32:15Z</time>
      </trkpt>
      <trkpt lat="44.99859" lon="6.03359">
        <ele>1913.16</ele>
        <time>2012-08-11T08:32:26Z</time>
      </trkpt>
      <trkpt lat="44.99857" lon="6.03358">
        <ele>1913.64</ele>
        <time>2012-08-11T08:33:11Z</time>
      </trkpt>
      <trkpt lat="44.99857" lon="6.03359">
        <ele>1914.12</ele>
        <time>2012-08-11T08:33:14Z</time>
      </trkpt>
      <trkpt lat="44.99852" lon="6.0336">
        <ele>1915.08</ele>
        <time>2012-08-11T08:33:24Z</time>
      </trkpt>
      <trkpt lat="44.99849" lon="6.0336">
        <ele>1917.01</ele>
        <time>2012-08-11T08:33:30Z</time>
      </trkpt>
      <trkpt lat="44.99841" lon="6.03358">
        <ele>1919.41</ele>
        <time>2012-08-11T08:33:42Z</time>
      </trkpt>
      <trkpt lat="44.99839" lon="6.03357">
        <ele>1919.41</ele>
        <time>2012-08-11T08:33:45Z</time>
      </trkpt>
      <trkpt lat="44.99834" lon="6.03352">
        <ele>1922.29</ele>
        <time>2012-08-11T08:33:57Z</time>
      </trkpt>
      <trkpt lat="44.99829" lon="6.03351">
        <ele>1925.18</ele>
        <time>2012-08-11T08:34:07Z</time>
      </trkpt>
      <trkpt lat="44.99825" lon="6.03351">
        <ele>1926.14</ele>
        <time>2012-08-11T08:34:16Z</time>
      </trkpt>
      <trkpt lat="44.99825" lon="6.03349">
        <ele>1927.1</ele>
        <time>2012-08-11T08:34:21Z</time>
      </trkpt>
      <trkpt lat="44.99825" lon="6.03347">
        <ele>1927.58</ele>
        <time>2012-08-11T08:34:23Z</time>
      </trkpt>
      <trkpt lat="44.99818" lon="6.03344">
        <ele>1930.46</ele>
        <time>2012-08-11T08:34:36Z</time>
      </trkpt>
      <trkpt lat="44.99813" lon="6.03342">
        <ele>1931.91</ele>
        <time>2012-08-11T08:34:45Z</time>
      </trkpt>
      <trkpt lat="44.99809" lon="6.0334">
        <ele>1934.79</ele>
        <time>2012-08-11T08:34:58Z</time>
      </trkpt>
      <trkpt lat="44.99803" lon="6.03335">
        <ele>1936.71</ele>
        <time>2012-08-11T08:35:11Z</time>
      </trkpt>
      <trkpt lat="44.99803" lon="6.03331">
        <ele>1939.12</ele>
        <time>2012-08-11T08:35:22Z</time>
      </trkpt>
      <trkpt lat="44.99802" lon="6.03326">
        <ele>1941.04</ele>
        <time>2012-08-11T08:35:36Z</time>
      </trkpt>
      <trkpt lat="44.998" lon="6.03319">
        <ele>1942.96</ele>
        <time>2012-08-11T08:35:46Z</time>
      </trkpt>
      <trkpt lat="44.99799" lon="6.03313">
        <ele>1944.88</ele>
        <time>2012-08-11T08:35:57Z</time>
      </trkpt>
      <trkpt lat="44.99799" lon="6.03309">
        <ele>1947.77</ele>
        <time>2012-08-11T08:36:10Z</time>
      </trkpt>
      <trkpt lat="44.99799" lon="6.03305">
        <ele>1949.69</ele>
        <time>2012-08-11T08:36:24Z</time>
      </trkpt>
      <trkpt lat="44.998" lon="6.03299">
        <ele>1951.13</ele>
        <time>2012-08-11T08:36:35Z</time>
      </trkpt>
      <trkpt lat="44.998" lon="6.03294">
        <ele>1953.54</ele>
        <time>2012-08-11T08:36:50Z</time>
      </trkpt>
      <trkpt lat="44.99802" lon="6.03289">
        <ele>1955.46</ele>
        <time>2012-08-11T08:37:00Z</time>
      </trkpt>
      <trkpt lat="44.99801" lon="6.03287">
        <ele>1955.46</ele>
        <time>2012-08-11T08:37:04Z</time>
      </trkpt>
      <trkpt lat="44.998" lon="6.03282">
        <ele>1957.86</ele>
        <time>2012-08-11T08:37:17Z</time>
      </trkpt>
      <trkpt lat="44.998" lon="6.03276">
        <ele>1959.3</ele>
        <time>2012-08-11T08:37:28Z</time>
      </trkpt>
      <trkpt lat="44.998" lon="6.0327">
        <ele>1961.71</ele>
        <time>2012-08-11T08:37:41Z</time>
      </trkpt>
      <trkpt lat="44.998" lon="6.03268">
        <ele>1963.15</ele>
        <time>2012-08-11T08:37:52Z</time>
      </trkpt>
      <trkpt lat="44.99802" lon="6.03267">
        <ele>1964.11</ele>
        <time>2012-08-11T08:38:00Z</time>
      </trkpt>
      <trkpt lat="44.99806" lon="6.03265">
        <ele>1965.55</ele>
        <time>2012-08-11T08:38:09Z</time>
      </trkpt>
      <trkpt lat="44.99809" lon="6.03264">
        <ele>1968.92</ele>
        <time>2012-08-11T08:38:27Z</time>
      </trkpt>
      <trkpt lat="44.99811" lon="6.03261">
        <ele>1969.4</ele>
        <time>2012-08-11T08:38:38Z</time>
      </trkpt>
      <trkpt lat="44.99812" lon="6.03261">
        <ele>1969.88</ele>
        <time>2012-08-11T08:39:13Z</time>
      </trkpt>
      <trkpt lat="44.99813" lon="6.03258">
        <ele>1970.36</ele>
        <time>2012-08-11T08:39:44Z</time>
      </trkpt>
      <trkpt lat="44.99813" lon="6.03256">
        <ele>1971.32</ele>
        <time>2012-08-11T08:39:48Z</time>
      </trkpt>
      <trkpt lat="44.99816" lon="6.03248">
        <ele>1974.2</ele>
        <time>2012-08-11T08:39:59Z</time>
      </trkpt>
      <trkpt lat="44.99814" lon="6.0324">
        <ele>1976.13</ele>
        <time>2012-08-11T08:40:09Z</time>
      </trkpt>
      <trkpt lat="44.99816" lon="6.03235">
        <ele>1978.05</ele>
        <time>2012-08-11T08:40:22Z</time>
      </trkpt>
      <trkpt lat="44.99818" lon="6.03227">
        <ele>1979.49</ele>
        <time>2012-08-11T08:40:32Z</time>
      </trkpt>
      <trkpt lat="44.99817" lon="6.03222">
        <ele>1981.9</ele>
        <time>2012-08-11T08:40:43Z</time>
      </trkpt>
      <trkpt lat="44.99818" lon="6.03216">
        <ele>1984.3</ele>
        <time>2012-08-11T08:40:54Z</time>
      </trkpt>
      <trkpt lat="44.9982" lon="6.03211">
        <ele>1986.7</ele>
        <time>2012-08-11T08:41:08Z</time>
      </trkpt>
      <trkpt lat="44.99821" lon="6.03207">
        <ele>1988.14</ele>
        <time>2012-08-11T08:41:19Z</time>
      </trkpt>
      <trkpt lat="44.99822" lon="6.03203">
        <ele>1990.07</ele>
        <time>2012-08-11T08:41:33Z</time>
      </trkpt>
      <trkpt lat="44.99825" lon="6.03198">
        <ele>1991.99</ele>
        <time>2012-08-11T08:41:44Z</time>
      </trkpt>
      <trkpt lat="44.99828" lon="6.0319">
        <ele>1993.91</ele>
        <time>2012-08-11T08:41:56Z</time>
      </trkpt>
      <trkpt lat="44.99829" lon="6.03184">
        <ele>1996.32</ele>
        <time>2012-08-11T08:42:09Z</time>
      </trkpt>
      <trkpt lat="44.99831" lon="6.0318">
        <ele>1997.76</ele>
        <time>2012-08-11T08:42:23Z</time>
      </trkpt>
      <trkpt lat="44.99833" lon="6.03176">
        <ele>1998.72</ele>
        <time>2012-08-11T08:42:30Z</time>
      </trkpt>
      <trkpt lat="44.99838" lon="6.03168">
        <ele>2001.6</ele>
        <time>2012-08-11T08:42:41Z</time>
      </trkpt>
      <trkpt lat="44.99842" lon="6.03159">
        <ele>2004.01</ele>
        <time>2012-08-11T08:42:51Z</time>
      </trkpt>
      <trkpt lat="44.99846" lon="6.03152">
        <ele>2006.41</ele>
        <time>2012-08-11T08:43:04Z</time>
      </trkpt>
      <trkpt lat="44.9985" lon="6.0315">
        <ele>2009.29</ele>
        <time>2012-08-11T08:43:17Z</time>
      </trkpt>
      <trkpt lat="44.99851" lon="6.03147">
        <ele>2010.73</ele>
        <time>2012-08-11T08:43:28Z</time>
      </trkpt>
      <trkpt lat="44.99851" lon="6.03146">
        <ele>2011.7</ele>
        <time>2012-08-11T08:44:08Z</time>
      </trkpt>
      <trkpt lat="44.99851" lon="6.03143">
        <ele>2013.62</ele>
        <time>2012-08-11T08:45:54Z</time>
      </trkpt>
      <trkpt lat="44.99852" lon="6.03139">
        <ele>2015.54</ele>
        <time>2012-08-11T08:46:04Z</time>
      </trkpt>
      <trkpt lat="44.99858" lon="6.03138">
        <ele>2017.46</ele>
        <time>2012-08-11T08:46:16Z</time>
      </trkpt>
      <trkpt lat="44.99864" lon="6.03139">
        <ele>2018.91</ele>
        <time>2012-08-11T08:46:29Z</time>
      </trkpt>
      <trkpt lat="44.99866" lon="6.03141">
        <ele>2018.91</ele>
        <time>2012-08-11T08:46:35Z</time>
      </trkpt>
      <trkpt lat="44.99871" lon="6.03148">
        <ele>2020.83</ele>
        <time>2012-08-11T08:46:47Z</time>
      </trkpt>
      <trkpt lat="44.99874" lon="6.03148">
        <ele>2021.31</ele>
        <time>2012-08-11T08:46:55Z</time>
      </trkpt>
      <trkpt lat="44.99875" lon="6.03146">
        <ele>2022.27</ele>
        <time>2012-08-11T08:46:57Z</time>
      </trkpt>
      <trkpt lat="44.99878" lon="6.03141">
        <ele>2024.19</ele>
        <time>2012-08-11T08:47:09Z</time>
      </trkpt>
      <trkpt lat="44.99885" lon="6.0314">
        <ele>2026.6</ele>
        <time>2012-08-11T08:47:21Z</time>
      </trkpt>
      <trkpt lat="44.99887" lon="6.0314">
        <ele>2027.56</ele>
        <time>2012-08-11T08:47:25Z</time>
      </trkpt>
      <trkpt lat="44.99891" lon="6.0314">
        <ele>2028.52</ele>
        <time>2012-08-11T08:47:43Z</time>
      </trkpt>
      <trkpt lat="44.99897" lon="6.03138">
        <ele>2029.48</ele>
        <time>2012-08-11T08:47:55Z</time>
      </trkpt>
      <trkpt lat="44.99899" lon="6.03137">
        <ele>2030.44</ele>
        <time>2012-08-11T08:47:57Z</time>
      </trkpt>
      <trkpt lat="44.99899" lon="6.03135">
        <ele>2030.44</ele>
        <time>2012-08-11T08:48:00Z</time>
      </trkpt>
      <trkpt lat="44.999" lon="6.03126">
        <ele>2033.81</ele>
        <time>2012-08-11T08:48:13Z</time>
      </trkpt>
      <trkpt lat="44.99899" lon="6.03125">
        <ele>2034.29</ele>
        <time>2012-08-11T08:48:15Z</time>
      </trkpt>
      <trkpt lat="44.99894" lon="6.03122">
        <ele>2036.69</ele>
        <time>2012-08-11T08:48:25Z</time>
      </trkpt>
      <trkpt lat="44.99894" lon="6.03115">
        <ele>2038.61</ele>
        <time>2012-08-11T08:48:37Z</time>
      </trkpt>
      <trkpt lat="44.99893" lon="6.03115">
        <ele>2038.61</ele>
        <time>2012-08-11T08:48:40Z</time>
      </trkpt>
      <trkpt lat="44.99893" lon="6.0311">
        <ele>2040.05</ele>
        <time>2012-08-11T08:48:51Z</time>
      </trkpt>
      <trkpt lat="44.99894" lon="6.03102">
        <ele>2042.94</ele>
        <time>2012-08-11T08:49:03Z</time>
      </trkpt>
      <trkpt lat="44.99893" lon="6.03096">
        <ele>2044.38</ele>
        <time>2012-08-11T08:49:13Z</time>
      </trkpt>
      <trkpt lat="44.99897" lon="6.03089">
        <ele>2046.78</ele>
        <time>2012-08-11T08:49:25Z</time>
      </trkpt>
      <trkpt lat="44.99896" lon="6.03086">
        <ele>2049.19</ele>
        <time>2012-08-11T08:49:36Z</time>
      </trkpt>
      <trkpt lat="44.99897" lon="6.03082">
        <ele>2050.63</ele>
        <time>2012-08-11T08:49:44Z</time>
      </trkpt>
      <trkpt lat="44.99898" lon="6.03079">
        <ele>2052.07</ele>
        <time>2012-08-11T08:49:54Z</time>
      </trkpt>
      <trkpt lat="44.99903" lon="6.03073">
        <ele>2053.51</ele>
        <time>2012-08-11T08:50:04Z</time>
      </trkpt>
      <trkpt lat="44.99901" lon="6.03066">
        <ele>2056.4</ele>
        <time>2012-08-11T08:50:16Z</time>
      </trkpt>
      <trkpt lat="44.99899" lon="6.03062">
        <ele>2057.84</ele>
        <time>2012-08-11T08:50:24Z</time>
      </trkpt>
      <trkpt lat="44.999" lon="6.03058">
        <ele>2058.8</ele>
        <time>2012-08-11T08:50:34Z</time>
      </trkpt>
      <trkpt lat="44.999" lon="6.03053">
        <ele>2062.17</ele>
        <time>2012-08-11T08:50:48Z</time>
      </trkpt>
      <trkpt lat="44.99896" lon="6.03048">
        <ele>2063.61</ele>
        <time>2012-08-11T08:51:01Z</time>
      </trkpt>
      <trkpt lat="44.99896" lon="6.03046">
        <ele>2064.09</ele>
        <time>2012-08-11T08:54:25Z</time>
      </trkpt>
      <trkpt lat="44.99897" lon="6.03045">
        <ele>2065.53</ele>
        <time>2012-08-11T08:55:20Z</time>
      </trkpt>
      <trkpt lat="44.99896" lon="6.0304">
        <ele>2066.97</ele>
        <time>2012-08-11T08:55:44Z</time>
      </trkpt>
      <trkpt lat="44.99894" lon="6.03032">
        <ele>2068.89</ele>
        <time>2012-08-11T08:55:55Z</time>
      </trkpt>
      <trkpt lat="44.99895" lon="6.0303">
        <ele>2070.34</ele>
        <time>2012-08-11T08:56:05Z</time>
      </trkpt>
      <trkpt lat="44.99897" lon="6.03028">
        <ele>2072.26</ele>
        <time>2012-08-11T08:56:16Z</time>
      </trkpt>
      <trkpt lat="44.99895" lon="6.03025">
        <ele>2073.7</ele>
        <time>2012-08-11T08:56:25Z</time>
      </trkpt>
      <trkpt lat="44.99896" lon="6.03019">
        <ele>2076.1</ele>
        <time>2012-08-11T08:56:38Z</time>
      </trkpt>
      <trkpt lat="44.99899" lon="6.03013">
        <ele>2077.55</ele>
        <time>2012-08-11T08:56:47Z</time>
      </trkpt>
      <trkpt lat="44.99898" lon="6.03009">
        <ele>2079.95</ele>
        <time>2012-08-11T08:57:00Z</time>
      </trkpt>
      <trkpt lat="44.99897" lon="6.03006">
        <ele>2080.91</ele>
        <time>2012-08-11T08:57:12Z</time>
      </trkpt>
      <trkpt lat="44.99896" lon="6.03002">
        <ele>2083.79</ele>
        <time>2012-08-11T08:57:26Z</time>
      </trkpt>
      <trkpt lat="44.99894" lon="6.02998">
        <ele>2085.72</ele>
        <time>2012-08-11T08:57:36Z</time>
      </trkpt>
      <trkpt lat="44.99888" lon="6.02994">
        <ele>2087.64</ele>
        <time>2012-08-11T08:57:49Z</time>
      </trkpt>
      <trkpt lat="44.99887" lon="6.02994">
        <ele>2088.12</ele>
        <time>2012-08-11T08:57:50Z</time>
      </trkpt>
      <trkpt lat="44.99881" lon="6.02988">
        <ele>2090.52</ele>
        <time>2012-08-11T08:58:02Z</time>
      </trkpt>
      <trkpt lat="44.9988" lon="6.02982">
        <ele>2092.93</ele>
        <time>2012-08-11T08:58:15Z</time>
      </trkpt>
      <trkpt lat="44.99878" lon="6.02976">
        <ele>2094.85</ele>
        <time>2012-08-11T08:58:26Z</time>
      </trkpt>
      <trkpt lat="44.99876" lon="6.02971">
        <ele>2097.25</ele>
        <time>2012-08-11T08:58:40Z</time>
      </trkpt>
      <trkpt lat="44.99876" lon="6.02961">
        <ele>2099.66</ele>
        <time>2012-08-11T08:58:52Z</time>
      </trkpt>
      <trkpt lat="44.99872" lon="6.02954">
        <ele>2101.58</ele>
        <time>2012-08-11T08:59:06Z</time>
      </trkpt>
      <trkpt lat="44.99871" lon="6.02951">
        <ele>2103.02</ele>
        <time>2012-08-11T08:59:12Z</time>
      </trkpt>
      <trkpt lat="44.99866" lon="6.0294">
        <ele>2105.91</ele>
        <time>2012-08-11T08:59:26Z</time>
      </trkpt>
      <trkpt lat="44.99865" lon="6.02938">
        <ele>2106.87</ele>
        <time>2012-08-11T08:59:44Z</time>
      </trkpt>
      <trkpt lat="44.99865" lon="6.02938">
        <ele>2107.35</ele>
        <time>2012-08-11T09:00:55Z</time>
      </trkpt>
      <trkpt lat="44.99862" lon="6.02932">
        <ele>2109.75</ele>
        <time>2012-08-11T09:01:36Z</time>
      </trkpt>
      <trkpt lat="44.99859" lon="6.02933">
        <ele>2109.27</ele>
        <time>2012-08-11T09:01:47Z</time>
      </trkpt>
      <trkpt lat="44.99862" lon="6.02931">
        <ele>2111.67</ele>
        <time>2012-08-11T09:02:55Z</time>
      </trkpt>
      <trkpt lat="44.9986" lon="6.02928">
        <ele>2113.6</ele>
        <time>2012-08-11T09:03:06Z</time>
      </trkpt>
      <trkpt lat="44.99858" lon="6.0292">
        <ele>2116</ele>
        <time>2012-08-11T09:03:19Z</time>
      </trkpt>
      <trkpt lat="44.99855" lon="6.02915">
        <ele>2118.4</ele>
        <time>2012-08-11T09:03:29Z</time>
      </trkpt>
      <trkpt lat="44.99855" lon="6.02914">
        <ele>2118.4</ele>
        <time>2012-08-11T09:03:30Z</time>
      </trkpt>
      <trkpt lat="44.99852" lon="6.02907">
        <ele>2122.25</ele>
        <time>2012-08-11T09:03:44Z</time>
      </trkpt>
      <trkpt lat="44.99852" lon="6.02905">
        <ele>2121.77</ele>
        <time>2012-08-11T09:03:46Z</time>
      </trkpt>
      <trkpt lat="44.99848" lon="6.02902">
        <ele>2123.21</ele>
        <time>2012-08-11T09:03:55Z</time>
      </trkpt>
      <trkpt lat="44.99847" lon="6.02901">
        <ele>2123.69</ele>
        <time>2012-08-11T09:03:56Z</time>
      </trkpt>
      <trkpt lat="44.99847" lon="6.02897">
        <ele>2123.69</ele>
        <time>2012-08-11T09:03:59Z</time>
      </trkpt>
      <trkpt lat="44.99841" lon="6.02896">
        <ele>2126.09</ele>
        <time>2012-08-11T09:04:13Z</time>
      </trkpt>
      <trkpt lat="44.9984" lon="6.02892">
        <ele>2127.53</ele>
        <time>2012-08-11T09:04:30Z</time>
      </trkpt>
      <trkpt lat="44.99837" lon="6.02891">
        <ele>2128.5</ele>
        <time>2012-08-11T09:04:38Z</time>
      </trkpt>
      <trkpt lat="44.99835" lon="6.02895">
        <ele>2129.46</ele>
        <time>2012-08-11T09:04:50Z</time>
      </trkpt>
      <trkpt lat="44.99833" lon="6.0289">
        <ele>2131.38</ele>
        <time>2012-08-11T09:05:03Z</time>
      </trkpt>
      <trkpt lat="44.99831" lon="6.02885">
        <ele>2133.3</ele>
        <time>2012-08-11T09:05:24Z</time>
      </trkpt>
      <trkpt lat="44.9983" lon="6.0288">
        <ele>2134.74</ele>
        <time>2012-08-11T09:06:12Z</time>
      </trkpt>
      <trkpt lat="44.99827" lon="6.02873">
        <ele>2137.63</ele>
        <time>2012-08-11T09:06:25Z</time>
      </trkpt>
      <trkpt lat="44.99824" lon="6.02866">
        <ele>2139.55</ele>
        <time>2012-08-11T09:06:37Z</time>
      </trkpt>
      <trkpt lat="44.99824" lon="6.02863">
        <ele>2140.51</ele>
        <time>2012-08-11T09:06:45Z</time>
      </trkpt>
      <trkpt lat="44.99821" lon="6.02858">
        <ele>2141.95</ele>
        <time>2012-08-11T09:06:55Z</time>
      </trkpt>
      <trkpt lat="44.9982" lon="6.02857">
        <ele>2141.95</ele>
        <time>2012-08-11T09:06:56Z</time>
      </trkpt>
      <trkpt lat="44.9982" lon="6.0285">
        <ele>2143.88</ele>
        <time>2012-08-11T09:07:04Z</time>
      </trkpt>
      <trkpt lat="44.99819" lon="6.02843">
        <ele>2146.76</ele>
        <time>2012-08-11T09:07:14Z</time>
      </trkpt>
      <trkpt lat="44.99819" lon="6.0284">
        <ele>2147.72</ele>
        <time>2012-08-11T09:07:18Z</time>
      </trkpt>
      <trkpt lat="44.99818" lon="6.02834">
        <ele>2149.65</ele>
        <time>2012-08-11T09:07:27Z</time>
      </trkpt>
      <trkpt lat="44.99818" lon="6.02827">
        <ele>2151.57</ele>
        <time>2012-08-11T09:07:40Z</time>
      </trkpt>
      <trkpt lat="44.99816" lon="6.02821">
        <ele>2154.93</ele>
        <time>2012-08-11T09:07:51Z</time>
      </trkpt>
      <trkpt lat="44.99814" lon="6.02815">
        <ele>2156.37</ele>
        <time>2012-08-11T09:08:04Z</time>
      </trkpt>
      <trkpt lat="44.99814" lon="6.02809">
        <ele>2159.26</ele>
        <time>2012-08-11T09:08:23Z</time>
      </trkpt>
      <trkpt lat="44.99811" lon="6.02804">
        <ele>2161.66</ele>
        <time>2012-08-11T09:08:39Z</time>
      </trkpt>
      <trkpt lat="44.9981" lon="6.02797">
        <ele>2163.58</ele>
        <time>2012-08-11T09:08:54Z</time>
      </trkpt>
      <trkpt lat="44.99805" lon="6.0279">
        <ele>2165.99</ele>
        <time>2012-08-11T09:09:04Z</time>
      </trkpt>
      <trkpt lat="44.99801" lon="6.02786">
        <ele>2167.91</ele>
        <time>2012-08-11T09:09:13Z</time>
      </trkpt>
      <trkpt lat="44.99799" lon="6.02785">
        <ele>2167.91</ele>
        <time>2012-08-11T09:09:15Z</time>
      </trkpt>
      <trkpt lat="44.99798" lon="6.02782">
        <ele>2169.83</ele>
        <time>2012-08-11T09:09:22Z</time>
      </trkpt>
      <trkpt lat="44.99795" lon="6.02779">
        <ele>2171.27</ele>
        <time>2012-08-11T09:09:28Z</time>
      </trkpt>
      <trkpt lat="44.99793" lon="6.02775">
        <ele>2172.72</ele>
        <time>2012-08-11T09:09:34Z</time>
      </trkpt>
      <trkpt lat="44.99788" lon="6.02774">
        <ele>2175.6</ele>
        <time>2012-08-11T09:09:46Z</time>
      </trkpt>
      <trkpt lat="44.9978" lon="6.02776">
        <ele>2177.52</ele>
        <time>2012-08-11T09:09:59Z</time>
      </trkpt>
      <trkpt lat="44.99776" lon="6.02773">
        <ele>2179.45</ele>
        <time>2012-08-11T09:10:11Z</time>
      </trkpt>
      <trkpt lat="44.99771" lon="6.02774">
        <ele>2179.45</ele>
        <time>2012-08-11T09:10:17Z</time>
      </trkpt>
      <trkpt lat="44.99768" lon="6.02774">
        <ele>2178.97</ele>
        <time>2012-08-11T09:10:20Z</time>
      </trkpt>
      <trkpt lat="44.99765" lon="6.02776">
        <ele>2178.48</ele>
        <time>2012-08-11T09:10:33Z</time>
      </trkpt>
      <trkpt lat="44.99761" lon="6.02778">
        <ele>2180.41</ele>
        <time>2012-08-11T09:13:03Z</time>
      </trkpt>
      <trkpt lat="44.99758" lon="6.02779">
        <ele>2180.89</ele>
        <time>2012-08-11T09:13:07Z</time>
      </trkpt>
      <trkpt lat="44.99748" lon="6.02781">
        <ele>2182.81</ele>
        <time>2012-08-11T09:13:19Z</time>
      </trkpt>
      <trkpt lat="44.99743" lon="6.02782">
        <ele>2184.25</ele>
        <time>2012-08-11T09:13:25Z</time>
      </trkpt>
      <trkpt lat="44.99741" lon="6.02781">
        <ele>2184.25</ele>
        <time>2012-08-11T09:13:28Z</time>
      </trkpt>
      <trkpt lat="44.99738" lon="6.0278">
        <ele>2184.73</ele>
        <time>2012-08-11T09:13:31Z</time>
      </trkpt>
      <trkpt lat="44.99728" lon="6.02779">
        <ele>2186.66</ele>
        <time>2012-08-11T09:13:44Z</time>
      </trkpt>
      <trkpt lat="44.99721" lon="6.02775">
        <ele>2188.58</ele>
        <time>2012-08-11T09:13:55Z</time>
      </trkpt>
      <trkpt lat="44.99718" lon="6.02775">
        <ele>2189.54</ele>
        <time>2012-08-11T09:14:00Z</time>
      </trkpt>
      <trkpt lat="44.99712" lon="6.02779">
        <ele>2190.98</ele>
        <time>2012-08-11T09:14:11Z</time>
      </trkpt>
      <trkpt lat="44.99709" lon="6.0278">
        <ele>2193.87</ele>
        <time>2012-08-11T09:14:23Z</time>
      </trkpt>
      <trkpt lat="44.99703" lon="6.02781">
        <ele>2195.79</ele>
        <time>2012-08-11T09:14:36Z</time>
      </trkpt>
      <trkpt lat="44.99698" lon="6.02779">
        <ele>2197.23</ele>
        <time>2012-08-11T09:14:46Z</time>
      </trkpt>
      <trkpt lat="44.99691" lon="6.02775">
        <ele>2199.63</ele>
        <time>2012-08-11T09:14:56Z</time>
      </trkpt>
      <trkpt lat="44.99683" lon="6.02772">
        <ele>2201.08</ele>
        <time>2012-08-11T09:15:08Z</time>
      </trkpt>
      <trkpt lat="44.99679" lon="6.0277">
        <ele>2201.56</ele>
        <time>2012-08-11T09:15:13Z</time>
      </trkpt>
      <trkpt lat="44.99677" lon="6.02767">
        <ele>2203</ele>
        <time>2012-08-11T09:15:18Z</time>
      </trkpt>
      <trkpt lat="44.99671" lon="6.02762">
        <ele>2203.96</ele>
        <time>2012-08-11T09:15:30Z</time>
      </trkpt>
      <trkpt lat="44.99663" lon="6.02757">
        <ele>2206.36</ele>
        <time>2012-08-11T09:15:40Z</time>
      </trkpt>
      <trkpt lat="44.99657" lon="6.02752">
        <ele>2208.29</ele>
        <time>2012-08-11T09:15:51Z</time>
      </trkpt>
      <trkpt lat="44.99646" lon="6.02746">
        <ele>2209.73</ele>
        <time>2012-08-11T09:16:05Z</time>
      </trkpt>
      <trkpt lat="44.99642" lon="6.02747">
        <ele>2209.73</ele>
        <time>2012-08-11T09:16:11Z</time>
      </trkpt>
      <trkpt lat="44.99635" lon="6.02755">
        <ele>2210.21</ele>
        <time>2012-08-11T09:16:20Z</time>
      </trkpt>
      <trkpt lat="44.9963" lon="6.02757">
        <ele>2212.13</ele>
        <time>2012-08-11T09:16:30Z</time>
      </trkpt>
      <trkpt lat="44.99624" lon="6.02757">
        <ele>2214.05</ele>
        <time>2012-08-11T09:16:40Z</time>
      </trkpt>
      <trkpt lat="44.99621" lon="6.02758">
        <ele>2214.53</ele>
        <time>2012-08-11T09:16:55Z</time>
      </trkpt>
      <trkpt lat="44.99619" lon="6.0276">
        <ele>2214.05</ele>
        <time>2012-08-11T09:16:58Z</time>
      </trkpt>
      <trkpt lat="44.99612" lon="6.02768">
        <ele>2215.98</ele>
        <time>2012-08-11T09:17:10Z</time>
      </trkpt>
      <trkpt lat="44.99607" lon="6.02774">
        <ele>2217.9</ele>
        <time>2012-08-11T09:17:20Z</time>
      </trkpt>
      <trkpt lat="44.996" lon="6.02776">
        <ele>2219.82</ele>
        <time>2012-08-11T09:17:29Z</time>
      </trkpt>
      <trkpt lat="44.99591" lon="6.02779">
        <ele>2220.3</ele>
        <time>2012-08-11T09:17:40Z</time>
      </trkpt>
      <trkpt lat="44.99583" lon="6.02778">
        <ele>2221.26</ele>
        <time>2012-08-11T09:17:51Z</time>
      </trkpt>
      <trkpt lat="44.99579" lon="6.02778">
        <ele>2219.82</ele>
        <time>2012-08-11T09:17:56Z</time>
      </trkpt>
      <trkpt lat="44.99577" lon="6.02779">
        <ele>2220.3</ele>
        <time>2012-08-11T09:17:58Z</time>
      </trkpt>
      <trkpt lat="44.9957" lon="6.02777">
        <ele>2221.26</ele>
        <time>2012-08-11T09:18:07Z</time>
      </trkpt>
      <trkpt lat="44.99566" lon="6.02781">
        <ele>2221.74</ele>
        <time>2012-08-11T09:18:13Z</time>
      </trkpt>
      <trkpt lat="44.99564" lon="6.02782">
        <ele>2221.26</ele>
        <time>2012-08-11T09:18:15Z</time>
      </trkpt>
      <trkpt lat="44.99552" lon="6.02788">
        <ele>2222.71</ele>
        <time>2012-08-11T09:18:29Z</time>
      </trkpt>
      <trkpt lat="44.99547" lon="6.02791">
        <ele>2222.22</ele>
        <time>2012-08-11T09:18:36Z</time>
      </trkpt>
      <trkpt lat="44.99541" lon="6.02792">
        <ele>2223.19</ele>
        <time>2012-08-11T09:18:47Z</time>
      </trkpt>
      <trkpt lat="44.9954" lon="6.02792">
        <ele>2223.67</ele>
        <time>2012-08-11T09:18:51Z</time>
      </trkpt>
      <trkpt lat="44.99532" lon="6.02792">
        <ele>2225.11</ele>
        <time>2012-08-11T09:19:03Z</time>
      </trkpt>
      <trkpt lat="44.99527" lon="6.02792">
        <ele>2226.07</ele>
        <time>2012-08-11T09:19:14Z</time>
      </trkpt>
      <trkpt lat="44.99523" lon="6.02792">
        <ele>2227.03</ele>
        <time>2012-08-11T09:19:26Z</time>
      </trkpt>
      <trkpt lat="44.99516" lon="6.0279">
        <ele>2228.95</ele>
        <time>2012-08-11T09:19:40Z</time>
      </trkpt>
      <trkpt lat="44.99512" lon="6.02793">
        <ele>2228.47</ele>
        <time>2012-08-11T09:19:47Z</time>
      </trkpt>
      <trkpt lat="44.99507" lon="6.02799">
        <ele>2228.95</ele>
        <time>2012-08-11T09:19:58Z</time>
      </trkpt>
      <trkpt lat="44.99507" lon="6.02803">
        <ele>2229.43</ele>
        <time>2012-08-11T09:20:02Z</time>
      </trkpt>
      <trkpt lat="44.99504" lon="6.02814">
        <ele>2230.88</ele>
        <time>2012-08-11T09:20:17Z</time>
      </trkpt>
      <trkpt lat="44.99505" lon="6.02813">
        <ele>2230.88</ele>
        <time>2012-08-11T09:20:43Z</time>
      </trkpt>
      <trkpt lat="44.995" lon="6.02819">
        <ele>2232.32</ele>
        <time>2012-08-11T09:22:00Z</time>
      </trkpt>
      <trkpt lat="44.99499" lon="6.0282">
        <ele>2232.8</ele>
        <time>2012-08-11T09:22:28Z</time>
      </trkpt>
      <trkpt lat="44.99499" lon="6.02819">
        <ele>2232.8</ele>
        <time>2012-08-11T09:23:04Z</time>
      </trkpt>
      <trkpt lat="44.99498" lon="6.0282">
        <ele>2232.8</ele>
        <time>2012-08-11T09:23:41Z</time>
      </trkpt>
      <trkpt lat="44.99499" lon="6.02828">
        <ele>2232.8</ele>
        <time>2012-08-11T09:23:51Z</time>
      </trkpt>
      <trkpt lat="44.99498" lon="6.02832">
        <ele>2234.24</ele>
        <time>2012-08-11T09:24:04Z</time>
      </trkpt>
      <trkpt lat="44.99499" lon="6.02833">
        <ele>2234.24</ele>
        <time>2012-08-11T09:24:06Z</time>
      </trkpt>
      <trkpt lat="44.99497" lon="6.02839">
        <ele>2235.68</ele>
        <time>2012-08-11T09:24:17Z</time>
      </trkpt>
      <trkpt lat="44.99495" lon="6.02848">
        <ele>2236.64</ele>
        <time>2012-08-11T09:24:25Z</time>
      </trkpt>
      <trkpt lat="44.99495" lon="6.0285">
        <ele>2237.13</ele>
        <time>2012-08-11T09:24:49Z</time>
      </trkpt>
      <trkpt lat="44.99492" lon="6.02854">
        <ele>2239.05</ele>
        <time>2012-08-11T09:25:01Z</time>
      </trkpt>
      <trkpt lat="44.99486" lon="6.02854">
        <ele>2241.93</ele>
        <time>2012-08-11T09:25:14Z</time>
      </trkpt>
      <trkpt lat="44.99481" lon="6.02855">
        <ele>2242.89</ele>
        <time>2012-08-11T09:25:25Z</time>
      </trkpt>
      <trkpt lat="44.99481" lon="6.02856">
        <ele>2243.37</ele>
        <time>2012-08-11T09:25:26Z</time>
      </trkpt>
      <trkpt lat="44.99477" lon="6.0286">
        <ele>2245.3</ele>
        <time>2012-08-11T09:25:42Z</time>
      </trkpt>
      <trkpt lat="44.99472" lon="6.02866">
        <ele>2247.7</ele>
        <time>2012-08-11T09:25:55Z</time>
      </trkpt>
      <trkpt lat="44.99468" lon="6.02869">
        <ele>2249.14</ele>
        <time>2012-08-11T09:26:08Z</time>
      </trkpt>
      <trkpt lat="44.99467" lon="6.02869">
        <ele>2250.58</ele>
        <time>2012-08-11T09:26:17Z</time>
      </trkpt>
      <trkpt lat="44.99461" lon="6.02866">
        <ele>2252.51</ele>
        <time>2012-08-11T09:26:31Z</time>
      </trkpt>
      <trkpt lat="44.99455" lon="6.02871">
        <ele>2255.39</ele>
        <time>2012-08-11T09:26:48Z</time>
      </trkpt>
      <trkpt lat="44.99448" lon="6.02875">
        <ele>2258.27</ele>
        <time>2012-08-11T09:26:59Z</time>
      </trkpt>
      <trkpt lat="44.99441" lon="6.02881">
        <ele>2260.2</ele>
        <time>2012-08-11T09:27:11Z</time>
      </trkpt>
      <trkpt lat="44.99435" lon="6.02886">
        <ele>2262.6</ele>
        <time>2012-08-11T09:27:23Z</time>
      </trkpt>
      <trkpt lat="44.99427" lon="6.02891">
        <ele>2262.12</ele>
        <time>2012-08-11T09:27:36Z</time>
      </trkpt>
      <trkpt lat="44.99427" lon="6.02891">
        <ele>2262.6</ele>
        <time>2012-08-11T09:28:13Z</time>
      </trkpt>
      <trkpt lat="44.99427" lon="6.02891">
        <ele>2262.6</ele>
        <time>2012-08-11T09:28:44Z</time>
      </trkpt>
      <trkpt lat="44.99427" lon="6.02891">
        <ele>2262.6</ele>
        <time>2012-08-11T09:29:39Z</time>
      </trkpt>
      <trkpt lat="44.99427" lon="6.02891">
        <ele>2262.6</ele>
        <time>2012-08-11T09:30:15Z</time>
      </trkpt>
      <trkpt lat="44.99426" lon="6.02892">
        <ele>2263.08</ele>
        <time>2012-08-11T09:31:16Z</time>
      </trkpt>
      <trkpt lat="44.99426" lon="6.02892">
        <ele>2263.56</ele>
        <time>2012-08-11T09:31:49Z</time>
      </trkpt>
      <trkpt lat="44.99426" lon="6.02891">
        <ele>2269.33</ele>
        <time>2012-08-11T09:39:30Z</time>
      </trkpt>
      <trkpt lat="44.99426" lon="6.02891">
        <ele>2267.89</ele>
        <time>2012-08-11T09:39:31Z</time>
      </trkpt>
      <trkpt lat="44.99426" lon="6.02891">
        <ele>2264.52</ele>
        <time>2012-08-11T09:39:32Z</time>
      </trkpt>
      <trkpt lat="44.99426" lon="6.02891">
        <ele>2261.64</ele>
        <time>2012-08-11T09:40:40Z</time>
      </trkpt>
      <trkpt lat="44.99426" lon="6.02891">
        <ele>2265.48</ele>
        <time>2012-08-11T09:40:42Z</time>
      </trkpt>
      <trkpt lat="44.99426" lon="6.02891">
        <ele>2262.6</ele>
        <time>2012-08-11T09:41:00Z</time>
      </trkpt>
      <trkpt lat="44.99426" lon="6.02891">
        <ele>2265</ele>
        <time>2012-08-11T09:41:02Z</time>
      </trkpt>
      <trkpt lat="44.99426" lon="6.02892">
        <ele>2270.29</ele>
        <time>2012-08-11T09:50:06Z</time>
      </trkpt>
      <trkpt lat="44.99426" lon="6.02892">
        <ele>2268.37</ele>
        <time>2012-08-11T09:50:07Z</time>
      </trkpt>
      <trkpt lat="44.99426" lon="6.02892">
        <ele>2265</ele>
        <time>2012-08-11T09:50:08Z</time>
      </trkpt>
      <trkpt lat="44.99426" lon="6.02892">
        <ele>2265</ele>
        <time>2012-08-11T09:50:09Z</time>
      </trkpt>
      <trkpt lat="44.99426" lon="6.02892">
        <ele>2265</ele>
        <time>2012-08-11T09:53:51Z</time>
      </trkpt>
      <trkpt lat="44.99426" lon="6.02893">
        <ele>2267.89</ele>
        <time>2012-08-11T09:55:30Z</time>
      </trkpt>
      <trkpt lat="44.99426" lon="6.02893">
        <ele>2265</ele>
        <time>2012-08-11T09:55:34Z</time>
      </trkpt>
      <trkpt lat="44.99426" lon="6.02893">
        <ele>2261.16</ele>
        <time>2012-08-11T09:55:37Z</time>
      </trkpt>
      <trkpt lat="44.99426" lon="6.02893">
        <ele>2264.52</ele>
        <time>2012-08-11T09:55:38Z</time>
      </trkpt>
      <trkpt lat="44.99426" lon="6.02893">
        <ele>2265.96</ele>
        <time>2012-08-11T09:55:41Z</time>
      </trkpt>
      <trkpt lat="44.99425" lon="6.02894">
        <ele>2266.93</ele>
        <time>2012-08-11T09:55:56Z</time>
      </trkpt>
      <trkpt lat="44.99426" lon="6.02895">
        <ele>2265.96</ele>
        <time>2012-08-11T09:56:19Z</time>
      </trkpt>
      <trkpt lat="44.99427" lon="6.02893">
        <ele>2265.96</ele>
        <time>2012-08-11T09:57:06Z</time>
      </trkpt>
      <trkpt lat="44.99427" lon="6.02889">
        <ele>2266.45</ele>
        <time>2012-08-11T09:57:25Z</time>
      </trkpt>
      <trkpt lat="44.99427" lon="6.02885">
        <ele>2265.96</ele>
        <time>2012-08-11T09:57:34Z</time>
      </trkpt>
      <trkpt lat="44.99426" lon="6.02872">
        <ele>2266.45</ele>
        <time>2012-08-11T09:57:48Z</time>
      </trkpt>
      <trkpt lat="44.99425" lon="6.02865">
        <ele>2269.33</ele>
        <time>2012-08-11T09:58:01Z</time>
      </trkpt>
      <trkpt lat="44.9942" lon="6.02865">
        <ele>2271.25</ele>
        <time>2012-08-11T09:58:14Z</time>
      </trkpt>
      <trkpt lat="44.99419" lon="6.02865">
        <ele>2272.69</ele>
        <time>2012-08-11T09:58:18Z</time>
      </trkpt>
      <trkpt lat="44.99412" lon="6.0286">
        <ele>2274.14</ele>
        <time>2012-08-11T09:58:29Z</time>
      </trkpt>
      <trkpt lat="44.9941" lon="6.02855">
        <ele>2274.62</ele>
        <time>2012-08-11T09:58:36Z</time>
      </trkpt>
      <trkpt lat="44.9941" lon="6.02843">
        <ele>2276.06</ele>
        <time>2012-08-11T09:58:49Z</time>
      </trkpt>
      <trkpt lat="44.99407" lon="6.02841">
        <ele>2278.46</ele>
        <time>2012-08-11T09:59:13Z</time>
      </trkpt>
      <trkpt lat="44.99403" lon="6.02835">
        <ele>2279.42</ele>
        <time>2012-08-11T09:59:25Z</time>
      </trkpt>
      <trkpt lat="44.99399" lon="6.02833">
        <ele>2282.31</ele>
        <time>2012-08-11T09:59:39Z</time>
      </trkpt>
      <trkpt lat="44.99395" lon="6.02834">
        <ele>2284.23</ele>
        <time>2012-08-11T09:59:52Z</time>
      </trkpt>
      <trkpt lat="44.99396" lon="6.02841">
        <ele>2286.63</ele>
        <time>2012-08-11T10:00:05Z</time>
      </trkpt>
      <trkpt lat="44.99393" lon="6.02846">
        <ele>2288.56</ele>
        <time>2012-08-11T10:00:17Z</time>
      </trkpt>
      <trkpt lat="44.99389" lon="6.02845">
        <ele>2291.44</ele>
        <time>2012-08-11T10:00:32Z</time>
      </trkpt>
      <trkpt lat="44.99385" lon="6.02845">
        <ele>2292.88</ele>
        <time>2012-08-11T10:00:44Z</time>
      </trkpt>
      <trkpt lat="44.99378" lon="6.02845">
        <ele>2294.8</ele>
        <time>2012-08-11T10:00:55Z</time>
      </trkpt>
      <trkpt lat="44.99373" lon="6.02846">
        <ele>2296.25</ele>
        <time>2012-08-11T10:01:05Z</time>
      </trkpt>
      <trkpt lat="44.9937" lon="6.02849">
        <ele>2298.17</ele>
        <time>2012-08-11T10:01:13Z</time>
      </trkpt>
      <trkpt lat="44.9936" lon="6.02853">
        <ele>2298.65</ele>
        <time>2012-08-11T10:01:27Z</time>
      </trkpt>
      <trkpt lat="44.99359" lon="6.02853">
        <ele>2298.17</ele>
        <time>2012-08-11T10:01:51Z</time>
      </trkpt>
      <trkpt lat="44.99358" lon="6.02852">
        <ele>2298.65</ele>
        <time>2012-08-11T10:02:32Z</time>
      </trkpt>
      <trkpt lat="44.99356" lon="6.02851">
        <ele>2298.65</ele>
        <time>2012-08-11T10:02:35Z</time>
      </trkpt>
      <trkpt lat="44.99345" lon="6.02849">
        <ele>2299.61</ele>
        <time>2012-08-11T10:02:47Z</time>
      </trkpt>
      <trkpt lat="44.99331" lon="6.02845">
        <ele>2298.17</ele>
        <time>2012-08-11T10:02:58Z</time>
      </trkpt>
      <trkpt lat="44.99323" lon="6.02844">
        <ele>2298.17</ele>
        <time>2012-08-11T10:03:05Z</time>
      </trkpt>
      <trkpt lat="44.99321" lon="6.02843">
        <ele>2298.65</ele>
        <time>2012-08-11T10:03:07Z</time>
      </trkpt>
      <trkpt lat="44.99304" lon="6.02842">
        <ele>2298.17</ele>
        <time>2012-08-11T10:03:22Z</time>
      </trkpt>
      <trkpt lat="44.99293" lon="6.02842">
        <ele>2299.13</ele>
        <time>2012-08-11T10:03:32Z</time>
      </trkpt>
      <trkpt lat="44.99288" lon="6.02846">
        <ele>2299.13</ele>
        <time>2012-08-11T10:03:38Z</time>
      </trkpt>
      <trkpt lat="44.99277" lon="6.02849">
        <ele>2299.61</ele>
        <time>2012-08-11T10:03:50Z</time>
      </trkpt>
      <trkpt lat="44.9927" lon="6.02853">
        <ele>2301.53</ele>
        <time>2012-08-11T10:04:02Z</time>
      </trkpt>
      <trkpt lat="44.99269" lon="6.02853">
        <ele>2301.53</ele>
        <time>2012-08-11T10:04:04Z</time>
      </trkpt>
      <trkpt lat="44.99259" lon="6.02853">
        <ele>2303.46</ele>
        <time>2012-08-11T10:04:16Z</time>
      </trkpt>
      <trkpt lat="44.99257" lon="6.02853">
        <ele>2302.98</ele>
        <time>2012-08-11T10:04:18Z</time>
      </trkpt>
      <trkpt lat="44.99243" lon="6.02851">
        <ele>2301.53</ele>
        <time>2012-08-11T10:04:31Z</time>
      </trkpt>
      <trkpt lat="44.99233" lon="6.0285">
        <ele>2303.46</ele>
        <time>2012-08-11T10:04:44Z</time>
      </trkpt>
      <trkpt lat="44.99224" lon="6.02849">
        <ele>2304.9</ele>
        <time>2012-08-11T10:04:56Z</time>
      </trkpt>
      <trkpt lat="44.99218" lon="6.0285">
        <ele>2306.82</ele>
        <time>2012-08-11T10:05:07Z</time>
      </trkpt>
      <trkpt lat="44.99216" lon="6.02851">
        <ele>2307.3</ele>
        <time>2012-08-11T10:05:28Z</time>
      </trkpt>
      <trkpt lat="44.99211" lon="6.02852">
        <ele>2307.78</ele>
        <time>2012-08-11T10:06:09Z</time>
      </trkpt>
      <trkpt lat="44.99205" lon="6.02854">
        <ele>2308.26</ele>
        <time>2012-08-11T10:06:22Z</time>
      </trkpt>
      <trkpt lat="44.992" lon="6.02854">
        <ele>2308.26</ele>
        <time>2012-08-11T10:06:35Z</time>
      </trkpt>
      <trkpt lat="44.99196" lon="6.02856">
        <ele>2309.7</ele>
        <time>2012-08-11T10:06:46Z</time>
      </trkpt>
      <trkpt lat="44.99191" lon="6.0286">
        <ele>2311.63</ele>
        <time>2012-08-11T10:06:58Z</time>
      </trkpt>
      <trkpt lat="44.99188" lon="6.0286">
        <ele>2310.67</ele>
        <time>2012-08-11T10:07:16Z</time>
      </trkpt>
      <trkpt lat="44.99188" lon="6.0286">
        <ele>2310.67</ele>
        <time>2012-08-11T10:09:13Z</time>
      </trkpt>
      <trkpt lat="44.99188" lon="6.02861">
        <ele>2311.15</ele>
        <time>2012-08-11T10:09:30Z</time>
      </trkpt>
      <trkpt lat="44.99188" lon="6.02861">
        <ele>2311.15</ele>
        <time>2012-08-11T10:10:06Z</time>
      </trkpt>
      <trkpt lat="44.99181" lon="6.02863">
        <ele>2309.7</ele>
        <time>2012-08-11T10:10:16Z</time>
      </trkpt>
      <trkpt lat="44.99174" lon="6.02864">
        <ele>2308.74</ele>
        <time>2012-08-11T10:10:27Z</time>
      </trkpt>
      <trkpt lat="44.99173" lon="6.02865">
        <ele>2308.74</ele>
        <time>2012-08-11T10:10:28Z</time>
      </trkpt>
      <trkpt lat="44.9917" lon="6.02869">
        <ele>2309.22</ele>
        <time>2012-08-11T10:10:36Z</time>
      </trkpt>
      <trkpt lat="44.99167" lon="6.02868">
        <ele>2309.22</ele>
        <time>2012-08-11T10:10:40Z</time>
      </trkpt>
      <trkpt lat="44.99162" lon="6.02864">
        <ele>2308.74</ele>
        <time>2012-08-11T10:10:51Z</time>
      </trkpt>
      <trkpt lat="44.99155" lon="6.02858">
        <ele>2309.7</ele>
        <time>2012-08-11T10:11:02Z</time>
      </trkpt>
      <trkpt lat="44.99148" lon="6.02853">
        <ele>2310.67</ele>
        <time>2012-08-11T10:11:12Z</time>
      </trkpt>
      <trkpt lat="44.99142" lon="6.02847">
        <ele>2312.59</ele>
        <time>2012-08-11T10:11:22Z</time>
      </trkpt>
      <trkpt lat="44.99136" lon="6.02842">
        <ele>2313.55</ele>
        <time>2012-08-11T10:11:30Z</time>
      </trkpt>
      <trkpt lat="44.99133" lon="6.02838">
        <ele>2314.03</ele>
        <time>2012-08-11T10:11:39Z</time>
      </trkpt>
      <trkpt lat="44.99126" lon="6.02833">
        <ele>2315.95</ele>
        <time>2012-08-11T10:11:50Z</time>
      </trkpt>
      <trkpt lat="44.99124" lon="6.02831">
        <ele>2317.88</ele>
        <time>2012-08-11T10:12:01Z</time>
      </trkpt>
      <trkpt lat="44.99119" lon="6.02831">
        <ele>2318.84</ele>
        <time>2012-08-11T10:12:11Z</time>
      </trkpt>
      <trkpt lat="44.9911" lon="6.02834">
        <ele>2321.24</ele>
        <time>2012-08-11T10:12:24Z</time>
      </trkpt>
      <trkpt lat="44.99104" lon="6.02835">
        <ele>2322.68</ele>
        <time>2012-08-11T10:12:37Z</time>
      </trkpt>
      <trkpt lat="44.99103" lon="6.02835">
        <ele>2323.64</ele>
        <time>2012-08-11T10:12:44Z</time>
      </trkpt>
      <trkpt lat="44.99101" lon="6.02841">
        <ele>2323.64</ele>
        <time>2012-08-11T10:12:50Z</time>
      </trkpt>
      <trkpt lat="44.99094" lon="6.02844">
        <ele>2326.05</ele>
        <time>2012-08-11T10:13:02Z</time>
      </trkpt>
      <trkpt lat="44.99089" lon="6.02845">
        <ele>2328.45</ele>
        <time>2012-08-11T10:13:13Z</time>
      </trkpt>
      <trkpt lat="44.99085" lon="6.02846">
        <ele>2328.93</ele>
        <time>2012-08-11T10:13:23Z</time>
      </trkpt>
      <trkpt lat="44.99081" lon="6.02846">
        <ele>2329.89</ele>
        <time>2012-08-11T10:13:27Z</time>
      </trkpt>
      <trkpt lat="44.99077" lon="6.02848">
        <ele>2332.78</ele>
        <time>2012-08-11T10:13:40Z</time>
      </trkpt>
      <trkpt lat="44.99071" lon="6.02848">
        <ele>2332.78</ele>
        <time>2012-08-11T10:13:49Z</time>
      </trkpt>
      <trkpt lat="44.99068" lon="6.02846">
        <ele>2333.26</ele>
        <time>2012-08-11T10:13:59Z</time>
      </trkpt>
      <trkpt lat="44.99065" lon="6.02845">
        <ele>2334.7</ele>
        <time>2012-08-11T10:14:14Z</time>
      </trkpt>
      <trkpt lat="44.99063" lon="6.02843">
        <ele>2334.7</ele>
        <time>2012-08-11T10:14:18Z</time>
      </trkpt>
      <trkpt lat="44.9906" lon="6.0284">
        <ele>2335.66</ele>
        <time>2012-08-11T10:14:26Z</time>
      </trkpt>
      <trkpt lat="44.99053" lon="6.0284">
        <ele>2337.1</ele>
        <time>2012-08-11T10:14:40Z</time>
      </trkpt>
      <trkpt lat="44.99047" lon="6.0284">
        <ele>2339.99</ele>
        <time>2012-08-11T10:14:52Z</time>
      </trkpt>
      <trkpt lat="44.9904" lon="6.02837">
        <ele>2340.95</ele>
        <time>2012-08-11T10:15:03Z</time>
      </trkpt>
      <trkpt lat="44.9904" lon="6.02837">
        <ele>2341.43</ele>
        <time>2012-08-11T10:15:06Z</time>
      </trkpt>
      <trkpt lat="44.99039" lon="6.0284">
        <ele>2341.91</ele>
        <time>2012-08-11T10:15:16Z</time>
      </trkpt>
      <trkpt lat="44.99038" lon="6.02841">
        <ele>2343.83</ele>
        <time>2012-08-11T10:15:23Z</time>
      </trkpt>
      <trkpt lat="44.99033" lon="6.02842">
        <ele>2344.79</ele>
        <time>2012-08-11T10:15:34Z</time>
      </trkpt>
      <trkpt lat="44.99029" lon="6.02843">
        <ele>2346.23</ele>
        <time>2012-08-11T10:15:44Z</time>
      </trkpt>
      <trkpt lat="44.99022" lon="6.02841">
        <ele>2347.68</ele>
        <time>2012-08-11T10:15:57Z</time>
      </trkpt>
      <trkpt lat="44.99016" lon="6.02839">
        <ele>2349.12</ele>
        <time>2012-08-11T10:16:10Z</time>
      </trkpt>
      <trkpt lat="44.99008" lon="6.02834">
        <ele>2350.08</ele>
        <time>2012-08-11T10:16:23Z</time>
      </trkpt>
      <trkpt lat="44.99003" lon="6.02829">
        <ele>2352.48</ele>
        <time>2012-08-11T10:16:34Z</time>
      </trkpt>
      <trkpt lat="44.98999" lon="6.02826">
        <ele>2352.96</ele>
        <time>2012-08-11T10:16:46Z</time>
      </trkpt>
      <trkpt lat="44.98994" lon="6.02822">
        <ele>2354.41</ele>
        <time>2012-08-11T10:16:56Z</time>
      </trkpt>
      <trkpt lat="44.98991" lon="6.02821">
        <ele>2354.89</ele>
        <time>2012-08-11T10:17:21Z</time>
      </trkpt>
      <trkpt lat="44.9899" lon="6.0282">
        <ele>2355.37</ele>
        <time>2012-08-11T10:17:27Z</time>
      </trkpt>
      <trkpt lat="44.98986" lon="6.02817">
        <ele>2356.81</ele>
        <time>2012-08-11T10:17:36Z</time>
      </trkpt>
      <trkpt lat="44.98983" lon="6.02813">
        <ele>2357.77</ele>
        <time>2012-08-11T10:17:46Z</time>
      </trkpt>
      <trkpt lat="44.98978" lon="6.0281">
        <ele>2359.21</ele>
        <time>2012-08-11T10:18:03Z</time>
      </trkpt>
      <trkpt lat="44.98975" lon="6.02808">
        <ele>2360.17</ele>
        <time>2012-08-11T10:18:11Z</time>
      </trkpt>
      <trkpt lat="44.98969" lon="6.02805">
        <ele>2362.1</ele>
        <time>2012-08-11T10:18:19Z</time>
      </trkpt>
      <trkpt lat="44.98965" lon="6.02805">
        <ele>2362.58</ele>
        <time>2012-08-11T10:18:27Z</time>
      </trkpt>
      <trkpt lat="44.98963" lon="6.02802">
        <ele>2363.54</ele>
        <time>2012-08-11T10:18:39Z</time>
      </trkpt>
      <trkpt lat="44.98958" lon="6.02798">
        <ele>2364.98</ele>
        <time>2012-08-11T10:18:51Z</time>
      </trkpt>
      <trkpt lat="44.98955" lon="6.02796">
        <ele>2366.9</ele>
        <time>2012-08-11T10:19:03Z</time>
      </trkpt>
      <trkpt lat="44.98947" lon="6.02787">
        <ele>2368.83</ele>
        <time>2012-08-11T10:19:28Z</time>
      </trkpt>
      <trkpt lat="44.98945" lon="6.02786">
        <ele>2370.27</ele>
        <time>2012-08-11T10:19:35Z</time>
      </trkpt>
      <trkpt lat="44.98946" lon="6.02786">
        <ele>2370.27</ele>
        <time>2012-08-11T10:19:38Z</time>
      </trkpt>
      <trkpt lat="44.98939" lon="6.02781">
        <ele>2371.71</ele>
        <time>2012-08-11T10:19:49Z</time>
      </trkpt>
      <trkpt lat="44.98933" lon="6.02776">
        <ele>2373.15</ele>
        <time>2012-08-11T10:20:01Z</time>
      </trkpt>
      <trkpt lat="44.98933" lon="6.02776">
        <ele>2374.59</ele>
        <time>2012-08-11T10:20:14Z</time>
      </trkpt>
      <trkpt lat="44.98933" lon="6.02776">
        <ele>2374.59</ele>
        <time>2012-08-11T10:20:20Z</time>
      </trkpt>
      <trkpt lat="44.98931" lon="6.02776">
        <ele>2374.59</ele>
        <time>2012-08-11T10:20:35Z</time>
      </trkpt>
      <trkpt lat="44.98926" lon="6.02776">
        <ele>2376.52</ele>
        <time>2012-08-11T10:20:58Z</time>
      </trkpt>
      <trkpt lat="44.98924" lon="6.02776">
        <ele>2377</ele>
        <time>2012-08-11T10:21:03Z</time>
      </trkpt>
      <trkpt lat="44.9892" lon="6.02771">
        <ele>2377.48</ele>
        <time>2012-08-11T10:21:14Z</time>
      </trkpt>
      <trkpt lat="44.98918" lon="6.02765">
        <ele>2378.92</ele>
        <time>2012-08-11T10:21:19Z</time>
      </trkpt>
      <trkpt lat="44.98912" lon="6.02768">
        <ele>2380.36</ele>
        <time>2012-08-11T10:21:31Z</time>
      </trkpt>
      <trkpt lat="44.98909" lon="6.02768">
        <ele>2382.28</ele>
        <time>2012-08-11T10:21:44Z</time>
      </trkpt>
      <trkpt lat="44.98903" lon="6.02763">
        <ele>2384.21</ele>
        <time>2012-08-11T10:21:58Z</time>
      </trkpt>
      <trkpt lat="44.98901" lon="6.02763">
        <ele>2384.69</ele>
        <time>2012-08-11T10:22:06Z</time>
      </trkpt>
      <trkpt lat="44.98899" lon="6.02761">
        <ele>2384.69</ele>
        <time>2012-08-11T10:22:08Z</time>
      </trkpt>
      <trkpt lat="44.98892" lon="6.02755">
        <ele>2386.13</ele>
        <time>2012-08-11T10:22:19Z</time>
      </trkpt>
      <trkpt lat="44.98887" lon="6.02756">
        <ele>2387.57</ele>
        <time>2012-08-11T10:22:28Z</time>
      </trkpt>
      <trkpt lat="44.98881" lon="6.0276">
        <ele>2388.53</ele>
        <time>2012-08-11T10:22:39Z</time>
      </trkpt>
      <trkpt lat="44.9888" lon="6.0276">
        <ele>2388.05</ele>
        <time>2012-08-11T10:22:41Z</time>
      </trkpt>
      <trkpt lat="44.98872" lon="6.02766">
        <ele>2389.01</ele>
        <time>2012-08-11T10:22:54Z</time>
      </trkpt>
      <trkpt lat="44.98865" lon="6.02762">
        <ele>2391.9</ele>
        <time>2012-08-11T10:23:07Z</time>
      </trkpt>
      <trkpt lat="44.98863" lon="6.02759">
        <ele>2393.82</ele>
        <time>2012-08-11T10:23:15Z</time>
      </trkpt>
      <trkpt lat="44.98863" lon="6.02758">
        <ele>2393.82</ele>
        <time>2012-08-11T10:23:18Z</time>
      </trkpt>
      <trkpt lat="44.98856" lon="6.02757">
        <ele>2395.26</ele>
        <time>2012-08-11T10:23:32Z</time>
      </trkpt>
      <trkpt lat="44.98849" lon="6.02758">
        <ele>2397.18</ele>
        <time>2012-08-11T10:23:46Z</time>
      </trkpt>
      <trkpt lat="44.98843" lon="6.02756">
        <ele>2400.07</ele>
        <time>2012-08-11T10:24:02Z</time>
      </trkpt>
      <trkpt lat="44.98839" lon="6.02752">
        <ele>2401.03</ele>
        <time>2012-08-11T10:24:11Z</time>
      </trkpt>
      <trkpt lat="44.98834" lon="6.02743">
        <ele>2403.43</ele>
        <time>2012-08-11T10:24:23Z</time>
      </trkpt>
      <trkpt lat="44.98832" lon="6.02732">
        <ele>2404.39</ele>
        <time>2012-08-11T10:24:35Z</time>
      </trkpt>
      <trkpt lat="44.98828" lon="6.02728">
        <ele>2405.84</ele>
        <time>2012-08-11T10:24:47Z</time>
      </trkpt>
      <trkpt lat="44.98828" lon="6.02728">
        <ele>2405.84</ele>
        <time>2012-08-11T10:24:51Z</time>
      </trkpt>
      <trkpt lat="44.98826" lon="6.02716">
        <ele>2407.28</ele>
        <time>2012-08-11T10:25:02Z</time>
      </trkpt>
      <trkpt lat="44.98827" lon="6.02711">
        <ele>2409.68</ele>
        <time>2012-08-11T10:25:15Z</time>
      </trkpt>
      <trkpt lat="44.98826" lon="6.02707">
        <ele>2409.68</ele>
        <time>2012-08-11T10:25:32Z</time>
      </trkpt>
      <trkpt lat="44.98826" lon="6.02698">
        <ele>2412.09</ele>
        <time>2012-08-11T10:25:47Z</time>
      </trkpt>
      <trkpt lat="44.98826" lon="6.02693">
        <ele>2413.53</ele>
        <time>2012-08-11T10:26:00Z</time>
      </trkpt>
      <trkpt lat="44.98828" lon="6.02689">
        <ele>2415.45</ele>
        <time>2012-08-11T10:26:12Z</time>
      </trkpt>
      <trkpt lat="44.98834" lon="6.02685">
        <ele>2416.41</ele>
        <time>2012-08-11T10:26:24Z</time>
      </trkpt>
      <trkpt lat="44.98835" lon="6.02683">
        <ele>2417.37</ele>
        <time>2012-08-11T10:26:36Z</time>
      </trkpt>
      <trkpt lat="44.98835" lon="6.02681">
        <ele>2418.81</ele>
        <time>2012-08-11T10:26:39Z</time>
      </trkpt>
      <trkpt lat="44.98834" lon="6.02678">
        <ele>2419.78</ele>
        <time>2012-08-11T10:26:43Z</time>
      </trkpt>
      <trkpt lat="44.98831" lon="6.02672">
        <ele>2421.7</ele>
        <time>2012-08-11T10:26:56Z</time>
      </trkpt>
      <trkpt lat="44.98831" lon="6.02668">
        <ele>2423.62</ele>
        <time>2012-08-11T10:27:16Z</time>
      </trkpt>
      <trkpt lat="44.98832" lon="6.02666">
        <ele>2424.58</ele>
        <time>2012-08-11T10:27:36Z</time>
      </trkpt>
      <trkpt lat="44.98832" lon="6.02659">
        <ele>2426.99</ele>
        <time>2012-08-11T10:27:50Z</time>
      </trkpt>
      <trkpt lat="44.98828" lon="6.02654">
        <ele>2428.43</ele>
        <time>2012-08-11T10:28:06Z</time>
      </trkpt>
      <trkpt lat="44.9883" lon="6.02649">
        <ele>2430.35</ele>
        <time>2012-08-11T10:28:15Z</time>
      </trkpt>
      <trkpt lat="44.98829" lon="6.02643">
        <ele>2432.75</ele>
        <time>2012-08-11T10:28:25Z</time>
      </trkpt>
      <trkpt lat="44.98829" lon="6.02641">
        <ele>2433.23</ele>
        <time>2012-08-11T10:28:41Z</time>
      </trkpt>
      <trkpt lat="44.98828" lon="6.02635">
        <ele>2434.2</ele>
        <time>2012-08-11T10:28:51Z</time>
      </trkpt>
      <trkpt lat="44.98832" lon="6.02626">
        <ele>2436.6</ele>
        <time>2012-08-11T10:29:08Z</time>
      </trkpt>
      <trkpt lat="44.98832" lon="6.02619">
        <ele>2438.04</ele>
        <time>2012-08-11T10:29:22Z</time>
      </trkpt>
      <trkpt lat="44.98836" lon="6.02611">
        <ele>2440.92</ele>
        <time>2012-08-11T10:29:38Z</time>
      </trkpt>
      <trkpt lat="44.98835" lon="6.02607">
        <ele>2443.33</ele>
        <time>2012-08-11T10:29:48Z</time>
      </trkpt>
      <trkpt lat="44.98835" lon="6.026">
        <ele>2444.29</ele>
        <time>2012-08-11T10:30:03Z</time>
      </trkpt>
      <trkpt lat="44.98834" lon="6.02591">
        <ele>2445.25</ele>
        <time>2012-08-11T10:30:16Z</time>
      </trkpt>
      <trkpt lat="44.98833" lon="6.02586">
        <ele>2447.17</ele>
        <time>2012-08-11T10:30:29Z</time>
      </trkpt>
      <trkpt lat="44.98833" lon="6.02577">
        <ele>2449.58</ele>
        <time>2012-08-11T10:30:42Z</time>
      </trkpt>
      <trkpt lat="44.98834" lon="6.02571">
        <ele>2451.5</ele>
        <time>2012-08-11T10:30:53Z</time>
      </trkpt>
      <trkpt lat="44.98834" lon="6.02566">
        <ele>2453.42</ele>
        <time>2012-08-11T10:31:04Z</time>
      </trkpt>
      <trkpt lat="44.98835" lon="6.0256">
        <ele>2455.82</ele>
        <time>2012-08-11T10:31:15Z</time>
      </trkpt>
      <trkpt lat="44.98836" lon="6.02558">
        <ele>2456.31</ele>
        <time>2012-08-11T10:31:31Z</time>
      </trkpt>
      <trkpt lat="44.98836" lon="6.02556">
        <ele>2456.31</ele>
        <time>2012-08-11T10:31:42Z</time>
      </trkpt>
      <trkpt lat="44.98836" lon="6.02556">
        <ele>2456.31</ele>
        <time>2012-08-11T10:32:00Z</time>
      </trkpt>
      <trkpt lat="44.98835" lon="6.02556">
        <ele>2457.27</ele>
        <time>2012-08-11T10:32:24Z</time>
      </trkpt>
      <trkpt lat="44.98836" lon="6.02555">
        <ele>2457.75</ele>
        <time>2012-08-11T10:33:09Z</time>
      </trkpt>
      <trkpt lat="44.98835" lon="6.02555">
        <ele>2457.75</ele>
        <time>2012-08-11T10:34:07Z</time>
      </trkpt>
      <trkpt lat="44.98836" lon="6.02555">
        <ele>2458.23</ele>
        <time>2012-08-11T10:34:51Z</time>
      </trkpt>
      <trkpt lat="44.98835" lon="6.02554">
        <ele>2457.75</ele>
        <time>2012-08-11T10:35:38Z</time>
      </trkpt>
      <trkpt lat="44.98836" lon="6.02554">
        <ele>2458.71</ele>
        <time>2012-08-11T10:36:03Z</time>
      </trkpt>
      <trkpt lat="44.98839" lon="6.0255">
        <ele>2459.67</ele>
        <time>2012-08-11T10:36:14Z</time>
      </trkpt>
      <trkpt lat="44.9884" lon="6.02544">
        <ele>2461.59</ele>
        <time>2012-08-11T10:36:26Z</time>
      </trkpt>
      <trkpt lat="44.98841" lon="6.02541">
        <ele>2464</ele>
        <time>2012-08-11T10:36:40Z</time>
      </trkpt>
      <trkpt lat="44.98843" lon="6.02538">
        <ele>2464.96</ele>
        <time>2012-08-11T10:36:52Z</time>
      </trkpt>
      <trkpt lat="44.98845" lon="6.02538">
        <ele>2465.44</ele>
        <time>2012-08-11T10:36:57Z</time>
      </trkpt>
      <trkpt lat="44.98851" lon="6.02538">
        <ele>2468.32</ele>
        <time>2012-08-11T10:37:12Z</time>
      </trkpt>
      <trkpt lat="44.98852" lon="6.02529">
        <ele>2470.24</ele>
        <time>2012-08-11T10:37:26Z</time>
      </trkpt>
      <trkpt lat="44.98852" lon="6.02525">
        <ele>2471.69</ele>
        <time>2012-08-11T10:37:33Z</time>
      </trkpt>
      <trkpt lat="44.98851" lon="6.02523">
        <ele>2472.65</ele>
        <time>2012-08-11T10:37:38Z</time>
      </trkpt>
      <trkpt lat="44.9885" lon="6.02514">
        <ele>2474.09</ele>
        <time>2012-08-11T10:37:50Z</time>
      </trkpt>
      <trkpt lat="44.98853" lon="6.02511">
        <ele>2475.53</ele>
        <time>2012-08-11T10:38:00Z</time>
      </trkpt>
      <trkpt lat="44.98854" lon="6.02509">
        <ele>2478.42</ele>
        <time>2012-08-11T10:38:14Z</time>
      </trkpt>
      <trkpt lat="44.98855" lon="6.02507">
        <ele>2479.86</ele>
        <time>2012-08-11T10:38:29Z</time>
      </trkpt>
      <trkpt lat="44.98857" lon="6.02503">
        <ele>2481.78</ele>
        <time>2012-08-11T10:38:50Z</time>
      </trkpt>
      <trkpt lat="44.98858" lon="6.02502">
        <ele>2481.3</ele>
        <time>2012-08-11T10:38:51Z</time>
      </trkpt>
      <trkpt lat="44.98858" lon="6.02501">
        <ele>2481.78</ele>
        <time>2012-08-11T10:38:56Z</time>
      </trkpt>
      <trkpt lat="44.98865" lon="6.02496">
        <ele>2484.66</ele>
        <time>2012-08-11T10:39:07Z</time>
      </trkpt>
      <trkpt lat="44.98867" lon="6.02489">
        <ele>2487.07</ele>
        <time>2012-08-11T10:39:19Z</time>
      </trkpt>
      <trkpt lat="44.98868" lon="6.02486">
        <ele>2487.55</ele>
        <time>2012-08-11T10:39:27Z</time>
      </trkpt>
      <trkpt lat="44.98874" lon="6.02476">
        <ele>2489.95</ele>
        <time>2012-08-11T10:39:40Z</time>
      </trkpt>
      <trkpt lat="44.98875" lon="6.02474">
        <ele>2491.39</ele>
        <time>2012-08-11T10:39:52Z</time>
      </trkpt>
      <trkpt lat="44.98878" lon="6.0247">
        <ele>2494.28</ele>
        <time>2012-08-11T10:40:06Z</time>
      </trkpt>
      <trkpt lat="44.98881" lon="6.02464">
        <ele>2496.2</ele>
        <time>2012-08-11T10:40:18Z</time>
      </trkpt>
      <trkpt lat="44.98882" lon="6.02462">
        <ele>2497.64</ele>
        <time>2012-08-11T10:40:23Z</time>
      </trkpt>
      <trkpt lat="44.98884" lon="6.02455">
        <ele>2499.08</ele>
        <time>2012-08-11T10:40:35Z</time>
      </trkpt>
      <trkpt lat="44.98884" lon="6.02449">
        <ele>2501.01</ele>
        <time>2012-08-11T10:40:53Z</time>
      </trkpt>
      <trkpt lat="44.98885" lon="6.02443">
        <ele>2502.45</ele>
        <time>2012-08-11T10:41:04Z</time>
      </trkpt>
      <trkpt lat="44.98886" lon="6.02441">
        <ele>2504.37</ele>
        <time>2012-08-11T10:41:16Z</time>
      </trkpt>
      <trkpt lat="44.98886" lon="6.02432">
        <ele>2506.29</ele>
        <time>2012-08-11T10:41:26Z</time>
      </trkpt>
      <trkpt lat="44.98885" lon="6.02423">
        <ele>2506.77</ele>
        <time>2012-08-11T10:41:41Z</time>
      </trkpt>
      <trkpt lat="44.98884" lon="6.02415">
        <ele>2507.26</ele>
        <time>2012-08-11T10:41:54Z</time>
      </trkpt>
      <trkpt lat="44.98885" lon="6.02409">
        <ele>2507.74</ele>
        <time>2012-08-11T10:42:05Z</time>
      </trkpt>
      <trkpt lat="44.98885" lon="6.02409">
        <ele>2508.22</ele>
        <time>2012-08-11T10:42:44Z</time>
      </trkpt>
      <trkpt lat="44.98885" lon="6.02409">
        <ele>2509.18</ele>
        <time>2012-08-11T10:43:04Z</time>
      </trkpt>
      <trkpt lat="44.98884" lon="6.02406">
        <ele>2508.7</ele>
        <time>2012-08-11T10:43:27Z</time>
      </trkpt>
      <trkpt lat="44.98885" lon="6.02397">
        <ele>2509.18</ele>
        <time>2012-08-11T10:43:41Z</time>
      </trkpt>
      <trkpt lat="44.98881" lon="6.02385">
        <ele>2509.18</ele>
        <time>2012-08-11T10:43:54Z</time>
      </trkpt>
      <trkpt lat="44.98881" lon="6.02368">
        <ele>2509.18</ele>
        <time>2012-08-11T10:44:09Z</time>
      </trkpt>
      <trkpt lat="44.98881" lon="6.02358">
        <ele>2508.7</ele>
        <time>2012-08-11T10:44:24Z</time>
      </trkpt>
      <trkpt lat="44.98881" lon="6.02356">
        <ele>2509.66</ele>
        <time>2012-08-11T10:44:26Z</time>
      </trkpt>
      <trkpt lat="44.9888" lon="6.02352">
        <ele>2509.66</ele>
        <time>2012-08-11T10:44:31Z</time>
      </trkpt>
      <trkpt lat="44.98874" lon="6.02342">
        <ele>2509.66</ele>
        <time>2012-08-11T10:45:21Z</time>
      </trkpt>
      <trkpt lat="44.98873" lon="6.02329">
        <ele>2510.14</ele>
        <time>2012-08-11T10:45:46Z</time>
      </trkpt>
      <trkpt lat="44.98869" lon="6.02333">
        <ele>2511.1</ele>
        <time>2012-08-11T10:45:59Z</time>
      </trkpt>
      <trkpt lat="44.9887" lon="6.02333">
        <ele>2510.62</ele>
        <time>2012-08-11T10:46:25Z</time>
      </trkpt>
      <trkpt lat="44.9887" lon="6.02332">
        <ele>2510.62</ele>
        <time>2012-08-11T10:46:26Z</time>
      </trkpt>
      <trkpt lat="44.98871" lon="6.02333">
        <ele>2509.66</ele>
        <time>2012-08-11T10:46:36Z</time>
      </trkpt>
      <trkpt lat="44.98871" lon="6.02335">
        <ele>2509.66</ele>
        <time>2012-08-11T10:46:50Z</time>
      </trkpt>
      <trkpt lat="44.98871" lon="6.02335">
        <ele>2509.66</ele>
        <time>2012-08-11T10:47:06Z</time>
      </trkpt>
      <trkpt lat="44.98871" lon="6.02335">
        <ele>2512.06</ele>
        <time>2012-08-11T10:47:21Z</time>
      </trkpt>
      <trkpt lat="44.98871" lon="6.02335">
        <ele>2510.14</ele>
        <time>2012-08-11T10:47:23Z</time>
      </trkpt>
      <trkpt lat="44.98871" lon="6.02336">
        <ele>2513.5</ele>
        <time>2012-08-11T10:59:06Z</time>
      </trkpt>
      <trkpt lat="44.98871" lon="6.02334">
        <ele>2513.98</ele>
        <time>2012-08-11T11:05:11Z</time>
      </trkpt>
      <trkpt lat="44.98871" lon="6.02333">
        <ele>2513.5</ele>
        <time>2012-08-11T11:05:39Z</time>
      </trkpt>
      <trkpt lat="44.98871" lon="6.02333">
        <ele>2513.5</ele>
        <time>2012-08-11T11:05:44Z</time>
      </trkpt>
      <trkpt lat="44.98871" lon="6.02334">
        <ele>2513.5</ele>
        <time>2012-08-11T11:05:54Z</time>
      </trkpt>
      <trkpt lat="44.98872" lon="6.02334">
        <ele>2513.98</ele>
        <time>2012-08-11T11:06:58Z</time>
      </trkpt>
      <trkpt lat="44.98871" lon="6.02332">
        <ele>2514.47</ele>
        <time>2012-08-11T11:07:28Z</time>
      </trkpt>
      <trkpt lat="44.98871" lon="6.02332">
        <ele>2514.95</ele>
        <time>2012-08-11T11:07:46Z</time>
      </trkpt>
      <trkpt lat="44.98871" lon="6.02327">
        <ele>2515.43</ele>
        <time>2012-08-11T11:08:01Z</time>
      </trkpt>
      <trkpt lat="44.98871" lon="6.02328">
        <ele>2514.95</ele>
        <time>2012-08-11T11:08:14Z</time>
      </trkpt>
      <trkpt lat="44.98871" lon="6.02328">
        <ele>2514.95</ele>
        <time>2012-08-11T11:08:32Z</time>
      </trkpt>
      <trkpt lat="44.9887" lon="6.02324">
        <ele>2515.43</ele>
        <time>2012-08-11T11:08:42Z</time>
      </trkpt>
      <trkpt lat="44.98867" lon="6.02311">
        <ele>2516.39</ele>
        <time>2012-08-11T11:08:55Z</time>
      </trkpt>
      <trkpt lat="44.98865" lon="6.02307">
        <ele>2515.91</ele>
        <time>2012-08-11T11:08:58Z</time>
      </trkpt>
      <trkpt lat="44.98863" lon="6.02299">
        <ele>2516.39</ele>
        <time>2012-08-11T11:09:05Z</time>
      </trkpt>
      <trkpt lat="44.98857" lon="6.02287">
        <ele>2517.83</ele>
        <time>2012-08-11T11:09:18Z</time>
      </trkpt>
      <trkpt lat="44.98854" lon="6.02277">
        <ele>2518.31</ele>
        <time>2012-08-11T11:09:29Z</time>
      </trkpt>
      <trkpt lat="44.98853" lon="6.02272">
        <ele>2519.27</ele>
        <time>2012-08-11T11:09:35Z</time>
      </trkpt>
      <trkpt lat="44.98851" lon="6.02261">
        <ele>2521.19</ele>
        <time>2012-08-11T11:09:47Z</time>
      </trkpt>
      <trkpt lat="44.9885" lon="6.02248">
        <ele>2522.64</ele>
        <time>2012-08-11T11:09:59Z</time>
      </trkpt>
      <trkpt lat="44.98847" lon="6.02235">
        <ele>2523.6</ele>
        <time>2012-08-11T11:10:11Z</time>
      </trkpt>
      <trkpt lat="44.98844" lon="6.0223">
        <ele>2524.56</ele>
        <time>2012-08-11T11:10:17Z</time>
      </trkpt>
      <trkpt lat="44.98838" lon="6.02223">
        <ele>2526.48</ele>
        <time>2012-08-11T11:10:29Z</time>
      </trkpt>
      <trkpt lat="44.98833" lon="6.02217">
        <ele>2527.92</ele>
        <time>2012-08-11T11:10:42Z</time>
      </trkpt>
      <trkpt lat="44.98828" lon="6.0221">
        <ele>2530.81</ele>
        <time>2012-08-11T11:10:55Z</time>
      </trkpt>
      <trkpt lat="44.98825" lon="6.02203">
        <ele>2532.73</ele>
        <time>2012-08-11T11:11:08Z</time>
      </trkpt>
      <trkpt lat="44.9882" lon="6.02194">
        <ele>2534.65</ele>
        <time>2012-08-11T11:11:21Z</time>
      </trkpt>
      <trkpt lat="44.98819" lon="6.02192">
        <ele>2535.13</ele>
        <time>2012-08-11T11:11:36Z</time>
      </trkpt>
      <trkpt lat="44.98818" lon="6.02191">
        <ele>2536.58</ele>
        <time>2012-08-11T11:11:45Z</time>
      </trkpt>
      <trkpt lat="44.98813" lon="6.02184">
        <ele>2538.98</ele>
        <time>2012-08-11T11:11:56Z</time>
      </trkpt>
      <trkpt lat="44.98812" lon="6.02179">
        <ele>2539.46</ele>
        <time>2012-08-11T11:12:02Z</time>
      </trkpt>
      <trkpt lat="44.9881" lon="6.02175">
        <ele>2540.9</ele>
        <time>2012-08-11T11:12:13Z</time>
      </trkpt>
      <trkpt lat="44.98806" lon="6.02171">
        <ele>2543.31</ele>
        <time>2012-08-11T11:12:26Z</time>
      </trkpt>
      <trkpt lat="44.98801" lon="6.02166">
        <ele>2545.23</ele>
        <time>2012-08-11T11:12:39Z</time>
      </trkpt>
      <trkpt lat="44.988" lon="6.02164">
        <ele>2546.19</ele>
        <time>2012-08-11T11:12:50Z</time>
      </trkpt>
      <trkpt lat="44.98799" lon="6.02162">
        <ele>2548.11</ele>
        <time>2012-08-11T11:13:06Z</time>
      </trkpt>
      <trkpt lat="44.98792" lon="6.02159">
        <ele>2550.03</ele>
        <time>2012-08-11T11:13:18Z</time>
      </trkpt>
      <trkpt lat="44.98791" lon="6.02159">
        <ele>2551.48</ele>
        <time>2012-08-11T11:13:22Z</time>
      </trkpt>
      <trkpt lat="44.98789" lon="6.02157">
        <ele>2552.92</ele>
        <time>2012-08-11T11:13:33Z</time>
      </trkpt>
      <trkpt lat="44.98783" lon="6.02152">
        <ele>2554.84</ele>
        <time>2012-08-11T11:13:44Z</time>
      </trkpt>
      <trkpt lat="44.98781" lon="6.02148">
        <ele>2556.28</ele>
        <time>2012-08-11T11:13:57Z</time>
      </trkpt>
      <trkpt lat="44.98777" lon="6.02145">
        <ele>2557.24</ele>
        <time>2012-08-11T11:14:07Z</time>
      </trkpt>
      <trkpt lat="44.98774" lon="6.0214">
        <ele>2560.13</ele>
        <time>2012-08-11T11:14:20Z</time>
      </trkpt>
      <trkpt lat="44.98773" lon="6.02139">
        <ele>2562.05</ele>
        <time>2012-08-11T11:14:31Z</time>
      </trkpt>
      <trkpt lat="44.98769" lon="6.02135">
        <ele>2563.49</ele>
        <time>2012-08-11T11:14:43Z</time>
      </trkpt>
      <trkpt lat="44.98765" lon="6.02133">
        <ele>2563.97</ele>
        <time>2012-08-11T11:14:54Z</time>
      </trkpt>
      <trkpt lat="44.98763" lon="6.02132">
        <ele>2565.9</ele>
        <time>2012-08-11T11:15:05Z</time>
      </trkpt>
      <trkpt lat="44.98757" lon="6.02131">
        <ele>2567.34</ele>
        <time>2012-08-11T11:15:17Z</time>
      </trkpt>
      <trkpt lat="44.98751" lon="6.02132">
        <ele>2569.74</ele>
        <time>2012-08-11T11:15:31Z</time>
      </trkpt>
      <trkpt lat="44.98749" lon="6.02133">
        <ele>2570.22</ele>
        <time>2012-08-11T11:15:37Z</time>
      </trkpt>
      <trkpt lat="44.98743" lon="6.02134">
        <ele>2572.63</ele>
        <time>2012-08-11T11:15:51Z</time>
      </trkpt>
      <trkpt lat="44.98737" lon="6.02129">
        <ele>2574.55</ele>
        <time>2012-08-11T11:16:05Z</time>
      </trkpt>
      <trkpt lat="44.98734" lon="6.02127">
        <ele>2575.99</ele>
        <time>2012-08-11T11:16:13Z</time>
      </trkpt>
      <trkpt lat="44.98727" lon="6.02125">
        <ele>2577.91</ele>
        <time>2012-08-11T11:16:25Z</time>
      </trkpt>
      <trkpt lat="44.98723" lon="6.02124">
        <ele>2580.8</ele>
        <time>2012-08-11T11:16:40Z</time>
      </trkpt>
      <trkpt lat="44.98721" lon="6.02124">
        <ele>2582.24</ele>
        <time>2012-08-11T11:16:50Z</time>
      </trkpt>
      <trkpt lat="44.98714" lon="6.02117">
        <ele>2584.64</ele>
        <time>2012-08-11T11:17:03Z</time>
      </trkpt>
      <trkpt lat="44.9871" lon="6.02111">
        <ele>2586.56</ele>
        <time>2012-08-11T11:17:15Z</time>
      </trkpt>
      <trkpt lat="44.98706" lon="6.02107">
        <ele>2588.97</ele>
        <time>2012-08-11T11:17:28Z</time>
      </trkpt>
      <trkpt lat="44.98699" lon="6.02104">
        <ele>2591.37</ele>
        <time>2012-08-11T11:17:41Z</time>
      </trkpt>
      <trkpt lat="44.98696" lon="6.02102">
        <ele>2593.29</ele>
        <time>2012-08-11T11:18:00Z</time>
      </trkpt>
      <trkpt lat="44.98696" lon="6.02101">
        <ele>2593.29</ele>
        <time>2012-08-11T11:18:25Z</time>
      </trkpt>
      <trkpt lat="44.98692" lon="6.02099">
        <ele>2595.22</ele>
        <time>2012-08-11T11:19:12Z</time>
      </trkpt>
      <trkpt lat="44.98686" lon="6.02091">
        <ele>2598.1</ele>
        <time>2012-08-11T11:19:27Z</time>
      </trkpt>
      <trkpt lat="44.98681" lon="6.02086">
        <ele>2600.98</ele>
        <time>2012-08-11T11:19:40Z</time>
      </trkpt>
      <trkpt lat="44.98676" lon="6.02081">
        <ele>2602.43</ele>
        <time>2012-08-11T11:19:53Z</time>
      </trkpt>
      <trkpt lat="44.98673" lon="6.0208">
        <ele>2605.31</ele>
        <time>2012-08-11T11:20:06Z</time>
      </trkpt>
      <trkpt lat="44.98669" lon="6.02078">
        <ele>2607.23</ele>
        <time>2012-08-11T11:20:18Z</time>
      </trkpt>
      <trkpt lat="44.98664" lon="6.02075">
        <ele>2609.64</ele>
        <time>2012-08-11T11:20:29Z</time>
      </trkpt>
      <trkpt lat="44.9866" lon="6.02074">
        <ele>2611.08</ele>
        <time>2012-08-11T11:20:40Z</time>
      </trkpt>
      <trkpt lat="44.98659" lon="6.02074">
        <ele>2611.56</ele>
        <time>2012-08-11T11:21:59Z</time>
      </trkpt>
      <trkpt lat="44.98656" lon="6.02074">
        <ele>2613.48</ele>
        <time>2012-08-11T11:22:10Z</time>
      </trkpt>
      <trkpt lat="44.98655" lon="6.02073">
        <ele>2614.44</ele>
        <time>2012-08-11T11:22:14Z</time>
      </trkpt>
      <trkpt lat="44.9865" lon="6.02073">
        <ele>2616.37</ele>
        <time>2012-08-11T11:22:27Z</time>
      </trkpt>
      <trkpt lat="44.98648" lon="6.02075">
        <ele>2618.29</ele>
        <time>2012-08-11T11:22:41Z</time>
      </trkpt>
      <trkpt lat="44.98645" lon="6.02077">
        <ele>2619.73</ele>
        <time>2012-08-11T11:22:51Z</time>
      </trkpt>
      <trkpt lat="44.98643" lon="6.02077">
        <ele>2621.65</ele>
        <time>2012-08-11T11:23:03Z</time>
      </trkpt>
      <trkpt lat="44.98638" lon="6.02074">
        <ele>2622.61</ele>
        <time>2012-08-11T11:23:20Z</time>
      </trkpt>
      <trkpt lat="44.98633" lon="6.02076">
        <ele>2624.54</ele>
        <time>2012-08-11T11:23:32Z</time>
      </trkpt>
      <trkpt lat="44.98627" lon="6.0207">
        <ele>2627.42</ele>
        <time>2012-08-11T11:23:46Z</time>
      </trkpt>
      <trkpt lat="44.98625" lon="6.02068">
        <ele>2629.34</ele>
        <time>2012-08-11T11:23:58Z</time>
      </trkpt>
      <trkpt lat="44.98621" lon="6.02067">
        <ele>2631.75</ele>
        <time>2012-08-11T11:24:11Z</time>
      </trkpt>
      <trkpt lat="44.98619" lon="6.02067">
        <ele>2632.71</ele>
        <time>2012-08-11T11:24:27Z</time>
      </trkpt>
      <trkpt lat="44.98613" lon="6.02072">
        <ele>2634.15</ele>
        <time>2012-08-11T11:24:40Z</time>
      </trkpt>
      <trkpt lat="44.98609" lon="6.02076">
        <ele>2635.59</ele>
        <time>2012-08-11T11:24:53Z</time>
      </trkpt>
      <trkpt lat="44.98605" lon="6.02079">
        <ele>2636.07</ele>
        <time>2012-08-11T11:25:05Z</time>
      </trkpt>
      <trkpt lat="44.98604" lon="6.02085">
        <ele>2637.51</ele>
        <time>2012-08-11T11:25:17Z</time>
      </trkpt>
      <trkpt lat="44.986" lon="6.0209">
        <ele>2639.44</ele>
        <time>2012-08-11T11:25:29Z</time>
      </trkpt>
      <trkpt lat="44.98598" lon="6.02091">
        <ele>2639.92</ele>
        <time>2012-08-11T11:25:42Z</time>
      </trkpt>
      <trkpt lat="44.98598" lon="6.02095">
        <ele>2640.4</ele>
        <time>2012-08-11T11:25:53Z</time>
      </trkpt>
      <trkpt lat="44.98596" lon="6.02096">
        <ele>2642.8</ele>
        <time>2012-08-11T11:26:03Z</time>
      </trkpt>
      <trkpt lat="44.98595" lon="6.02096">
        <ele>2644.24</ele>
        <time>2012-08-11T11:26:15Z</time>
      </trkpt>
      <trkpt lat="44.98592" lon="6.02099">
        <ele>2645.69</ele>
        <time>2012-08-11T11:26:26Z</time>
      </trkpt>
      <trkpt lat="44.9859" lon="6.02102">
        <ele>2647.61</ele>
        <time>2012-08-11T11:26:38Z</time>
      </trkpt>
      <trkpt lat="44.9859" lon="6.02102">
        <ele>2647.61</ele>
        <time>2012-08-11T11:26:42Z</time>
      </trkpt>
      <trkpt lat="44.98588" lon="6.02103">
        <ele>2649.05</ele>
        <time>2012-08-11T11:26:56Z</time>
      </trkpt>
      <trkpt lat="44.98586" lon="6.02107">
        <ele>2650.01</ele>
        <time>2012-08-11T11:27:09Z</time>
      </trkpt>
      <trkpt lat="44.98584" lon="6.02115">
        <ele>2650.97</ele>
        <time>2012-08-11T11:27:20Z</time>
      </trkpt>
      <trkpt lat="44.98582" lon="6.02121">
        <ele>2652.42</ele>
        <time>2012-08-11T11:27:32Z</time>
      </trkpt>
      <trkpt lat="44.98579" lon="6.02127">
        <ele>2654.82</ele>
        <time>2012-08-11T11:27:46Z</time>
      </trkpt>
      <trkpt lat="44.98577" lon="6.02135">
        <ele>2656.26</ele>
        <time>2012-08-11T11:27:59Z</time>
      </trkpt>
      <trkpt lat="44.98577" lon="6.02138">
        <ele>2657.7</ele>
        <time>2012-08-11T11:28:25Z</time>
      </trkpt>
      <trkpt lat="44.98576" lon="6.02139">
        <ele>2658.18</ele>
        <time>2012-08-11T11:28:29Z</time>
      </trkpt>
      <trkpt lat="44.98574" lon="6.02143">
        <ele>2659.14</ele>
        <time>2012-08-11T11:28:41Z</time>
      </trkpt>
      <trkpt lat="44.98571" lon="6.02146">
        <ele>2661.07</ele>
        <time>2012-08-11T11:28:54Z</time>
      </trkpt>
      <trkpt lat="44.9857" lon="6.02145">
        <ele>2662.51</ele>
        <time>2012-08-11T11:28:59Z</time>
      </trkpt>
      <trkpt lat="44.98568" lon="6.02145">
        <ele>2662.51</ele>
        <time>2012-08-11T11:29:01Z</time>
      </trkpt>
      <trkpt lat="44.98561" lon="6.02147">
        <ele>2664.43</ele>
        <time>2012-08-11T11:29:14Z</time>
      </trkpt>
      <trkpt lat="44.98555" lon="6.02156">
        <ele>2666.35</ele>
        <time>2012-08-11T11:29:27Z</time>
      </trkpt>
      <trkpt lat="44.98552" lon="6.0216">
        <ele>2667.8</ele>
        <time>2012-08-11T11:29:38Z</time>
      </trkpt>
      <trkpt lat="44.98551" lon="6.02163">
        <ele>2668.76</ele>
        <time>2012-08-11T11:29:52Z</time>
      </trkpt>
      <trkpt lat="44.98545" lon="6.0217">
        <ele>2670.2</ele>
        <time>2012-08-11T11:30:04Z</time>
      </trkpt>
      <trkpt lat="44.9854" lon="6.02175">
        <ele>2672.12</ele>
        <time>2012-08-11T11:30:15Z</time>
      </trkpt>
      <trkpt lat="44.98536" lon="6.02171">
        <ele>2673.08</ele>
        <time>2012-08-11T11:30:26Z</time>
      </trkpt>
      <trkpt lat="44.9853" lon="6.02173">
        <ele>2675.01</ele>
        <time>2012-08-11T11:30:38Z</time>
      </trkpt>
      <trkpt lat="44.98524" lon="6.02178">
        <ele>2676.45</ele>
        <time>2012-08-11T11:30:51Z</time>
      </trkpt>
      <trkpt lat="44.98521" lon="6.02183">
        <ele>2678.37</ele>
        <time>2012-08-11T11:31:03Z</time>
      </trkpt>
      <trkpt lat="44.98513" lon="6.02187">
        <ele>2679.81</ele>
        <time>2012-08-11T11:31:16Z</time>
      </trkpt>
      <trkpt lat="44.98506" lon="6.02188">
        <ele>2681.73</ele>
        <time>2012-08-11T11:31:28Z</time>
      </trkpt>
      <trkpt lat="44.98503" lon="6.02195">
        <ele>2683.18</ele>
        <time>2012-08-11T11:31:43Z</time>
      </trkpt>
      <trkpt lat="44.98501" lon="6.02196">
        <ele>2684.62</ele>
        <time>2012-08-11T11:32:05Z</time>
      </trkpt>
      <trkpt lat="44.985" lon="6.02197">
        <ele>2684.62</ele>
        <time>2012-08-11T11:32:06Z</time>
      </trkpt>
      <trkpt lat="44.98494" lon="6.02197">
        <ele>2686.54</ele>
        <time>2012-08-11T11:32:20Z</time>
      </trkpt>
      <trkpt lat="44.9849" lon="6.02206">
        <ele>2689.43</ele>
        <time>2012-08-11T11:32:35Z</time>
      </trkpt>
      <trkpt lat="44.98483" lon="6.0221">
        <ele>2692.31</ele>
        <time>2012-08-11T11:32:49Z</time>
      </trkpt>
      <trkpt lat="44.98478" lon="6.02214">
        <ele>2694.71</ele>
        <time>2012-08-11T11:33:04Z</time>
      </trkpt>
      <trkpt lat="44.98476" lon="6.02215">
        <ele>2696.64</ele>
        <time>2012-08-11T11:33:29Z</time>
      </trkpt>
      <trkpt lat="44.98468" lon="6.02214">
        <ele>2698.56</ele>
        <time>2012-08-11T11:33:47Z</time>
      </trkpt>
      <trkpt lat="44.98466" lon="6.02224">
        <ele>2701.44</ele>
        <time>2012-08-11T11:34:01Z</time>
      </trkpt>
      <trkpt lat="44.98459" lon="6.02222">
        <ele>2703.85</ele>
        <time>2012-08-11T11:34:14Z</time>
      </trkpt>
      <trkpt lat="44.98456" lon="6.02221">
        <ele>2706.25</ele>
        <time>2012-08-11T11:34:30Z</time>
      </trkpt>
      <trkpt lat="44.9845" lon="6.02222">
        <ele>2709.13</ele>
        <time>2012-08-11T11:34:46Z</time>
      </trkpt>
      <trkpt lat="44.98446" lon="6.02225">
        <ele>2711.54</ele>
        <time>2012-08-11T11:34:59Z</time>
      </trkpt>
      <trkpt lat="44.9844" lon="6.02227">
        <ele>2714.42</ele>
        <time>2012-08-11T11:35:13Z</time>
      </trkpt>
      <trkpt lat="44.98437" lon="6.02235">
        <ele>2716.34</ele>
        <time>2012-08-11T11:35:26Z</time>
      </trkpt>
      <trkpt lat="44.9843" lon="6.02233">
        <ele>2719.23</ele>
        <time>2012-08-11T11:35:42Z</time>
      </trkpt>
      <trkpt lat="44.98427" lon="6.02236">
        <ele>2721.15</ele>
        <time>2012-08-11T11:35:55Z</time>
      </trkpt>
      <trkpt lat="44.98425" lon="6.02242">
        <ele>2722.11</ele>
        <time>2012-08-11T11:36:09Z</time>
      </trkpt>
      <trkpt lat="44.98423" lon="6.02251">
        <ele>2725.48</ele>
        <time>2012-08-11T11:36:23Z</time>
      </trkpt>
      <trkpt lat="44.98418" lon="6.0225">
        <ele>2727.88</ele>
        <time>2012-08-11T11:36:39Z</time>
      </trkpt>
      <trkpt lat="44.9841" lon="6.02245">
        <ele>2730.28</ele>
        <time>2012-08-11T11:36:54Z</time>
      </trkpt>
      <trkpt lat="44.98408" lon="6.0225">
        <ele>2733.17</ele>
        <time>2012-08-11T11:37:10Z</time>
      </trkpt>
      <trkpt lat="44.98405" lon="6.02258">
        <ele>2736.05</ele>
        <time>2012-08-11T11:37:24Z</time>
      </trkpt>
      <trkpt lat="44.98403" lon="6.02267">
        <ele>2738.93</ele>
        <time>2012-08-11T11:37:37Z</time>
      </trkpt>
      <trkpt lat="44.98396" lon="6.02265">
        <ele>2740.38</ele>
        <time>2012-08-11T11:37:49Z</time>
      </trkpt>
      <trkpt lat="44.98392" lon="6.02264">
        <ele>2743.26</ele>
        <time>2012-08-11T11:37:59Z</time>
      </trkpt>
      <trkpt lat="44.98387" lon="6.02261">
        <ele>2746.14</ele>
        <time>2012-08-11T11:38:13Z</time>
      </trkpt>
      <trkpt lat="44.98386" lon="6.02259">
        <ele>2749.03</ele>
        <time>2012-08-11T11:38:28Z</time>
      </trkpt>
      <trkpt lat="44.9838" lon="6.02261">
        <ele>2751.43</ele>
        <time>2012-08-11T11:38:41Z</time>
      </trkpt>
      <trkpt lat="44.98376" lon="6.02262">
        <ele>2752.87</ele>
        <time>2012-08-11T11:38:53Z</time>
      </trkpt>
      <trkpt lat="44.98371" lon="6.02256">
        <ele>2755.76</ele>
        <time>2012-08-11T11:39:07Z</time>
      </trkpt>
      <trkpt lat="44.9837" lon="6.02256">
        <ele>2754.8</ele>
        <time>2012-08-11T11:39:30Z</time>
      </trkpt>
      <trkpt lat="44.9837" lon="6.02256">
        <ele>2754.31</ele>
        <time>2012-08-11T11:40:11Z</time>
      </trkpt>
      <trkpt lat="44.9837" lon="6.02257">
        <ele>2748.07</ele>
        <time>2012-08-11T11:41:17Z</time>
      </trkpt>
      <trkpt lat="44.9837" lon="6.02257">
        <ele>2751.43</ele>
        <time>2012-08-11T11:41:18Z</time>
      </trkpt>
      <trkpt lat="44.9837" lon="6.02257">
        <ele>2756.24</ele>
        <time>2012-08-11T11:41:19Z</time>
      </trkpt>
      <trkpt lat="44.9837" lon="6.02257">
        <ele>2755.28</ele>
        <time>2012-08-11T11:41:20Z</time>
      </trkpt>
      <trkpt lat="44.98369" lon="6.02257">
        <ele>2755.76</ele>
        <time>2012-08-11T11:42:07Z</time>
      </trkpt>
      <trkpt lat="44.9837" lon="6.02257">
        <ele>2755.28</ele>
        <time>2012-08-11T11:42:34Z</time>
      </trkpt>
      <trkpt lat="44.98369" lon="6.02257">
        <ele>2755.76</ele>
        <time>2012-08-11T11:44:04Z</time>
      </trkpt>
      <trkpt lat="44.98369" lon="6.02257">
        <ele>2755.76</ele>
        <time>2012-08-11T11:44:59Z</time>
      </trkpt>
      <trkpt lat="44.98369" lon="6.02257">
        <ele>2759.12</ele>
        <time>2012-08-11T11:45:24Z</time>
      </trkpt>
      <trkpt lat="44.98369" lon="6.02257">
        <ele>2755.28</ele>
        <time>2012-08-11T11:45:26Z</time>
      </trkpt>
      <trkpt lat="44.98369" lon="6.02257">
        <ele>2754.31</ele>
        <time>2012-08-11T11:45:28Z</time>
      </trkpt>
      <trkpt lat="44.98369" lon="6.02257">
        <ele>2758.64</ele>
        <time>2012-08-11T11:45:31Z</time>
      </trkpt>
      <trkpt lat="44.9837" lon="6.02256">
        <ele>2756.24</ele>
        <time>2012-08-11T11:45:34Z</time>
      </trkpt>
      <trkpt lat="44.9837" lon="6.02256">
        <ele>2756.24</ele>
        <time>2012-08-11T11:46:08Z</time>
      </trkpt>
      <trkpt lat="44.9837" lon="6.02256">
        <ele>2756.24</ele>
        <time>2012-08-11T11:47:09Z</time>
      </trkpt>
      <trkpt lat="44.98369" lon="6.02255">
        <ele>2756.72</ele>
        <time>2012-08-11T11:47:21Z</time>
      </trkpt>
      <trkpt lat="44.98368" lon="6.02261">
        <ele>2757.68</ele>
        <time>2012-08-11T11:47:31Z</time>
      </trkpt>
      <trkpt lat="44.98364" lon="6.02271">
        <ele>2759.6</ele>
        <time>2012-08-11T11:47:46Z</time>
      </trkpt>
      <trkpt lat="44.98358" lon="6.02277">
        <ele>2761.52</ele>
        <time>2012-08-11T11:47:58Z</time>
      </trkpt>
      <trkpt lat="44.98358" lon="6.02284">
        <ele>2763.93</ele>
        <time>2012-08-11T11:48:10Z</time>
      </trkpt>
      <trkpt lat="44.98358" lon="6.02288">
        <ele>2765.85</ele>
        <time>2012-08-11T11:48:21Z</time>
      </trkpt>
      <trkpt lat="44.98357" lon="6.02297">
        <ele>2768.73</ele>
        <time>2012-08-11T11:48:42Z</time>
      </trkpt>
      <trkpt lat="44.98357" lon="6.02304">
        <ele>2770.66</ele>
        <time>2012-08-11T11:48:55Z</time>
      </trkpt>
      <trkpt lat="44.98355" lon="6.02307">
        <ele>2772.58</ele>
        <time>2012-08-11T11:49:11Z</time>
      </trkpt>
      <trkpt lat="44.98349" lon="6.02311">
        <ele>2774.98</ele>
        <time>2012-08-11T11:49:26Z</time>
      </trkpt>
      <trkpt lat="44.98346" lon="6.02315">
        <ele>2776.42</ele>
        <time>2012-08-11T11:49:40Z</time>
      </trkpt>
      <trkpt lat="44.98345" lon="6.02317">
        <ele>2778.83</ele>
        <time>2012-08-11T11:49:49Z</time>
      </trkpt>
      <trkpt lat="44.98342" lon="6.0232">
        <ele>2780.27</ele>
        <time>2012-08-11T11:50:01Z</time>
      </trkpt>
      <trkpt lat="44.98342" lon="6.02327">
        <ele>2781.71</ele>
        <time>2012-08-11T11:50:12Z</time>
      </trkpt>
      <trkpt lat="44.98343" lon="6.02334">
        <ele>2784.12</ele>
        <time>2012-08-11T11:50:27Z</time>
      </trkpt>
      <trkpt lat="44.98345" lon="6.0234">
        <ele>2785.56</ele>
        <time>2012-08-11T11:50:39Z</time>
      </trkpt>
      <trkpt lat="44.98341" lon="6.02348">
        <ele>2787.48</ele>
        <time>2012-08-11T11:50:51Z</time>
      </trkpt>
      <trkpt lat="44.98336" lon="6.02347">
        <ele>2788.44</ele>
        <time>2012-08-11T11:51:05Z</time>
      </trkpt>
      <trkpt lat="44.98336" lon="6.02348">
        <ele>2790.36</ele>
        <time>2012-08-11T11:51:19Z</time>
      </trkpt>
      <trkpt lat="44.98335" lon="6.02353">
        <ele>2791.81</ele>
        <time>2012-08-11T11:51:28Z</time>
      </trkpt>
      <trkpt lat="44.98339" lon="6.02358">
        <ele>2792.77</ele>
        <time>2012-08-11T11:51:40Z</time>
      </trkpt>
      <trkpt lat="44.98339" lon="6.02364">
        <ele>2794.69</ele>
        <time>2012-08-11T11:51:53Z</time>
      </trkpt>
      <trkpt lat="44.98338" lon="6.02367">
        <ele>2795.65</ele>
        <time>2012-08-11T11:52:13Z</time>
      </trkpt>
      <trkpt lat="44.98334" lon="6.02372">
        <ele>2797.09</ele>
        <time>2012-08-11T11:52:26Z</time>
      </trkpt>
      <trkpt lat="44.98332" lon="6.0238">
        <ele>2799.5</ele>
        <time>2012-08-11T11:52:42Z</time>
      </trkpt>
      <trkpt lat="44.98334" lon="6.02385">
        <ele>2800.94</ele>
        <time>2012-08-11T11:52:52Z</time>
      </trkpt>
      <trkpt lat="44.98337" lon="6.02392">
        <ele>2802.86</ele>
        <time>2012-08-11T11:53:04Z</time>
      </trkpt>
      <trkpt lat="44.98338" lon="6.02397">
        <ele>2804.78</ele>
        <time>2012-08-11T11:53:19Z</time>
      </trkpt>
      <trkpt lat="44.98337" lon="6.02405">
        <ele>2806.71</ele>
        <time>2012-08-11T11:53:31Z</time>
      </trkpt>
      <trkpt lat="44.98336" lon="6.02406">
        <ele>2807.19</ele>
        <time>2012-08-11T11:53:55Z</time>
      </trkpt>
      <trkpt lat="44.98334" lon="6.02409">
        <ele>2808.15</ele>
        <time>2012-08-11T11:54:11Z</time>
      </trkpt>
      <trkpt lat="44.98335" lon="6.0241">
        <ele>2809.11</ele>
        <time>2012-08-11T11:54:13Z</time>
      </trkpt>
      <trkpt lat="44.98333" lon="6.02416">
        <ele>2811.51</ele>
        <time>2012-08-11T11:54:25Z</time>
      </trkpt>
      <trkpt lat="44.98332" lon="6.02418">
        <ele>2811.99</ele>
        <time>2012-08-11T11:54:39Z</time>
      </trkpt>
      <trkpt lat="44.9833" lon="6.0242">
        <ele>2814.4</ele>
        <time>2012-08-11T11:54:56Z</time>
      </trkpt>
      <trkpt lat="44.9833" lon="6.02423">
        <ele>2814.88</ele>
        <time>2012-08-11T11:55:12Z</time>
      </trkpt>
      <trkpt lat="44.98331" lon="6.02427">
        <ele>2816.32</ele>
        <time>2012-08-11T11:55:24Z</time>
      </trkpt>
      <trkpt lat="44.98331" lon="6.02429">
        <ele>2816.32</ele>
        <time>2012-08-11T11:55:26Z</time>
      </trkpt>
      <trkpt lat="44.98327" lon="6.02432">
        <ele>2818.24</ele>
        <time>2012-08-11T11:55:37Z</time>
      </trkpt>
      <trkpt lat="44.98327" lon="6.02434">
        <ele>2818.72</ele>
        <time>2012-08-11T11:55:51Z</time>
      </trkpt>
      <trkpt lat="44.98323" lon="6.02434">
        <ele>2821.13</ele>
        <time>2012-08-11T11:56:03Z</time>
      </trkpt>
      <trkpt lat="44.98323" lon="6.02439">
        <ele>2822.09</ele>
        <time>2012-08-11T11:56:36Z</time>
      </trkpt>
      <trkpt lat="44.98321" lon="6.02441">
        <ele>2824.01</ele>
        <time>2012-08-11T11:56:47Z</time>
      </trkpt>
      <trkpt lat="44.98322" lon="6.02444">
        <ele>2824.49</ele>
        <time>2012-08-11T11:57:04Z</time>
      </trkpt>
      <trkpt lat="44.98321" lon="6.02448">
        <ele>2825.93</ele>
        <time>2012-08-11T11:57:16Z</time>
      </trkpt>
      <trkpt lat="44.98321" lon="6.02453">
        <ele>2826.41</ele>
        <time>2012-08-11T11:57:28Z</time>
      </trkpt>
      <trkpt lat="44.98322" lon="6.02455">
        <ele>2826.41</ele>
        <time>2012-08-11T11:57:42Z</time>
      </trkpt>
      <trkpt lat="44.98322" lon="6.02455">
        <ele>2826.89</ele>
        <time>2012-08-11T11:58:08Z</time>
      </trkpt>
      <trkpt lat="44.9832" lon="6.02456">
        <ele>2826.89</ele>
        <time>2012-08-11T11:58:42Z</time>
      </trkpt>
      <trkpt lat="44.9832" lon="6.02456">
        <ele>2826.89</ele>
        <time>2012-08-11T11:58:57Z</time>
      </trkpt>
      <trkpt lat="44.98317" lon="6.02456">
        <ele>2826.89</ele>
        <time>2012-08-11T11:59:11Z</time>
      </trkpt>
      <trkpt lat="44.98317" lon="6.02455">
        <ele>2826.89</ele>
        <time>2012-08-11T11:59:56Z</time>
      </trkpt>
      <trkpt lat="44.98319" lon="6.02454">
        <ele>2825.45</ele>
        <time>2012-08-11T12:00:09Z</time>
      </trkpt>
      <trkpt lat="44.98317" lon="6.02454">
        <ele>2825.45</ele>
        <time>2012-08-11T12:00:31Z</time>
      </trkpt>
      <trkpt lat="44.98317" lon="6.02453">
        <ele>2825.93</ele>
        <time>2012-08-11T12:02:23Z</time>
      </trkpt>
      <trkpt lat="44.98316" lon="6.02453">
        <ele>2818.24</ele>
        <time>2012-08-11T12:02:37Z</time>
      </trkpt>
      <trkpt lat="44.98316" lon="6.02453">
        <ele>2822.09</ele>
        <time>2012-08-11T12:02:38Z</time>
      </trkpt>
      <trkpt lat="44.98316" lon="6.02453">
        <ele>2825.45</ele>
        <time>2012-08-11T12:02:39Z</time>
      </trkpt>
      <trkpt lat="44.98316" lon="6.02453">
        <ele>2824.01</ele>
        <time>2012-08-11T12:02:40Z</time>
      </trkpt>
      <trkpt lat="44.98316" lon="6.02453">
        <ele>2825.93</ele>
        <time>2012-08-11T12:02:44Z</time>
      </trkpt>
      <trkpt lat="44.98315" lon="6.02453">
        <ele>2825.45</ele>
        <time>2012-08-11T12:03:05Z</time>
      </trkpt>
      <trkpt lat="44.98316" lon="6.02454">
        <ele>2825.93</ele>
        <time>2012-08-11T12:05:50Z</time>
      </trkpt>
      <trkpt lat="44.98316" lon="6.02455">
        <ele>2825.93</ele>
        <time>2012-08-11T12:06:42Z</time>
      </trkpt>
      <trkpt lat="44.98316" lon="6.02455">
        <ele>2827.85</ele>
        <time>2012-08-11T12:07:13Z</time>
      </trkpt>
      <trkpt lat="44.98316" lon="6.02455">
        <ele>2826.89</ele>
        <time>2012-08-11T12:07:15Z</time>
      </trkpt>
      <trkpt lat="44.98317" lon="6.02455">
        <ele>2829.78</ele>
        <time>2012-08-11T12:07:57Z</time>
      </trkpt>
      <trkpt lat="44.98317" lon="6.02455">
        <ele>2829.3</ele>
        <time>2012-08-11T12:07:58Z</time>
      </trkpt>
      <trkpt lat="44.98317" lon="6.02455">
        <ele>2825.93</ele>
        <time>2012-08-11T12:08:01Z</time>
      </trkpt>
      <trkpt lat="44.98317" lon="6.02455">
        <ele>2828.34</ele>
        <time>2012-08-11T12:08:04Z</time>
      </trkpt>
      <trkpt lat="44.98316" lon="6.02455">
        <ele>2826.89</ele>
        <time>2012-08-11T12:08:08Z</time>
      </trkpt>
      <trkpt lat="44.98318" lon="6.02456">
        <ele>2826.89</ele>
        <time>2012-08-11T12:08:26Z</time>
      </trkpt>
      <trkpt lat="44.9832" lon="6.02457">
        <ele>2826.89</ele>
        <time>2012-08-11T12:08:38Z</time>
      </trkpt>
      <trkpt lat="44.98319" lon="6.02455">
        <ele>2826.41</ele>
        <time>2012-08-11T12:08:53Z</time>
      </trkpt>
      <trkpt lat="44.98322" lon="6.0245">
        <ele>2825.45</ele>
        <time>2012-08-11T12:09:08Z</time>
      </trkpt>
      <trkpt lat="44.98323" lon="6.02448">
        <ele>2825.93</ele>
        <time>2012-08-11T12:09:20Z</time>
      </trkpt>
      <trkpt lat="44.98323" lon="6.02446">
        <ele>2825.45</ele>
        <time>2012-08-11T12:09:26Z</time>
      </trkpt>
      <trkpt lat="44.98322" lon="6.02443">
        <ele>2824.49</ele>
        <time>2012-08-11T12:09:37Z</time>
      </trkpt>
      <trkpt lat="44.98321" lon="6.02441">
        <ele>2823.53</ele>
        <time>2012-08-11T12:09:52Z</time>
      </trkpt>
      <trkpt lat="44.98324" lon="6.0244">
        <ele>2822.09</ele>
        <time>2012-08-11T12:10:04Z</time>
      </trkpt>
      <trkpt lat="44.98325" lon="6.02439">
        <ele>2821.13</ele>
        <time>2012-08-11T12:10:19Z</time>
      </trkpt>
      <trkpt lat="44.98325" lon="6.02439">
        <ele>2822.09</ele>
        <time>2012-08-11T12:10:20Z</time>
      </trkpt>
      <trkpt lat="44.98325" lon="6.02438">
        <ele>2820.65</ele>
        <time>2012-08-11T12:10:31Z</time>
      </trkpt>
      <trkpt lat="44.98328" lon="6.02432">
        <ele>2819.68</ele>
        <time>2012-08-11T12:10:41Z</time>
      </trkpt>
      <trkpt lat="44.98329" lon="6.02428">
        <ele>2818.24</ele>
        <time>2012-08-11T12:10:52Z</time>
      </trkpt>
      <trkpt lat="44.98331" lon="6.02428">
        <ele>2816.8</ele>
        <time>2012-08-11T12:11:06Z</time>
      </trkpt>
      <trkpt lat="44.98332" lon="6.02427">
        <ele>2816.8</ele>
        <time>2012-08-11T12:11:10Z</time>
      </trkpt>
      <trkpt lat="44.9833" lon="6.02422">
        <ele>2815.84</ele>
        <time>2012-08-11T12:11:21Z</time>
      </trkpt>
      <trkpt lat="44.98331" lon="6.02421">
        <ele>2813.92</ele>
        <time>2012-08-11T12:11:32Z</time>
      </trkpt>
      <trkpt lat="44.9833" lon="6.02417">
        <ele>2811.99</ele>
        <time>2012-08-11T12:11:46Z</time>
      </trkpt>
      <trkpt lat="44.98332" lon="6.02414">
        <ele>2810.55</ele>
        <time>2012-08-11T12:11:59Z</time>
      </trkpt>
      <trkpt lat="44.98336" lon="6.02409">
        <ele>2809.59</ele>
        <time>2012-08-11T12:12:10Z</time>
      </trkpt>
      <trkpt lat="44.98339" lon="6.02407">
        <ele>2808.63</ele>
        <time>2012-08-11T12:12:20Z</time>
      </trkpt>
      <trkpt lat="44.9834" lon="6.02401">
        <ele>2806.71</ele>
        <time>2012-08-11T12:12:26Z</time>
      </trkpt>
      <trkpt lat="44.9834" lon="6.02399">
        <ele>2806.23</ele>
        <time>2012-08-11T12:12:28Z</time>
      </trkpt>
      <trkpt lat="44.98341" lon="6.0239">
        <ele>2803.34</ele>
        <time>2012-08-11T12:12:41Z</time>
      </trkpt>
      <trkpt lat="44.98341" lon="6.0239">
        <ele>2803.82</ele>
        <time>2012-08-11T12:12:42Z</time>
      </trkpt>
      <trkpt lat="44.98338" lon="6.02387">
        <ele>2801.9</ele>
        <time>2012-08-11T12:12:47Z</time>
      </trkpt>
      <trkpt lat="44.98337" lon="6.02384">
        <ele>2801.42</ele>
        <time>2012-08-11T12:12:50Z</time>
      </trkpt>
      <trkpt lat="44.98337" lon="6.02377">
        <ele>2798.54</ele>
        <time>2012-08-11T12:13:00Z</time>
      </trkpt>
      <trkpt lat="44.98337" lon="6.02374">
        <ele>2797.57</ele>
        <time>2012-08-11T12:13:06Z</time>
      </trkpt>
      <trkpt lat="44.98336" lon="6.02368">
        <ele>2795.65</ele>
        <time>2012-08-11T12:13:16Z</time>
      </trkpt>
      <trkpt lat="44.98336" lon="6.02364">
        <ele>2795.17</ele>
        <time>2012-08-11T12:13:20Z</time>
      </trkpt>
      <trkpt lat="44.9834" lon="6.02358">
        <ele>2793.73</ele>
        <time>2012-08-11T12:13:29Z</time>
      </trkpt>
      <trkpt lat="44.98338" lon="6.02353">
        <ele>2791.81</ele>
        <time>2012-08-11T12:13:39Z</time>
      </trkpt>
      <trkpt lat="44.98339" lon="6.0235">
        <ele>2789.4</ele>
        <time>2012-08-11T12:13:48Z</time>
      </trkpt>
      <trkpt lat="44.98341" lon="6.02352">
        <ele>2788.92</ele>
        <time>2012-08-11T12:13:52Z</time>
      </trkpt>
      <trkpt lat="44.98344" lon="6.02351">
        <ele>2788.44</ele>
        <time>2012-08-11T12:13:57Z</time>
      </trkpt>
      <trkpt lat="44.98345" lon="6.02347">
        <ele>2788.44</ele>
        <time>2012-08-11T12:14:09Z</time>
      </trkpt>
      <trkpt lat="44.98345" lon="6.02347">
        <ele>2788.92</ele>
        <time>2012-08-11T12:14:38Z</time>
      </trkpt>
      <trkpt lat="44.98343" lon="6.02343">
        <ele>2788.44</ele>
        <time>2012-08-11T12:15:04Z</time>
      </trkpt>
      <trkpt lat="44.98342" lon="6.02342">
        <ele>2788.44</ele>
        <time>2012-08-11T12:15:34Z</time>
      </trkpt>
      <trkpt lat="44.98342" lon="6.02339">
        <ele>2787</ele>
        <time>2012-08-11T12:15:39Z</time>
      </trkpt>
      <trkpt lat="44.9834" lon="6.0233">
        <ele>2784.12</ele>
        <time>2012-08-11T12:15:49Z</time>
      </trkpt>
      <trkpt lat="44.98341" lon="6.02326">
        <ele>2784.12</ele>
        <time>2012-08-11T12:15:54Z</time>
      </trkpt>
      <trkpt lat="44.98342" lon="6.02326">
        <ele>2782.67</ele>
        <time>2012-08-11T12:15:56Z</time>
      </trkpt>
      <trkpt lat="44.98344" lon="6.02325">
        <ele>2781.71</ele>
        <time>2012-08-11T12:15:59Z</time>
      </trkpt>
      <trkpt lat="44.98349" lon="6.02317">
        <ele>2779.31</ele>
        <time>2012-08-11T12:16:08Z</time>
      </trkpt>
      <trkpt lat="44.98347" lon="6.02315">
        <ele>2778.83</ele>
        <time>2012-08-11T12:16:10Z</time>
      </trkpt>
      <trkpt lat="44.98349" lon="6.02313">
        <ele>2778.83</ele>
        <time>2012-08-11T12:16:12Z</time>
      </trkpt>
      <trkpt lat="44.98352" lon="6.02313">
        <ele>2777.87</ele>
        <time>2012-08-11T12:16:15Z</time>
      </trkpt>
      <trkpt lat="44.98355" lon="6.02312">
        <ele>2776.42</ele>
        <time>2012-08-11T12:16:18Z</time>
      </trkpt>
      <trkpt lat="44.98357" lon="6.02311">
        <ele>2776.42</ele>
        <time>2012-08-11T12:16:20Z</time>
      </trkpt>
      <trkpt lat="44.98358" lon="6.02307">
        <ele>2774.98</ele>
        <time>2012-08-11T12:16:23Z</time>
      </trkpt>
      <trkpt lat="44.98357" lon="6.02304">
        <ele>2774.98</ele>
        <time>2012-08-11T12:16:25Z</time>
      </trkpt>
      <trkpt lat="44.98357" lon="6.023">
        <ele>2772.58</ele>
        <time>2012-08-11T12:16:28Z</time>
      </trkpt>
      <trkpt lat="44.9836" lon="6.02296">
        <ele>2772.58</ele>
        <time>2012-08-11T12:16:34Z</time>
      </trkpt>
      <trkpt lat="44.98361" lon="6.02295">
        <ele>2771.62</ele>
        <time>2012-08-11T12:16:36Z</time>
      </trkpt>
      <trkpt lat="44.98356" lon="6.02285">
        <ele>2768.73</ele>
        <time>2012-08-11T12:16:44Z</time>
      </trkpt>
      <trkpt lat="44.98356" lon="6.02282">
        <ele>2767.29</ele>
        <time>2012-08-11T12:16:47Z</time>
      </trkpt>
      <trkpt lat="44.98356" lon="6.02279">
        <ele>2766.81</ele>
        <time>2012-08-11T12:16:50Z</time>
      </trkpt>
      <trkpt lat="44.9836" lon="6.02275">
        <ele>2765.37</ele>
        <time>2012-08-11T12:16:54Z</time>
      </trkpt>
      <trkpt lat="44.98364" lon="6.02271">
        <ele>2764.41</ele>
        <time>2012-08-11T12:16:59Z</time>
      </trkpt>
      <trkpt lat="44.98364" lon="6.02265">
        <ele>2762.97</ele>
        <time>2012-08-11T12:17:03Z</time>
      </trkpt>
      <trkpt lat="44.98368" lon="6.02261">
        <ele>2761.52</ele>
        <time>2012-08-11T12:17:20Z</time>
      </trkpt>
      <trkpt lat="44.98375" lon="6.02263">
        <ele>2758.64</ele>
        <time>2012-08-11T12:17:31Z</time>
      </trkpt>
      <trkpt lat="44.98376" lon="6.02262">
        <ele>2757.68</ele>
        <time>2012-08-11T12:17:33Z</time>
      </trkpt>
      <trkpt lat="44.98377" lon="6.02256">
        <ele>2755.76</ele>
        <time>2012-08-11T12:17:47Z</time>
      </trkpt>
      <trkpt lat="44.98383" lon="6.02259">
        <ele>2753.83</ele>
        <time>2012-08-11T12:18:03Z</time>
      </trkpt>
      <trkpt lat="44.98386" lon="6.02261">
        <ele>2751.91</ele>
        <time>2012-08-11T12:18:11Z</time>
      </trkpt>
      <trkpt lat="44.98392" lon="6.02263">
        <ele>2749.51</ele>
        <time>2012-08-11T12:18:16Z</time>
      </trkpt>
      <trkpt lat="44.98398" lon="6.02266">
        <ele>2745.66</ele>
        <time>2012-08-11T12:18:25Z</time>
      </trkpt>
      <trkpt lat="44.98403" lon="6.02268">
        <ele>2744.7</ele>
        <time>2012-08-11T12:18:36Z</time>
      </trkpt>
      <trkpt lat="44.98404" lon="6.02264">
        <ele>2743.26</ele>
        <time>2012-08-11T12:18:53Z</time>
      </trkpt>
      <trkpt lat="44.98405" lon="6.02258">
        <ele>2741.82</ele>
        <time>2012-08-11T12:19:05Z</time>
      </trkpt>
      <trkpt lat="44.98405" lon="6.02258">
        <ele>2741.82</ele>
        <time>2012-08-11T12:19:24Z</time>
      </trkpt>
      <trkpt lat="44.98405" lon="6.02258">
        <ele>2741.82</ele>
        <time>2012-08-11T12:19:42Z</time>
      </trkpt>
      <trkpt lat="44.98405" lon="6.02258">
        <ele>2741.82</ele>
        <time>2012-08-11T12:20:05Z</time>
      </trkpt>
      <trkpt lat="44.98405" lon="6.02258">
        <ele>2742.3</ele>
        <time>2012-08-11T12:20:39Z</time>
      </trkpt>
      <trkpt lat="44.98407" lon="6.02254">
        <ele>2740.38</ele>
        <time>2012-08-11T12:20:59Z</time>
      </trkpt>
      <trkpt lat="44.9841" lon="6.02248">
        <ele>2738.45</ele>
        <time>2012-08-11T12:21:07Z</time>
      </trkpt>
      <trkpt lat="44.98411" lon="6.02245">
        <ele>2738.45</ele>
        <time>2012-08-11T12:21:23Z</time>
      </trkpt>
      <trkpt lat="44.98412" lon="6.02245">
        <ele>2738.45</ele>
        <time>2012-08-11T12:21:25Z</time>
      </trkpt>
      <trkpt lat="44.98414" lon="6.02246">
        <ele>2737.49</ele>
        <time>2012-08-11T12:21:27Z</time>
      </trkpt>
      <trkpt lat="44.98416" lon="6.02246">
        <ele>2736.53</ele>
        <time>2012-08-11T12:21:29Z</time>
      </trkpt>
      <trkpt lat="44.98422" lon="6.02253">
        <ele>2734.13</ele>
        <time>2012-08-11T12:21:42Z</time>
      </trkpt>
      <trkpt lat="44.98422" lon="6.02255">
        <ele>2733.65</ele>
        <time>2012-08-11T12:21:44Z</time>
      </trkpt>
      <trkpt lat="44.98425" lon="6.02253">
        <ele>2732.2</ele>
        <time>2012-08-11T12:21:48Z</time>
      </trkpt>
      <trkpt lat="44.98426" lon="6.02243">
        <ele>2728.84</ele>
        <time>2012-08-11T12:21:57Z</time>
      </trkpt>
      <trkpt lat="44.9843" lon="6.02234">
        <ele>2726.44</ele>
        <time>2012-08-11T12:22:06Z</time>
      </trkpt>
      <trkpt lat="44.98436" lon="6.02235">
        <ele>2722.59</ele>
        <time>2012-08-11T12:22:14Z</time>
      </trkpt>
      <trkpt lat="44.98437" lon="6.02233">
        <ele>2721.63</ele>
        <time>2012-08-11T12:22:16Z</time>
      </trkpt>
      <trkpt lat="44.98439" lon="6.02229">
        <ele>2720.19</ele>
        <time>2012-08-11T12:22:20Z</time>
      </trkpt>
      <trkpt lat="44.98441" lon="6.02227">
        <ele>2718.75</ele>
        <time>2012-08-11T12:22:23Z</time>
      </trkpt>
      <trkpt lat="44.98444" lon="6.02226">
        <ele>2716.34</ele>
        <time>2012-08-11T12:22:26Z</time>
      </trkpt>
      <trkpt lat="44.98447" lon="6.02226">
        <ele>2716.82</ele>
        <time>2012-08-11T12:22:28Z</time>
      </trkpt>
      <trkpt lat="44.98447" lon="6.02221">
        <ele>2714.9</ele>
        <time>2012-08-11T12:22:34Z</time>
      </trkpt>
      <trkpt lat="44.98451" lon="6.02217">
        <ele>2712.5</ele>
        <time>2012-08-11T12:22:44Z</time>
      </trkpt>
      <trkpt lat="44.98455" lon="6.02217">
        <ele>2711.06</ele>
        <time>2012-08-11T12:22:57Z</time>
      </trkpt>
      <trkpt lat="44.98458" lon="6.02219">
        <ele>2709.13</ele>
        <time>2012-08-11T12:23:02Z</time>
      </trkpt>
      <trkpt lat="44.98461" lon="6.02221">
        <ele>2709.13</ele>
        <time>2012-08-11T12:23:05Z</time>
      </trkpt>
      <trkpt lat="44.98465" lon="6.02222">
        <ele>2708.17</ele>
        <time>2012-08-11T12:23:08Z</time>
      </trkpt>
      <trkpt lat="44.98467" lon="6.02221">
        <ele>2707.21</ele>
        <time>2012-08-11T12:23:11Z</time>
      </trkpt>
      <trkpt lat="44.98469" lon="6.02216">
        <ele>2706.25</ele>
        <time>2012-08-11T12:23:17Z</time>
      </trkpt>
      <trkpt lat="44.98471" lon="6.02215">
        <ele>2705.29</ele>
        <time>2012-08-11T12:23:19Z</time>
      </trkpt>
      <trkpt lat="44.98472" lon="6.02216">
        <ele>2704.81</ele>
        <time>2012-08-11T12:23:20Z</time>
      </trkpt>
      <trkpt lat="44.98473" lon="6.02217">
        <ele>2704.33</ele>
        <time>2012-08-11T12:23:24Z</time>
      </trkpt>
      <trkpt lat="44.98477" lon="6.02216">
        <ele>2703.85</ele>
        <time>2012-08-11T12:23:27Z</time>
      </trkpt>
      <trkpt lat="44.98486" lon="6.02212">
        <ele>2699.52</ele>
        <time>2012-08-11T12:23:35Z</time>
      </trkpt>
      <trkpt lat="44.98488" lon="6.0221">
        <ele>2699.52</ele>
        <time>2012-08-11T12:23:39Z</time>
      </trkpt>
      <trkpt lat="44.98491" lon="6.02208">
        <ele>2697.6</ele>
        <time>2012-08-11T12:23:42Z</time>
      </trkpt>
      <trkpt lat="44.98492" lon="6.02207">
        <ele>2697.6</ele>
        <time>2012-08-11T12:23:44Z</time>
      </trkpt>
      <trkpt lat="44.98494" lon="6.02203">
        <ele>2696.64</ele>
        <time>2012-08-11T12:23:49Z</time>
      </trkpt>
      <trkpt lat="44.98494" lon="6.022">
        <ele>2694.71</ele>
        <time>2012-08-11T12:23:52Z</time>
      </trkpt>
      <trkpt lat="44.98501" lon="6.02202">
        <ele>2693.75</ele>
        <time>2012-08-11T12:24:01Z</time>
      </trkpt>
      <trkpt lat="44.98505" lon="6.02203">
        <ele>2692.31</ele>
        <time>2012-08-11T12:24:06Z</time>
      </trkpt>
      <trkpt lat="44.98506" lon="6.02203">
        <ele>2690.87</ele>
        <time>2012-08-11T12:24:08Z</time>
      </trkpt>
      <trkpt lat="44.98506" lon="6.022">
        <ele>2690.87</ele>
        <time>2012-08-11T12:24:10Z</time>
      </trkpt>
      <trkpt lat="44.98509" lon="6.02191">
        <ele>2690.39</ele>
        <time>2012-08-11T12:24:19Z</time>
      </trkpt>
      <trkpt lat="44.98517" lon="6.02188">
        <ele>2687.98</ele>
        <time>2012-08-11T12:24:29Z</time>
      </trkpt>
      <trkpt lat="44.98521" lon="6.02185">
        <ele>2686.54</ele>
        <time>2012-08-11T12:24:34Z</time>
      </trkpt>
      <trkpt lat="44.98524" lon="6.02181">
        <ele>2685.1</ele>
        <time>2012-08-11T12:24:45Z</time>
      </trkpt>
      <trkpt lat="44.98526" lon="6.02178">
        <ele>2684.14</ele>
        <time>2012-08-11T12:24:59Z</time>
      </trkpt>
      <trkpt lat="44.98527" lon="6.02173">
        <ele>2682.22</ele>
        <time>2012-08-11T12:25:11Z</time>
      </trkpt>
      <trkpt lat="44.98528" lon="6.02164">
        <ele>2682.22</ele>
        <time>2012-08-11T12:25:22Z</time>
      </trkpt>
      <trkpt lat="44.98531" lon="6.02159">
        <ele>2681.25</ele>
        <time>2012-08-11T12:25:32Z</time>
      </trkpt>
      <trkpt lat="44.98531" lon="6.02156">
        <ele>2681.25</ele>
        <time>2012-08-11T12:25:35Z</time>
      </trkpt>
      <trkpt lat="44.98534" lon="6.02153">
        <ele>2681.25</ele>
        <time>2012-08-11T12:25:45Z</time>
      </trkpt>
      <trkpt lat="44.98536" lon="6.02149">
        <ele>2680.77</ele>
        <time>2012-08-11T12:26:08Z</time>
      </trkpt>
      <trkpt lat="44.98535" lon="6.02141">
        <ele>2678.85</ele>
        <time>2012-08-11T12:26:30Z</time>
      </trkpt>
      <trkpt lat="44.98536" lon="6.02136">
        <ele>2677.89</ele>
        <time>2012-08-11T12:26:43Z</time>
      </trkpt>
      <trkpt lat="44.98536" lon="6.02134">
        <ele>2677.41</ele>
        <time>2012-08-11T12:26:49Z</time>
      </trkpt>
      <trkpt lat="44.98539" lon="6.0213">
        <ele>2676.45</ele>
        <time>2012-08-11T12:26:53Z</time>
      </trkpt>
      <trkpt lat="44.98541" lon="6.02129">
        <ele>2675.97</ele>
        <time>2012-08-11T12:26:54Z</time>
      </trkpt>
      <trkpt lat="44.98544" lon="6.02125">
        <ele>2675.01</ele>
        <time>2012-08-11T12:27:00Z</time>
      </trkpt>
      <trkpt lat="44.98545" lon="6.02123">
        <ele>2674.04</ele>
        <time>2012-08-11T12:27:02Z</time>
      </trkpt>
      <trkpt lat="44.98547" lon="6.02123">
        <ele>2673.08</ele>
        <time>2012-08-11T12:27:04Z</time>
      </trkpt>
      <trkpt lat="44.98548" lon="6.02121">
        <ele>2672.6</ele>
        <time>2012-08-11T12:27:06Z</time>
      </trkpt>
      <trkpt lat="44.98551" lon="6.0212">
        <ele>2671.16</ele>
        <time>2012-08-11T12:27:09Z</time>
      </trkpt>
      <trkpt lat="44.98556" lon="6.02116">
        <ele>2668.28</ele>
        <time>2012-08-11T12:27:18Z</time>
      </trkpt>
      <trkpt lat="44.98564" lon="6.0211">
        <ele>2664.91</ele>
        <time>2012-08-11T12:27:37Z</time>
      </trkpt>
      <trkpt lat="44.98565" lon="6.02104">
        <ele>2662.03</ele>
        <time>2012-08-11T12:27:55Z</time>
      </trkpt>
      <trkpt lat="44.98567" lon="6.02102">
        <ele>2661.07</ele>
        <time>2012-08-11T12:27:57Z</time>
      </trkpt>
      <trkpt lat="44.98567" lon="6.02099">
        <ele>2659.14</ele>
        <time>2012-08-11T12:28:01Z</time>
      </trkpt>
      <trkpt lat="44.98569" lon="6.02098">
        <ele>2659.14</ele>
        <time>2012-08-11T12:28:12Z</time>
      </trkpt>
      <trkpt lat="44.98575" lon="6.02093">
        <ele>2656.26</ele>
        <time>2012-08-11T12:28:19Z</time>
      </trkpt>
      <trkpt lat="44.98578" lon="6.02089">
        <ele>2654.82</ele>
        <time>2012-08-11T12:28:31Z</time>
      </trkpt>
      <trkpt lat="44.98583" lon="6.02091">
        <ele>2654.34</ele>
        <time>2012-08-11T12:28:36Z</time>
      </trkpt>
      <trkpt lat="44.98584" lon="6.02091">
        <ele>2653.86</ele>
        <time>2012-08-11T12:28:38Z</time>
      </trkpt>
      <trkpt lat="44.98587" lon="6.02085">
        <ele>2651.45</ele>
        <time>2012-08-11T12:28:47Z</time>
      </trkpt>
      <trkpt lat="44.98595" lon="6.02083">
        <ele>2648.57</ele>
        <time>2012-08-11T12:28:56Z</time>
      </trkpt>
      <trkpt lat="44.98595" lon="6.02083">
        <ele>2648.09</ele>
        <time>2012-08-11T12:29:00Z</time>
      </trkpt>
      <trkpt lat="44.98595" lon="6.02085">
        <ele>2647.13</ele>
        <time>2012-08-11T12:29:03Z</time>
      </trkpt>
      <trkpt lat="44.98597" lon="6.02092">
        <ele>2648.57</ele>
        <time>2012-08-11T12:29:12Z</time>
      </trkpt>
      <trkpt lat="44.98597" lon="6.02092">
        <ele>2647.61</ele>
        <time>2012-08-11T12:29:16Z</time>
      </trkpt>
      <trkpt lat="44.98603" lon="6.0209">
        <ele>2646.17</ele>
        <time>2012-08-11T12:29:25Z</time>
      </trkpt>
      <trkpt lat="44.98603" lon="6.02087">
        <ele>2645.69</ele>
        <time>2012-08-11T12:29:38Z</time>
      </trkpt>
      <trkpt lat="44.98603" lon="6.02084">
        <ele>2645.21</ele>
        <time>2012-08-11T12:29:49Z</time>
      </trkpt>
      <trkpt lat="44.98608" lon="6.02083">
        <ele>2642.8</ele>
        <time>2012-08-11T12:29:59Z</time>
      </trkpt>
      <trkpt lat="44.9861" lon="6.02082">
        <ele>2642.8</ele>
        <time>2012-08-11T12:30:08Z</time>
      </trkpt>
      <trkpt lat="44.98613" lon="6.02083">
        <ele>2642.32</ele>
        <time>2012-08-11T12:30:11Z</time>
      </trkpt>
      <trkpt lat="44.98614" lon="6.02083">
        <ele>2641.84</ele>
        <time>2012-08-11T12:30:13Z</time>
      </trkpt>
      <trkpt lat="44.98619" lon="6.02082">
        <ele>2639.92</ele>
        <time>2012-08-11T12:30:22Z</time>
      </trkpt>
      <trkpt lat="44.98621" lon="6.0208">
        <ele>2638.96</ele>
        <time>2012-08-11T12:30:31Z</time>
      </trkpt>
      <trkpt lat="44.98625" lon="6.0208">
        <ele>2635.11</ele>
        <time>2012-08-11T12:30:57Z</time>
      </trkpt>
      <trkpt lat="44.9863" lon="6.02076">
        <ele>2634.15</ele>
        <time>2012-08-11T12:31:08Z</time>
      </trkpt>
      <trkpt lat="44.9863" lon="6.02073">
        <ele>2634.15</ele>
        <time>2012-08-11T12:31:18Z</time>
      </trkpt>
      <trkpt lat="44.9863" lon="6.02072">
        <ele>2633.19</ele>
        <time>2012-08-11T12:31:30Z</time>
      </trkpt>
      <trkpt lat="44.98633" lon="6.02065">
        <ele>2632.23</ele>
        <time>2012-08-11T12:31:39Z</time>
      </trkpt>
      <trkpt lat="44.98638" lon="6.02065">
        <ele>2630.79</ele>
        <time>2012-08-11T12:31:46Z</time>
      </trkpt>
      <trkpt lat="44.9864" lon="6.02066">
        <ele>2628.86</ele>
        <time>2012-08-11T12:31:49Z</time>
      </trkpt>
      <trkpt lat="44.98644" lon="6.02065">
        <ele>2627.42</ele>
        <time>2012-08-11T12:31:54Z</time>
      </trkpt>
      <trkpt lat="44.98646" lon="6.02068">
        <ele>2626.94</ele>
        <time>2012-08-11T12:31:59Z</time>
      </trkpt>
      <trkpt lat="44.98645" lon="6.02071">
        <ele>2625.98</ele>
        <time>2012-08-11T12:32:02Z</time>
      </trkpt>
      <trkpt lat="44.98649" lon="6.02075">
        <ele>2623.09</ele>
        <time>2012-08-11T12:32:09Z</time>
      </trkpt>
      <trkpt lat="44.98653" lon="6.02074">
        <ele>2621.17</ele>
        <time>2012-08-11T12:32:17Z</time>
      </trkpt>
      <trkpt lat="44.98658" lon="6.02074">
        <ele>2618.77</ele>
        <time>2012-08-11T12:32:26Z</time>
      </trkpt>
      <trkpt lat="44.98663" lon="6.02076">
        <ele>2616.85</ele>
        <time>2012-08-11T12:32:32Z</time>
      </trkpt>
      <trkpt lat="44.98671" lon="6.02077">
        <ele>2613.48</ele>
        <time>2012-08-11T12:32:41Z</time>
      </trkpt>
      <trkpt lat="44.98674" lon="6.02079">
        <ele>2611.08</ele>
        <time>2012-08-11T12:32:50Z</time>
      </trkpt>
      <trkpt lat="44.98678" lon="6.02081">
        <ele>2608.19</ele>
        <time>2012-08-11T12:33:01Z</time>
      </trkpt>
      <trkpt lat="44.98685" lon="6.02086">
        <ele>2605.31</ele>
        <time>2012-08-11T12:33:18Z</time>
      </trkpt>
      <trkpt lat="44.98686" lon="6.02088">
        <ele>2605.31</ele>
        <time>2012-08-11T12:33:19Z</time>
      </trkpt>
      <trkpt lat="44.98688" lon="6.02089">
        <ele>2604.83</ele>
        <time>2012-08-11T12:33:21Z</time>
      </trkpt>
      <trkpt lat="44.98692" lon="6.02098">
        <ele>2600.5</ele>
        <time>2012-08-11T12:33:33Z</time>
      </trkpt>
      <trkpt lat="44.98692" lon="6.02098">
        <ele>2600.5</ele>
        <time>2012-08-11T12:33:34Z</time>
      </trkpt>
      <trkpt lat="44.98693" lon="6.02097">
        <ele>2599.54</ele>
        <time>2012-08-11T12:33:47Z</time>
      </trkpt>
      <trkpt lat="44.98694" lon="6.02098">
        <ele>2598.58</ele>
        <time>2012-08-11T12:33:49Z</time>
      </trkpt>
      <trkpt lat="44.98699" lon="6.021">
        <ele>2596.66</ele>
        <time>2012-08-11T12:34:03Z</time>
      </trkpt>
      <trkpt lat="44.98704" lon="6.02103">
        <ele>2595.22</ele>
        <time>2012-08-11T12:34:19Z</time>
      </trkpt>
      <trkpt lat="44.98709" lon="6.02109">
        <ele>2592.33</ele>
        <time>2012-08-11T12:34:28Z</time>
      </trkpt>
      <trkpt lat="44.98714" lon="6.02114">
        <ele>2589.45</ele>
        <time>2012-08-11T12:34:38Z</time>
      </trkpt>
      <trkpt lat="44.98718" lon="6.02119">
        <ele>2588.49</ele>
        <time>2012-08-11T12:34:44Z</time>
      </trkpt>
      <trkpt lat="44.9872" lon="6.02121">
        <ele>2587.04</ele>
        <time>2012-08-11T12:34:47Z</time>
      </trkpt>
      <trkpt lat="44.98722" lon="6.02122">
        <ele>2585.12</ele>
        <time>2012-08-11T12:34:50Z</time>
      </trkpt>
      <trkpt lat="44.98726" lon="6.02126">
        <ele>2584.16</ele>
        <time>2012-08-11T12:35:00Z</time>
      </trkpt>
      <trkpt lat="44.98729" lon="6.02127">
        <ele>2583.2</ele>
        <time>2012-08-11T12:35:12Z</time>
      </trkpt>
      <trkpt lat="44.98733" lon="6.02126">
        <ele>2580.8</ele>
        <time>2012-08-11T12:35:26Z</time>
      </trkpt>
      <trkpt lat="44.98735" lon="6.02127">
        <ele>2579.84</ele>
        <time>2012-08-11T12:35:28Z</time>
      </trkpt>
      <trkpt lat="44.9874" lon="6.02131">
        <ele>2578.39</ele>
        <time>2012-08-11T12:35:37Z</time>
      </trkpt>
      <trkpt lat="44.9874" lon="6.02131">
        <ele>2576.95</ele>
        <time>2012-08-11T12:35:39Z</time>
      </trkpt>
      <trkpt lat="44.98744" lon="6.02132">
        <ele>2575.99</ele>
        <time>2012-08-11T12:35:50Z</time>
      </trkpt>
      <trkpt lat="44.98744" lon="6.02132">
        <ele>2575.51</ele>
        <time>2012-08-11T12:35:51Z</time>
      </trkpt>
      <trkpt lat="44.9875" lon="6.0213">
        <ele>2574.55</ele>
        <time>2012-08-11T12:36:01Z</time>
      </trkpt>
      <trkpt lat="44.98754" lon="6.0213">
        <ele>2574.07</ele>
        <time>2012-08-11T12:36:10Z</time>
      </trkpt>
      <trkpt lat="44.98756" lon="6.02131">
        <ele>2574.07</ele>
        <time>2012-08-11T12:36:12Z</time>
      </trkpt>
      <trkpt lat="44.9876" lon="6.0213">
        <ele>2572.14</ele>
        <time>2012-08-11T12:36:22Z</time>
      </trkpt>
      <trkpt lat="44.98764" lon="6.02132">
        <ele>2570.22</ele>
        <time>2012-08-11T12:36:43Z</time>
      </trkpt>
      <trkpt lat="44.98764" lon="6.0214">
        <ele>2568.78</ele>
        <time>2012-08-11T12:36:55Z</time>
      </trkpt>
      <trkpt lat="44.98766" lon="6.02142">
        <ele>2566.86</ele>
        <time>2012-08-11T12:36:58Z</time>
      </trkpt>
      <trkpt lat="44.98766" lon="6.02143">
        <ele>2566.38</ele>
        <time>2012-08-11T12:37:00Z</time>
      </trkpt>
      <trkpt lat="44.9877" lon="6.02144">
        <ele>2564.93</ele>
        <time>2012-08-11T12:37:14Z</time>
      </trkpt>
      <trkpt lat="44.98773" lon="6.02148">
        <ele>2563.49</ele>
        <time>2012-08-11T12:37:22Z</time>
      </trkpt>
      <trkpt lat="44.98774" lon="6.02151">
        <ele>2561.57</ele>
        <time>2012-08-11T12:37:35Z</time>
      </trkpt>
      <trkpt lat="44.98776" lon="6.02151">
        <ele>2561.09</ele>
        <time>2012-08-11T12:37:41Z</time>
      </trkpt>
      <trkpt lat="44.98779" lon="6.02153">
        <ele>2559.65</ele>
        <time>2012-08-11T12:37:53Z</time>
      </trkpt>
      <trkpt lat="44.98783" lon="6.02156">
        <ele>2558.21</ele>
        <time>2012-08-11T12:38:08Z</time>
      </trkpt>
      <trkpt lat="44.98789" lon="6.02158">
        <ele>2555.8</ele>
        <time>2012-08-11T12:38:26Z</time>
      </trkpt>
      <trkpt lat="44.98792" lon="6.02159">
        <ele>2552.44</ele>
        <time>2012-08-11T12:38:44Z</time>
      </trkpt>
      <trkpt lat="44.98796" lon="6.02167">
        <ele>2550.03</ele>
        <time>2012-08-11T12:39:03Z</time>
      </trkpt>
      <trkpt lat="44.98801" lon="6.02176">
        <ele>2547.63</ele>
        <time>2012-08-11T12:39:09Z</time>
      </trkpt>
      <trkpt lat="44.98805" lon="6.02181">
        <ele>2546.67</ele>
        <time>2012-08-11T12:39:12Z</time>
      </trkpt>
      <trkpt lat="44.9881" lon="6.02187">
        <ele>2544.27</ele>
        <time>2012-08-11T12:39:16Z</time>
      </trkpt>
      <trkpt lat="44.98813" lon="6.02189">
        <ele>2542.82</ele>
        <time>2012-08-11T12:39:18Z</time>
      </trkpt>
      <trkpt lat="44.98816" lon="6.02195">
        <ele>2541.38</ele>
        <time>2012-08-11T12:39:22Z</time>
      </trkpt>
      <trkpt lat="44.98821" lon="6.02209">
        <ele>2538.98</ele>
        <time>2012-08-11T12:39:33Z</time>
      </trkpt>
      <trkpt lat="44.98824" lon="6.02215">
        <ele>2537.54</ele>
        <time>2012-08-11T12:39:36Z</time>
      </trkpt>
      <trkpt lat="44.98828" lon="6.02222">
        <ele>2535.13</ele>
        <time>2012-08-11T12:39:40Z</time>
      </trkpt>
      <trkpt lat="44.98831" lon="6.02231">
        <ele>2533.69</ele>
        <time>2012-08-11T12:39:44Z</time>
      </trkpt>
      <trkpt lat="44.98833" lon="6.02237">
        <ele>2532.25</ele>
        <time>2012-08-11T12:39:47Z</time>
      </trkpt>
      <trkpt lat="44.98839" lon="6.02245">
        <ele>2530.33</ele>
        <time>2012-08-11T12:39:51Z</time>
      </trkpt>
      <trkpt lat="44.98841" lon="6.02251">
        <ele>2528.89</ele>
        <time>2012-08-11T12:39:54Z</time>
      </trkpt>
      <trkpt lat="44.98846" lon="6.02267">
        <ele>2526.48</ele>
        <time>2012-08-11T12:40:01Z</time>
      </trkpt>
      <trkpt lat="44.98848" lon="6.02275">
        <ele>2525.52</ele>
        <time>2012-08-11T12:40:06Z</time>
      </trkpt>
      <trkpt lat="44.98848" lon="6.02279">
        <ele>2524.56</ele>
        <time>2012-08-11T12:40:08Z</time>
      </trkpt>
      <trkpt lat="44.98852" lon="6.0229">
        <ele>2523.12</ele>
        <time>2012-08-11T12:40:16Z</time>
      </trkpt>
      <trkpt lat="44.98853" lon="6.02291">
        <ele>2523.12</ele>
        <time>2012-08-11T12:40:17Z</time>
      </trkpt>
      <trkpt lat="44.98855" lon="6.02294">
        <ele>2523.12</ele>
        <time>2012-08-11T12:40:19Z</time>
      </trkpt>
      <trkpt lat="44.98856" lon="6.023">
        <ele>2522.16</ele>
        <time>2012-08-11T12:40:23Z</time>
      </trkpt>
      <trkpt lat="44.98867" lon="6.02315">
        <ele>2521.68</ele>
        <time>2012-08-11T12:40:37Z</time>
      </trkpt>
      <trkpt lat="44.98868" lon="6.02316">
        <ele>2522.64</ele>
        <time>2012-08-11T12:40:41Z</time>
      </trkpt>
      <trkpt lat="44.9887" lon="6.02321">
        <ele>2520.23</ele>
        <time>2012-08-11T12:40:51Z</time>
      </trkpt>
      <trkpt lat="44.98872" lon="6.02324">
        <ele>2519.75</ele>
        <time>2012-08-11T12:41:02Z</time>
      </trkpt>
      <trkpt lat="44.98876" lon="6.0233">
        <ele>2519.27</ele>
        <time>2012-08-11T12:41:14Z</time>
      </trkpt>
      <trkpt lat="44.98877" lon="6.02333">
        <ele>2519.75</ele>
        <time>2012-08-11T12:41:16Z</time>
      </trkpt>
      <trkpt lat="44.9888" lon="6.02347">
        <ele>2517.83</ele>
        <time>2012-08-11T12:41:25Z</time>
      </trkpt>
      <trkpt lat="44.9888" lon="6.02352">
        <ele>2518.31</ele>
        <time>2012-08-11T12:41:28Z</time>
      </trkpt>
      <trkpt lat="44.98879" lon="6.02356">
        <ele>2518.31</ele>
        <time>2012-08-11T12:41:31Z</time>
      </trkpt>
      <trkpt lat="44.98879" lon="6.02364">
        <ele>2518.31</ele>
        <time>2012-08-11T12:41:36Z</time>
      </trkpt>
      <trkpt lat="44.98877" lon="6.02371">
        <ele>2518.31</ele>
        <time>2012-08-11T12:41:41Z</time>
      </trkpt>
      <trkpt lat="44.98879" lon="6.02388">
        <ele>2518.79</ele>
        <time>2012-08-11T12:41:54Z</time>
      </trkpt>
      <trkpt lat="44.98879" lon="6.02396">
        <ele>2518.79</ele>
        <time>2012-08-11T12:42:04Z</time>
      </trkpt>
      <trkpt lat="44.98881" lon="6.02402">
        <ele>2518.31</ele>
        <time>2012-08-11T12:42:08Z</time>
      </trkpt>
      <trkpt lat="44.98881" lon="6.02409">
        <ele>2517.83</ele>
        <time>2012-08-11T12:42:13Z</time>
      </trkpt>
      <trkpt lat="44.98881" lon="6.02412">
        <ele>2516.87</ele>
        <time>2012-08-11T12:42:15Z</time>
      </trkpt>
      <trkpt lat="44.98883" lon="6.02417">
        <ele>2517.83</ele>
        <time>2012-08-11T12:42:25Z</time>
      </trkpt>
      <trkpt lat="44.98886" lon="6.02423">
        <ele>2518.31</ele>
        <time>2012-08-11T12:42:36Z</time>
      </trkpt>
      <trkpt lat="44.98885" lon="6.02426">
        <ele>2516.87</ele>
        <time>2012-08-11T12:42:49Z</time>
      </trkpt>
      <trkpt lat="44.98885" lon="6.02427">
        <ele>2515.91</ele>
        <time>2012-08-11T12:42:52Z</time>
      </trkpt>
      <trkpt lat="44.98885" lon="6.02432">
        <ele>2514.47</ele>
        <time>2012-08-11T12:43:02Z</time>
      </trkpt>
      <trkpt lat="44.98885" lon="6.02434">
        <ele>2513.98</ele>
        <time>2012-08-11T12:43:14Z</time>
      </trkpt>
      <trkpt lat="44.98882" lon="6.02437">
        <ele>2513.02</ele>
        <time>2012-08-11T12:43:33Z</time>
      </trkpt>
      <trkpt lat="44.98882" lon="6.02442">
        <ele>2511.1</ele>
        <time>2012-08-11T12:43:42Z</time>
      </trkpt>
      <trkpt lat="44.98882" lon="6.02445">
        <ele>2509.66</ele>
        <time>2012-08-11T12:43:54Z</time>
      </trkpt>
      <trkpt lat="44.98881" lon="6.02445">
        <ele>2509.66</ele>
        <time>2012-08-11T12:43:59Z</time>
      </trkpt>
      <trkpt lat="44.98879" lon="6.02449">
        <ele>2508.7</ele>
        <time>2012-08-11T12:44:08Z</time>
      </trkpt>
      <trkpt lat="44.98877" lon="6.02451">
        <ele>2508.22</ele>
        <time>2012-08-11T12:44:22Z</time>
      </trkpt>
      <trkpt lat="44.98876" lon="6.02457">
        <ele>2505.81</ele>
        <time>2012-08-11T12:44:45Z</time>
      </trkpt>
      <trkpt lat="44.98872" lon="6.02459">
        <ele>2505.33</ele>
        <time>2012-08-11T12:44:50Z</time>
      </trkpt>
      <trkpt lat="44.98868" lon="6.02466">
        <ele>2502.93</ele>
        <time>2012-08-11T12:45:01Z</time>
      </trkpt>
      <trkpt lat="44.98872" lon="6.02473">
        <ele>2501.97</ele>
        <time>2012-08-11T12:45:12Z</time>
      </trkpt>
      <trkpt lat="44.98871" lon="6.02477">
        <ele>2501.01</ele>
        <time>2012-08-11T12:45:17Z</time>
      </trkpt>
      <trkpt lat="44.98868" lon="6.02485">
        <ele>2498.6</ele>
        <time>2012-08-11T12:45:25Z</time>
      </trkpt>
      <trkpt lat="44.98871" lon="6.02494">
        <ele>2497.64</ele>
        <time>2012-08-11T12:45:32Z</time>
      </trkpt>
      <trkpt lat="44.9887" lon="6.02495">
        <ele>2496.68</ele>
        <time>2012-08-11T12:45:33Z</time>
      </trkpt>
      <trkpt lat="44.98866" lon="6.02497">
        <ele>2496.2</ele>
        <time>2012-08-11T12:45:37Z</time>
      </trkpt>
      <trkpt lat="44.98865" lon="6.02503">
        <ele>2493.32</ele>
        <time>2012-08-11T12:45:48Z</time>
      </trkpt>
      <trkpt lat="44.98865" lon="6.02503">
        <ele>2493.32</ele>
        <time>2012-08-11T12:45:53Z</time>
      </trkpt>
      <trkpt lat="44.98854" lon="6.02504">
        <ele>2489.95</ele>
        <time>2012-08-11T12:46:07Z</time>
      </trkpt>
      <trkpt lat="44.98853" lon="6.02508">
        <ele>2489.95</ele>
        <time>2012-08-11T12:46:13Z</time>
      </trkpt>
      <trkpt lat="44.9885" lon="6.02508">
        <ele>2488.99</ele>
        <time>2012-08-11T12:46:15Z</time>
      </trkpt>
      <trkpt lat="44.98841" lon="6.02511">
        <ele>2486.11</ele>
        <time>2012-08-11T12:46:28Z</time>
      </trkpt>
      <trkpt lat="44.9884" lon="6.02511">
        <ele>2485.63</ele>
        <time>2012-08-11T12:46:30Z</time>
      </trkpt>
      <trkpt lat="44.98842" lon="6.02514">
        <ele>2485.63</ele>
        <time>2012-08-11T12:46:33Z</time>
      </trkpt>
      <trkpt lat="44.9884" lon="6.02517">
        <ele>2484.66</ele>
        <time>2012-08-11T12:46:49Z</time>
      </trkpt>
      <trkpt lat="44.98839" lon="6.02523">
        <ele>2482.74</ele>
        <time>2012-08-11T12:46:57Z</time>
      </trkpt>
      <trkpt lat="44.9884" lon="6.02529">
        <ele>2480.82</ele>
        <time>2012-08-11T12:47:08Z</time>
      </trkpt>
      <trkpt lat="44.98843" lon="6.02532">
        <ele>2480.82</ele>
        <time>2012-08-11T12:47:18Z</time>
      </trkpt>
      <trkpt lat="44.98841" lon="6.02534">
        <ele>2479.86</ele>
        <time>2012-08-11T12:47:29Z</time>
      </trkpt>
      <trkpt lat="44.9883" lon="6.02532">
        <ele>2477.94</ele>
        <time>2012-08-11T12:47:40Z</time>
      </trkpt>
      <trkpt lat="44.98825" lon="6.02534">
        <ele>2476.01</ele>
        <time>2012-08-11T12:47:48Z</time>
      </trkpt>
      <trkpt lat="44.98825" lon="6.02539">
        <ele>2473.13</ele>
        <time>2012-08-11T12:48:08Z</time>
      </trkpt>
      <trkpt lat="44.9882" lon="6.02544">
        <ele>2471.21</ele>
        <time>2012-08-11T12:48:22Z</time>
      </trkpt>
      <trkpt lat="44.9882" lon="6.02546">
        <ele>2470.73</ele>
        <time>2012-08-11T12:48:29Z</time>
      </trkpt>
      <trkpt lat="44.98816" lon="6.02547">
        <ele>2470.24</ele>
        <time>2012-08-11T12:48:32Z</time>
      </trkpt>
      <trkpt lat="44.98817" lon="6.02553">
        <ele>2469.28</ele>
        <time>2012-08-11T12:48:41Z</time>
      </trkpt>
      <trkpt lat="44.98828" lon="6.02563">
        <ele>2468.8</ele>
        <time>2012-08-11T12:48:54Z</time>
      </trkpt>
      <trkpt lat="44.98828" lon="6.02564">
        <ele>2467.84</ele>
        <time>2012-08-11T12:48:55Z</time>
      </trkpt>
      <trkpt lat="44.98833" lon="6.02571">
        <ele>2465.92</ele>
        <time>2012-08-11T12:49:05Z</time>
      </trkpt>
      <trkpt lat="44.98835" lon="6.0258">
        <ele>2463.04</ele>
        <time>2012-08-11T12:49:17Z</time>
      </trkpt>
      <trkpt lat="44.98835" lon="6.02581">
        <ele>2463.04</ele>
        <time>2012-08-11T12:49:18Z</time>
      </trkpt>
      <trkpt lat="44.98838" lon="6.02589">
        <ele>2460.63</ele>
        <time>2012-08-11T12:49:28Z</time>
      </trkpt>
      <trkpt lat="44.98841" lon="6.02595">
        <ele>2458.71</ele>
        <time>2012-08-11T12:49:43Z</time>
      </trkpt>
      <trkpt lat="44.98834" lon="6.026">
        <ele>2457.27</ele>
        <time>2012-08-11T12:50:01Z</time>
      </trkpt>
      <trkpt lat="44.98844" lon="6.02613">
        <ele>2454.86</ele>
        <time>2012-08-11T12:50:11Z</time>
      </trkpt>
      <trkpt lat="44.98844" lon="6.02616">
        <ele>2454.38</ele>
        <time>2012-08-11T12:50:13Z</time>
      </trkpt>
      <trkpt lat="44.98844" lon="6.0262">
        <ele>2453.42</ele>
        <time>2012-08-11T12:50:18Z</time>
      </trkpt>
      <trkpt lat="44.98846" lon="6.02625">
        <ele>2452.46</ele>
        <time>2012-08-11T12:50:24Z</time>
      </trkpt>
      <trkpt lat="44.98847" lon="6.02629">
        <ele>2451.02</ele>
        <time>2012-08-11T12:50:27Z</time>
      </trkpt>
      <trkpt lat="44.98844" lon="6.02637">
        <ele>2450.06</ele>
        <time>2012-08-11T12:50:36Z</time>
      </trkpt>
      <trkpt lat="44.98844" lon="6.02644">
        <ele>2447.65</ele>
        <time>2012-08-11T12:50:44Z</time>
      </trkpt>
      <trkpt lat="44.98843" lon="6.02645">
        <ele>2447.65</ele>
        <time>2012-08-11T12:50:46Z</time>
      </trkpt>
      <trkpt lat="44.98842" lon="6.0265">
        <ele>2445.25</ele>
        <time>2012-08-11T12:51:01Z</time>
      </trkpt>
      <trkpt lat="44.98842" lon="6.02655">
        <ele>2443.81</ele>
        <time>2012-08-11T12:51:34Z</time>
      </trkpt>
      <trkpt lat="44.98845" lon="6.02665">
        <ele>2441.41</ele>
        <time>2012-08-11T12:51:46Z</time>
      </trkpt>
      <trkpt lat="44.98846" lon="6.02671">
        <ele>2439</ele>
        <time>2012-08-11T12:51:59Z</time>
      </trkpt>
      <trkpt lat="44.98847" lon="6.02677">
        <ele>2436.12</ele>
        <time>2012-08-11T12:52:14Z</time>
      </trkpt>
      <trkpt lat="44.98848" lon="6.0268">
        <ele>2434.2</ele>
        <time>2012-08-11T12:52:22Z</time>
      </trkpt>
      <trkpt lat="44.98848" lon="6.02682">
        <ele>2434.2</ele>
        <time>2012-08-11T12:52:25Z</time>
      </trkpt>
      <trkpt lat="44.98847" lon="6.02684">
        <ele>2433.23</ele>
        <time>2012-08-11T12:52:46Z</time>
      </trkpt>
      <trkpt lat="44.98847" lon="6.02683">
        <ele>2432.75</ele>
        <time>2012-08-11T12:53:00Z</time>
      </trkpt>
      <trkpt lat="44.9885" lon="6.02684">
        <ele>2431.31</ele>
        <time>2012-08-11T12:53:15Z</time>
      </trkpt>
      <trkpt lat="44.98851" lon="6.02686">
        <ele>2430.35</ele>
        <time>2012-08-11T12:53:19Z</time>
      </trkpt>
      <trkpt lat="44.98854" lon="6.02688">
        <ele>2428.43</ele>
        <time>2012-08-11T12:53:24Z</time>
      </trkpt>
      <trkpt lat="44.98856" lon="6.0269">
        <ele>2426.99</ele>
        <time>2012-08-11T12:53:28Z</time>
      </trkpt>
      <trkpt lat="44.98861" lon="6.02697">
        <ele>2423.14</ele>
        <time>2012-08-11T12:53:48Z</time>
      </trkpt>
      <trkpt lat="44.98868" lon="6.02701">
        <ele>2420.74</ele>
        <time>2012-08-11T12:53:55Z</time>
      </trkpt>
      <trkpt lat="44.98871" lon="6.02705">
        <ele>2418.33</ele>
        <time>2012-08-11T12:54:04Z</time>
      </trkpt>
      <trkpt lat="44.98876" lon="6.02712">
        <ele>2414.97</ele>
        <time>2012-08-11T12:54:13Z</time>
      </trkpt>
      <trkpt lat="44.98883" lon="6.02716">
        <ele>2414.49</ele>
        <time>2012-08-11T12:54:22Z</time>
      </trkpt>
      <trkpt lat="44.98888" lon="6.0272">
        <ele>2412.57</ele>
        <time>2012-08-11T12:54:26Z</time>
      </trkpt>
      <trkpt lat="44.98895" lon="6.02721">
        <ele>2412.09</ele>
        <time>2012-08-11T12:54:35Z</time>
      </trkpt>
      <trkpt lat="44.98902" lon="6.02721">
        <ele>2411.12</ele>
        <time>2012-08-11T12:54:43Z</time>
      </trkpt>
      <trkpt lat="44.98905" lon="6.02721">
        <ele>2410.64</ele>
        <time>2012-08-11T12:54:47Z</time>
      </trkpt>
      <trkpt lat="44.98913" lon="6.02722">
        <ele>2408.72</ele>
        <time>2012-08-11T12:54:54Z</time>
      </trkpt>
      <trkpt lat="44.98921" lon="6.02722">
        <ele>2406.8</ele>
        <time>2012-08-11T12:55:04Z</time>
      </trkpt>
      <trkpt lat="44.98928" lon="6.02723">
        <ele>2406.32</ele>
        <time>2012-08-11T12:55:10Z</time>
      </trkpt>
      <trkpt lat="44.9893" lon="6.02725">
        <ele>2404.88</ele>
        <time>2012-08-11T12:55:12Z</time>
      </trkpt>
      <trkpt lat="44.98935" lon="6.02725">
        <ele>2404.39</ele>
        <time>2012-08-11T12:55:18Z</time>
      </trkpt>
      <trkpt lat="44.98941" lon="6.02724">
        <ele>2401.03</ele>
        <time>2012-08-11T12:55:26Z</time>
      </trkpt>
      <trkpt lat="44.98946" lon="6.02726">
        <ele>2399.59</ele>
        <time>2012-08-11T12:55:33Z</time>
      </trkpt>
      <trkpt lat="44.98951" lon="6.02726">
        <ele>2397.67</ele>
        <time>2012-08-11T12:55:39Z</time>
      </trkpt>
      <trkpt lat="44.98954" lon="6.02723">
        <ele>2396.22</ele>
        <time>2012-08-11T12:55:52Z</time>
      </trkpt>
      <trkpt lat="44.98961" lon="6.02723">
        <ele>2395.26</ele>
        <time>2012-08-11T12:56:09Z</time>
      </trkpt>
      <trkpt lat="44.98963" lon="6.02726">
        <ele>2394.3</ele>
        <time>2012-08-11T12:56:13Z</time>
      </trkpt>
      <trkpt lat="44.9897" lon="6.02722">
        <ele>2391.9</ele>
        <time>2012-08-11T12:56:20Z</time>
      </trkpt>
      <trkpt lat="44.98972" lon="6.02722">
        <ele>2390.94</ele>
        <time>2012-08-11T12:56:24Z</time>
      </trkpt>
      <trkpt lat="44.98977" lon="6.02721">
        <ele>2389.97</ele>
        <time>2012-08-11T12:56:36Z</time>
      </trkpt>
      <trkpt lat="44.98977" lon="6.02721">
        <ele>2389.49</ele>
        <time>2012-08-11T12:56:42Z</time>
      </trkpt>
      <trkpt lat="44.98982" lon="6.02722">
        <ele>2385.17</ele>
        <time>2012-08-11T12:56:51Z</time>
      </trkpt>
      <trkpt lat="44.98983" lon="6.02722">
        <ele>2386.13</ele>
        <time>2012-08-11T12:56:52Z</time>
      </trkpt>
      <trkpt lat="44.98987" lon="6.02721">
        <ele>2384.69</ele>
        <time>2012-08-11T12:56:57Z</time>
      </trkpt>
      <trkpt lat="44.98988" lon="6.02721">
        <ele>2384.69</ele>
        <time>2012-08-11T12:56:58Z</time>
      </trkpt>
      <trkpt lat="44.98995" lon="6.0272">
        <ele>2382.28</ele>
        <time>2012-08-11T12:57:07Z</time>
      </trkpt>
      <trkpt lat="44.99" lon="6.02723">
        <ele>2379.4</ele>
        <time>2012-08-11T12:57:14Z</time>
      </trkpt>
      <trkpt lat="44.99001" lon="6.02724">
        <ele>2379.4</ele>
        <time>2012-08-11T12:57:15Z</time>
      </trkpt>
      <trkpt lat="44.99006" lon="6.02723">
        <ele>2377.96</ele>
        <time>2012-08-11T12:57:21Z</time>
      </trkpt>
      <trkpt lat="44.99013" lon="6.02722">
        <ele>2376.04</ele>
        <time>2012-08-11T12:57:31Z</time>
      </trkpt>
      <trkpt lat="44.99019" lon="6.02726">
        <ele>2373.15</ele>
        <time>2012-08-11T12:57:39Z</time>
      </trkpt>
      <trkpt lat="44.99023" lon="6.02726">
        <ele>2372.19</ele>
        <time>2012-08-11T12:57:45Z</time>
      </trkpt>
      <trkpt lat="44.9903" lon="6.0273">
        <ele>2370.75</ele>
        <time>2012-08-11T12:57:55Z</time>
      </trkpt>
      <trkpt lat="44.99032" lon="6.02732">
        <ele>2368.83</ele>
        <time>2012-08-11T12:58:03Z</time>
      </trkpt>
      <trkpt lat="44.99041" lon="6.02734">
        <ele>2367.86</ele>
        <time>2012-08-11T12:58:12Z</time>
      </trkpt>
      <trkpt lat="44.99046" lon="6.02733">
        <ele>2365.94</ele>
        <time>2012-08-11T12:58:17Z</time>
      </trkpt>
      <trkpt lat="44.99046" lon="6.02734">
        <ele>2365.94</ele>
        <time>2012-08-11T12:58:18Z</time>
      </trkpt>
      <trkpt lat="44.99046" lon="6.02737">
        <ele>2364.98</ele>
        <time>2012-08-11T12:58:21Z</time>
      </trkpt>
      <trkpt lat="44.99048" lon="6.02739">
        <ele>2364.02</ele>
        <time>2012-08-11T12:58:24Z</time>
      </trkpt>
      <trkpt lat="44.99055" lon="6.02738">
        <ele>2362.1</ele>
        <time>2012-08-11T12:58:32Z</time>
      </trkpt>
      <trkpt lat="44.9906" lon="6.02739">
        <ele>2361.14</ele>
        <time>2012-08-11T12:58:38Z</time>
      </trkpt>
      <trkpt lat="44.99067" lon="6.02737">
        <ele>2358.73</ele>
        <time>2012-08-11T12:58:56Z</time>
      </trkpt>
      <trkpt lat="44.99072" lon="6.02734">
        <ele>2356.33</ele>
        <time>2012-08-11T12:59:08Z</time>
      </trkpt>
      <trkpt lat="44.99072" lon="6.02736">
        <ele>2355.85</ele>
        <time>2012-08-11T12:59:10Z</time>
      </trkpt>
      <trkpt lat="44.99081" lon="6.02736">
        <ele>2352.96</ele>
        <time>2012-08-11T12:59:19Z</time>
      </trkpt>
      <trkpt lat="44.99083" lon="6.02738">
        <ele>2351.04</ele>
        <time>2012-08-11T12:59:23Z</time>
      </trkpt>
      <trkpt lat="44.99086" lon="6.02744">
        <ele>2349.12</ele>
        <time>2012-08-11T12:59:28Z</time>
      </trkpt>
      <trkpt lat="44.99092" lon="6.02748">
        <ele>2347.2</ele>
        <time>2012-08-11T12:59:40Z</time>
      </trkpt>
      <trkpt lat="44.99098" lon="6.02751">
        <ele>2344.31</ele>
        <time>2012-08-11T12:59:49Z</time>
      </trkpt>
      <trkpt lat="44.99098" lon="6.02752">
        <ele>2343.83</ele>
        <time>2012-08-11T12:59:50Z</time>
      </trkpt>
      <trkpt lat="44.99107" lon="6.0276">
        <ele>2340.47</ele>
        <time>2012-08-11T13:00:06Z</time>
      </trkpt>
      <trkpt lat="44.99107" lon="6.0276">
        <ele>2340.47</ele>
        <time>2012-08-11T13:00:07Z</time>
      </trkpt>
      <trkpt lat="44.99111" lon="6.02762">
        <ele>2338.54</ele>
        <time>2012-08-11T13:00:12Z</time>
      </trkpt>
      <trkpt lat="44.99114" lon="6.02766">
        <ele>2338.06</ele>
        <time>2012-08-11T13:00:16Z</time>
      </trkpt>
      <trkpt lat="44.99117" lon="6.02775">
        <ele>2335.18</ele>
        <time>2012-08-11T13:00:26Z</time>
      </trkpt>
      <trkpt lat="44.99118" lon="6.02776">
        <ele>2334.7</ele>
        <time>2012-08-11T13:00:27Z</time>
      </trkpt>
      <trkpt lat="44.99123" lon="6.02785">
        <ele>2332.78</ele>
        <time>2012-08-11T13:00:36Z</time>
      </trkpt>
      <trkpt lat="44.99124" lon="6.02787">
        <ele>2332.3</ele>
        <time>2012-08-11T13:00:39Z</time>
      </trkpt>
      <trkpt lat="44.99135" lon="6.02801">
        <ele>2329.89</ele>
        <time>2012-08-11T13:00:50Z</time>
      </trkpt>
      <trkpt lat="44.99139" lon="6.02804">
        <ele>2328.45</ele>
        <time>2012-08-11T13:00:53Z</time>
      </trkpt>
      <trkpt lat="44.99147" lon="6.02812">
        <ele>2327.49</ele>
        <time>2012-08-11T13:01:06Z</time>
      </trkpt>
      <trkpt lat="44.99159" lon="6.02826">
        <ele>2326.53</ele>
        <time>2012-08-11T13:01:19Z</time>
      </trkpt>
      <trkpt lat="44.99172" lon="6.02836">
        <ele>2325.57</ele>
        <time>2012-08-11T13:01:32Z</time>
      </trkpt>
      <trkpt lat="44.9918" lon="6.02839">
        <ele>2324.61</ele>
        <time>2012-08-11T13:01:39Z</time>
      </trkpt>
      <trkpt lat="44.9918" lon="6.02844">
        <ele>2325.57</ele>
        <time>2012-08-11T13:01:43Z</time>
      </trkpt>
      <trkpt lat="44.99181" lon="6.02851">
        <ele>2326.05</ele>
        <time>2012-08-11T13:01:55Z</time>
      </trkpt>
      <trkpt lat="44.99186" lon="6.02851">
        <ele>2326.05</ele>
        <time>2012-08-11T13:02:03Z</time>
      </trkpt>
      <trkpt lat="44.99194" lon="6.02852">
        <ele>2326.05</ele>
        <time>2012-08-11T13:02:14Z</time>
      </trkpt>
      <trkpt lat="44.99196" lon="6.02852">
        <ele>2326.05</ele>
        <time>2012-08-11T13:02:18Z</time>
      </trkpt>
      <trkpt lat="44.99208" lon="6.02849">
        <ele>2326.05</ele>
        <time>2012-08-11T13:02:28Z</time>
      </trkpt>
      <trkpt lat="44.99218" lon="6.02849">
        <ele>2325.09</ele>
        <time>2012-08-11T13:02:38Z</time>
      </trkpt>
      <trkpt lat="44.99221" lon="6.0285">
        <ele>2323.64</ele>
        <time>2012-08-11T13:02:41Z</time>
      </trkpt>
      <trkpt lat="44.99229" lon="6.02849">
        <ele>2322.68</ele>
        <time>2012-08-11T13:02:50Z</time>
      </trkpt>
      <trkpt lat="44.99231" lon="6.0285">
        <ele>2321.72</ele>
        <time>2012-08-11T13:02:52Z</time>
      </trkpt>
      <trkpt lat="44.99241" lon="6.02848">
        <ele>2319.8</ele>
        <time>2012-08-11T13:03:00Z</time>
      </trkpt>
      <trkpt lat="44.99245" lon="6.02846">
        <ele>2319.32</ele>
        <time>2012-08-11T13:03:03Z</time>
      </trkpt>
      <trkpt lat="44.99252" lon="6.02848">
        <ele>2319.32</ele>
        <time>2012-08-11T13:03:08Z</time>
      </trkpt>
      <trkpt lat="44.99267" lon="6.02849">
        <ele>2322.2</ele>
        <time>2012-08-11T13:03:18Z</time>
      </trkpt>
      <trkpt lat="44.99277" lon="6.02849">
        <ele>2319.32</ele>
        <time>2012-08-11T13:03:26Z</time>
      </trkpt>
      <trkpt lat="44.99279" lon="6.02848">
        <ele>2318.84</ele>
        <time>2012-08-11T13:03:28Z</time>
      </trkpt>
      <trkpt lat="44.99279" lon="6.02845">
        <ele>2317.88</ele>
        <time>2012-08-11T13:03:32Z</time>
      </trkpt>
      <trkpt lat="44.9928" lon="6.02844">
        <ele>2317.88</ele>
        <time>2012-08-11T13:03:33Z</time>
      </trkpt>
      <trkpt lat="44.99288" lon="6.02843">
        <ele>2317.4</ele>
        <time>2012-08-11T13:03:41Z</time>
      </trkpt>
      <trkpt lat="44.99296" lon="6.02836">
        <ele>2316.91</ele>
        <time>2012-08-11T13:03:50Z</time>
      </trkpt>
      <trkpt lat="44.99315" lon="6.02836">
        <ele>2316.43</ele>
        <time>2012-08-11T13:04:03Z</time>
      </trkpt>
      <trkpt lat="44.99326" lon="6.02839">
        <ele>2316.91</ele>
        <time>2012-08-11T13:04:11Z</time>
      </trkpt>
      <trkpt lat="44.99327" lon="6.02839">
        <ele>2316.43</ele>
        <time>2012-08-11T13:04:12Z</time>
      </trkpt>
      <trkpt lat="44.99339" lon="6.02839">
        <ele>2317.88</ele>
        <time>2012-08-11T13:04:22Z</time>
      </trkpt>
      <trkpt lat="44.99347" lon="6.02843">
        <ele>2316.43</ele>
        <time>2012-08-11T13:04:30Z</time>
      </trkpt>
      <trkpt lat="44.99352" lon="6.02842">
        <ele>2316.91</ele>
        <time>2012-08-11T13:04:34Z</time>
      </trkpt>
      <trkpt lat="44.9936" lon="6.02846">
        <ele>2317.88</ele>
        <time>2012-08-11T13:04:41Z</time>
      </trkpt>
      <trkpt lat="44.99364" lon="6.02848">
        <ele>2316.91</ele>
        <time>2012-08-11T13:04:45Z</time>
      </trkpt>
      <trkpt lat="44.99373" lon="6.02854">
        <ele>2316.43</ele>
        <time>2012-08-11T13:04:56Z</time>
      </trkpt>
      <trkpt lat="44.99374" lon="6.02853">
        <ele>2317.4</ele>
        <time>2012-08-11T13:05:06Z</time>
      </trkpt>
      <trkpt lat="44.99381" lon="6.02849">
        <ele>2315.47</ele>
        <time>2012-08-11T13:05:19Z</time>
      </trkpt>
      <trkpt lat="44.99383" lon="6.02849">
        <ele>2313.07</ele>
        <time>2012-08-11T13:05:33Z</time>
      </trkpt>
      <trkpt lat="44.99383" lon="6.02849">
        <ele>2312.11</ele>
        <time>2012-08-11T13:05:35Z</time>
      </trkpt>
      <trkpt lat="44.99385" lon="6.02849">
        <ele>2310.67</ele>
        <time>2012-08-11T13:05:50Z</time>
      </trkpt>
      <trkpt lat="44.99388" lon="6.02845">
        <ele>2307.3</ele>
        <time>2012-08-11T13:06:07Z</time>
      </trkpt>
      <trkpt lat="44.99393" lon="6.02839">
        <ele>2304.9</ele>
        <time>2012-08-11T13:06:21Z</time>
      </trkpt>
      <trkpt lat="44.99393" lon="6.02834">
        <ele>2302.49</ele>
        <time>2012-08-11T13:06:33Z</time>
      </trkpt>
      <trkpt lat="44.99397" lon="6.02832">
        <ele>2300.09</ele>
        <time>2012-08-11T13:06:43Z</time>
      </trkpt>
      <trkpt lat="44.99401" lon="6.02834">
        <ele>2296.73</ele>
        <time>2012-08-11T13:07:06Z</time>
      </trkpt>
      <trkpt lat="44.99407" lon="6.02842">
        <ele>2293.84</ele>
        <time>2012-08-11T13:07:24Z</time>
      </trkpt>
      <trkpt lat="44.99407" lon="6.0285">
        <ele>2293.36</ele>
        <time>2012-08-11T13:07:30Z</time>
      </trkpt>
      <trkpt lat="44.9941" lon="6.02857">
        <ele>2292.4</ele>
        <time>2012-08-11T13:07:40Z</time>
      </trkpt>
      <trkpt lat="44.99415" lon="6.02859">
        <ele>2289.52</ele>
        <time>2012-08-11T13:07:47Z</time>
      </trkpt>
      <trkpt lat="44.99421" lon="6.02861">
        <ele>2287.59</ele>
        <time>2012-08-11T13:07:59Z</time>
      </trkpt>
      <trkpt lat="44.99425" lon="6.02863">
        <ele>2285.19</ele>
        <time>2012-08-11T13:08:07Z</time>
      </trkpt>
      <trkpt lat="44.99426" lon="6.0287">
        <ele>2284.23</ele>
        <time>2012-08-11T13:08:15Z</time>
      </trkpt>
      <trkpt lat="44.99427" lon="6.02878">
        <ele>2283.27</ele>
        <time>2012-08-11T13:08:28Z</time>
      </trkpt>
      <trkpt lat="44.99426" lon="6.0289">
        <ele>2283.27</ele>
        <time>2012-08-11T13:08:54Z</time>
      </trkpt>
      <trkpt lat="44.99426" lon="6.02893">
        <ele>2283.27</ele>
        <time>2012-08-11T13:09:14Z</time>
      </trkpt>
      <trkpt lat="44.99426" lon="6.02892">
        <ele>2283.27</ele>
        <time>2012-08-11T13:12:42Z</time>
      </trkpt>
      <trkpt lat="44.99427" lon="6.02892">
        <ele>2281.35</ele>
        <time>2012-08-11T13:14:01Z</time>
      </trkpt>
      <trkpt lat="44.99426" lon="6.02893">
        <ele>2277.98</ele>
        <time>2012-08-11T13:22:16Z</time>
      </trkpt>
      <trkpt lat="44.99425" lon="6.02893">
        <ele>2278.46</ele>
        <time>2012-08-11T13:29:37Z</time>
      </trkpt>
      <trkpt lat="44.99425" lon="6.02893">
        <ele>2278.46</ele>
        <time>2012-08-11T13:29:43Z</time>
      </trkpt>
      <trkpt lat="44.99425" lon="6.02893">
        <ele>2276.54</ele>
        <time>2012-08-11T13:29:46Z</time>
      </trkpt>
      <trkpt lat="44.99425" lon="6.02894">
        <ele>2276.06</ele>
        <time>2012-08-11T13:34:15Z</time>
      </trkpt>
      <trkpt lat="44.99425" lon="6.02894">
        <ele>2274.62</ele>
        <time>2012-08-11T13:34:25Z</time>
      </trkpt>
      <trkpt lat="44.99425" lon="6.02894">
        <ele>2277.02</ele>
        <time>2012-08-11T13:34:27Z</time>
      </trkpt>
      <trkpt lat="44.99424" lon="6.02895">
        <ele>2274.14</ele>
        <time>2012-08-11T13:39:02Z</time>
      </trkpt>
      <trkpt lat="44.99424" lon="6.02896">
        <ele>2278.46</ele>
        <time>2012-08-11T13:39:03Z</time>
      </trkpt>
      <trkpt lat="44.99424" lon="6.02896">
        <ele>2276.06</ele>
        <time>2012-08-11T13:39:04Z</time>
      </trkpt>
      <trkpt lat="44.99425" lon="6.02895">
        <ele>2277.02</ele>
        <time>2012-08-11T13:39:18Z</time>
      </trkpt>
      <trkpt lat="44.99424" lon="6.02895">
        <ele>2278.94</ele>
        <time>2012-08-11T13:39:21Z</time>
      </trkpt>
      <trkpt lat="44.99424" lon="6.02895">
        <ele>2277.02</ele>
        <time>2012-08-11T13:39:23Z</time>
      </trkpt>
      <trkpt lat="44.99425" lon="6.02893">
        <ele>2276.54</ele>
        <time>2012-08-11T13:39:54Z</time>
      </trkpt>
      <trkpt lat="44.99427" lon="6.02888">
        <ele>2276.06</ele>
        <time>2012-08-11T13:40:01Z</time>
      </trkpt>
      <trkpt lat="44.99435" lon="6.02876">
        <ele>2274.14</ele>
        <time>2012-08-11T13:40:12Z</time>
      </trkpt>
      <trkpt lat="44.99443" lon="6.02877">
        <ele>2272.21</ele>
        <time>2012-08-11T13:40:22Z</time>
      </trkpt>
      <trkpt lat="44.99447" lon="6.02875">
        <ele>2269.81</ele>
        <time>2012-08-11T13:40:30Z</time>
      </trkpt>
      <trkpt lat="44.99455" lon="6.0287">
        <ele>2267.89</ele>
        <time>2012-08-11T13:40:40Z</time>
      </trkpt>
      <trkpt lat="44.99458" lon="6.02869">
        <ele>2266.45</ele>
        <time>2012-08-11T13:40:44Z</time>
      </trkpt>
      <trkpt lat="44.99459" lon="6.02868">
        <ele>2265.96</ele>
        <time>2012-08-11T13:40:45Z</time>
      </trkpt>
      <trkpt lat="44.99467" lon="6.0287">
        <ele>2263.56</ele>
        <time>2012-08-11T13:40:56Z</time>
      </trkpt>
      <trkpt lat="44.99471" lon="6.02869">
        <ele>2261.16</ele>
        <time>2012-08-11T13:41:07Z</time>
      </trkpt>
      <trkpt lat="44.99475" lon="6.02867">
        <ele>2259.72</ele>
        <time>2012-08-11T13:41:14Z</time>
      </trkpt>
      <trkpt lat="44.99482" lon="6.02858">
        <ele>2256.83</ele>
        <time>2012-08-11T13:41:26Z</time>
      </trkpt>
      <trkpt lat="44.99483" lon="6.02857">
        <ele>2255.87</ele>
        <time>2012-08-11T13:41:28Z</time>
      </trkpt>
      <trkpt lat="44.99484" lon="6.02858">
        <ele>2255.39</ele>
        <time>2012-08-11T13:41:31Z</time>
      </trkpt>
      <trkpt lat="44.9949" lon="6.02858">
        <ele>2252.51</ele>
        <time>2012-08-11T13:41:41Z</time>
      </trkpt>
      <trkpt lat="44.99495" lon="6.02852">
        <ele>2251.54</ele>
        <time>2012-08-11T13:41:51Z</time>
      </trkpt>
      <trkpt lat="44.99497" lon="6.02843">
        <ele>2250.1</ele>
        <time>2012-08-11T13:42:08Z</time>
      </trkpt>
      <trkpt lat="44.995" lon="6.02844">
        <ele>2248.66</ele>
        <time>2012-08-11T13:42:18Z</time>
      </trkpt>
      <trkpt lat="44.99503" lon="6.02846">
        <ele>2247.22</ele>
        <time>2012-08-11T13:42:28Z</time>
      </trkpt>
      <trkpt lat="44.99504" lon="6.02846">
        <ele>2246.74</ele>
        <time>2012-08-11T13:42:32Z</time>
      </trkpt>
      <trkpt lat="44.99507" lon="6.02846">
        <ele>2245.78</ele>
        <time>2012-08-11T13:42:37Z</time>
      </trkpt>
      <trkpt lat="44.99518" lon="6.02844">
        <ele>2243.85</ele>
        <time>2012-08-11T13:42:46Z</time>
      </trkpt>
      <trkpt lat="44.99521" lon="6.02844">
        <ele>2242.89</ele>
        <time>2012-08-11T13:42:50Z</time>
      </trkpt>
      <trkpt lat="44.99526" lon="6.0284">
        <ele>2240.97</ele>
        <time>2012-08-11T13:42:58Z</time>
      </trkpt>
      <trkpt lat="44.99527" lon="6.02838">
        <ele>2240.97</ele>
        <time>2012-08-11T13:43:00Z</time>
      </trkpt>
      <trkpt lat="44.99529" lon="6.02836">
        <ele>2240.49</ele>
        <time>2012-08-11T13:43:20Z</time>
      </trkpt>
      <trkpt lat="44.99538" lon="6.02825">
        <ele>2240.97</ele>
        <time>2012-08-11T13:43:34Z</time>
      </trkpt>
      <trkpt lat="44.9954" lon="6.02822">
        <ele>2240.49</ele>
        <time>2012-08-11T13:43:37Z</time>
      </trkpt>
      <trkpt lat="44.99545" lon="6.02815">
        <ele>2239.05</ele>
        <time>2012-08-11T13:43:49Z</time>
      </trkpt>
      <trkpt lat="44.9955" lon="6.02812">
        <ele>2237.61</ele>
        <time>2012-08-11T13:44:00Z</time>
      </trkpt>
      <trkpt lat="44.9955" lon="6.02809">
        <ele>2237.13</ele>
        <time>2012-08-11T13:44:22Z</time>
      </trkpt>
      <trkpt lat="44.99551" lon="6.02803">
        <ele>2237.13</ele>
        <time>2012-08-11T13:44:34Z</time>
      </trkpt>
      <trkpt lat="44.99552" lon="6.028">
        <ele>2236.64</ele>
        <time>2012-08-11T13:44:40Z</time>
      </trkpt>
      <trkpt lat="44.99559" lon="6.02794">
        <ele>2238.09</ele>
        <time>2012-08-11T13:44:51Z</time>
      </trkpt>
      <trkpt lat="44.99571" lon="6.02786">
        <ele>2237.61</ele>
        <time>2012-08-11T13:45:03Z</time>
      </trkpt>
      <trkpt lat="44.99574" lon="6.02785">
        <ele>2237.13</ele>
        <time>2012-08-11T13:45:06Z</time>
      </trkpt>
      <trkpt lat="44.99579" lon="6.02787">
        <ele>2235.68</ele>
        <time>2012-08-11T13:45:11Z</time>
      </trkpt>
      <trkpt lat="44.99593" lon="6.02787">
        <ele>2236.16</ele>
        <time>2012-08-11T13:45:24Z</time>
      </trkpt>
      <trkpt lat="44.99598" lon="6.02785">
        <ele>2237.13</ele>
        <time>2012-08-11T13:45:28Z</time>
      </trkpt>
      <trkpt lat="44.99601" lon="6.02785">
        <ele>2235.68</ele>
        <time>2012-08-11T13:45:31Z</time>
      </trkpt>
      <trkpt lat="44.99608" lon="6.02785">
        <ele>2235.2</ele>
        <time>2012-08-11T13:45:36Z</time>
      </trkpt>
      <trkpt lat="44.99614" lon="6.02784">
        <ele>2234.72</ele>
        <time>2012-08-11T13:45:42Z</time>
      </trkpt>
      <trkpt lat="44.99622" lon="6.02773">
        <ele>2231.36</ele>
        <time>2012-08-11T13:45:53Z</time>
      </trkpt>
      <trkpt lat="44.99625" lon="6.02771">
        <ele>2230.88</ele>
        <time>2012-08-11T13:45:56Z</time>
      </trkpt>
      <trkpt lat="44.99628" lon="6.02768">
        <ele>2230.4</ele>
        <time>2012-08-11T13:46:00Z</time>
      </trkpt>
      <trkpt lat="44.99632" lon="6.02765">
        <ele>2230.4</ele>
        <time>2012-08-11T13:46:04Z</time>
      </trkpt>
      <trkpt lat="44.99636" lon="6.02764">
        <ele>2229.43</ele>
        <time>2012-08-11T13:46:08Z</time>
      </trkpt>
      <trkpt lat="44.9964" lon="6.02764">
        <ele>2227.99</ele>
        <time>2012-08-11T13:46:15Z</time>
      </trkpt>
      <trkpt lat="44.99645" lon="6.02757">
        <ele>2227.03</ele>
        <time>2012-08-11T13:46:25Z</time>
      </trkpt>
      <trkpt lat="44.99645" lon="6.02756">
        <ele>2227.03</ele>
        <time>2012-08-11T13:46:55Z</time>
      </trkpt>
      <trkpt lat="44.9965" lon="6.02753">
        <ele>2227.03</ele>
        <time>2012-08-11T13:47:30Z</time>
      </trkpt>
      <trkpt lat="44.9965" lon="6.02753">
        <ele>2227.03</ele>
        <time>2012-08-11T13:48:10Z</time>
      </trkpt>
      <trkpt lat="44.99653" lon="6.02752">
        <ele>2227.03</ele>
        <time>2012-08-11T13:48:26Z</time>
      </trkpt>
      <trkpt lat="44.9966" lon="6.02754">
        <ele>2225.59</ele>
        <time>2012-08-11T13:48:34Z</time>
      </trkpt>
      <trkpt lat="44.99662" lon="6.02756">
        <ele>2225.59</ele>
        <time>2012-08-11T13:48:48Z</time>
      </trkpt>
      <trkpt lat="44.99666" lon="6.02758">
        <ele>2223.19</ele>
        <time>2012-08-11T13:49:04Z</time>
      </trkpt>
      <trkpt lat="44.99675" lon="6.02764">
        <ele>2220.78</ele>
        <time>2012-08-11T13:49:14Z</time>
      </trkpt>
      <trkpt lat="44.99676" lon="6.02764">
        <ele>2221.26</ele>
        <time>2012-08-11T13:49:16Z</time>
      </trkpt>
      <trkpt lat="44.99679" lon="6.02768">
        <ele>2219.34</ele>
        <time>2012-08-11T13:49:22Z</time>
      </trkpt>
      <trkpt lat="44.99681" lon="6.0277">
        <ele>2219.34</ele>
        <time>2012-08-11T13:49:24Z</time>
      </trkpt>
      <trkpt lat="44.99684" lon="6.02771">
        <ele>2218.86</ele>
        <time>2012-08-11T13:49:27Z</time>
      </trkpt>
      <trkpt lat="44.99688" lon="6.02772">
        <ele>2217.9</ele>
        <time>2012-08-11T13:49:32Z</time>
      </trkpt>
      <trkpt lat="44.99697" lon="6.02778">
        <ele>2216.46</ele>
        <time>2012-08-11T13:49:42Z</time>
      </trkpt>
      <trkpt lat="44.99702" lon="6.02779">
        <ele>2214.05</ele>
        <time>2012-08-11T13:49:53Z</time>
      </trkpt>
      <trkpt lat="44.99708" lon="6.02782">
        <ele>2211.17</ele>
        <time>2012-08-11T13:50:09Z</time>
      </trkpt>
      <trkpt lat="44.99708" lon="6.02783">
        <ele>2211.17</ele>
        <time>2012-08-11T13:50:10Z</time>
      </trkpt>
      <trkpt lat="44.99712" lon="6.02786">
        <ele>2210.21</ele>
        <time>2012-08-11T13:50:22Z</time>
      </trkpt>
      <trkpt lat="44.99715" lon="6.02785">
        <ele>2209.73</ele>
        <time>2012-08-11T13:50:46Z</time>
      </trkpt>
      <trkpt lat="44.99716" lon="6.02784">
        <ele>2209.25</ele>
        <time>2012-08-11T13:50:48Z</time>
      </trkpt>
      <trkpt lat="44.99726" lon="6.02779">
        <ele>2207.32</ele>
        <time>2012-08-11T13:50:58Z</time>
      </trkpt>
      <trkpt lat="44.99727" lon="6.02779">
        <ele>2206.84</ele>
        <time>2012-08-11T13:51:02Z</time>
      </trkpt>
      <trkpt lat="44.99733" lon="6.02783">
        <ele>2204.92</ele>
        <time>2012-08-11T13:51:08Z</time>
      </trkpt>
      <trkpt lat="44.99732" lon="6.02784">
        <ele>2205.88</ele>
        <time>2012-08-11T13:51:28Z</time>
      </trkpt>
      <trkpt lat="44.99733" lon="6.02784">
        <ele>2206.36</ele>
        <time>2012-08-11T13:52:12Z</time>
      </trkpt>
      <trkpt lat="44.99736" lon="6.02783">
        <ele>2205.88</ele>
        <time>2012-08-11T13:52:15Z</time>
      </trkpt>
      <trkpt lat="44.99749" lon="6.02787">
        <ele>2203.48</ele>
        <time>2012-08-11T13:52:26Z</time>
      </trkpt>
      <trkpt lat="44.99761" lon="6.02786">
        <ele>2201.08</ele>
        <time>2012-08-11T13:52:37Z</time>
      </trkpt>
      <trkpt lat="44.99763" lon="6.02785">
        <ele>2200.59</ele>
        <time>2012-08-11T13:52:41Z</time>
      </trkpt>
      <trkpt lat="44.99769" lon="6.02782">
        <ele>2199.15</ele>
        <time>2012-08-11T13:52:50Z</time>
      </trkpt>
      <trkpt lat="44.99771" lon="6.02781">
        <ele>2198.67</ele>
        <time>2012-08-11T13:52:52Z</time>
      </trkpt>
      <trkpt lat="44.99771" lon="6.0278">
        <ele>2198.67</ele>
        <time>2012-08-11T13:52:54Z</time>
      </trkpt>
      <trkpt lat="44.99783" lon="6.0278">
        <ele>2199.15</ele>
        <time>2012-08-11T13:53:09Z</time>
      </trkpt>
      <trkpt lat="44.99785" lon="6.02781">
        <ele>2197.71</ele>
        <time>2012-08-11T13:53:12Z</time>
      </trkpt>
      <trkpt lat="44.99788" lon="6.02781">
        <ele>2196.75</ele>
        <time>2012-08-11T13:53:16Z</time>
      </trkpt>
      <trkpt lat="44.99793" lon="6.02778">
        <ele>2195.31</ele>
        <time>2012-08-11T13:53:21Z</time>
      </trkpt>
      <trkpt lat="44.99794" lon="6.02778">
        <ele>2195.31</ele>
        <time>2012-08-11T13:53:23Z</time>
      </trkpt>
      <trkpt lat="44.998" lon="6.02778">
        <ele>2192.9</ele>
        <time>2012-08-11T13:53:32Z</time>
      </trkpt>
      <trkpt lat="44.998" lon="6.02785">
        <ele>2190.02</ele>
        <time>2012-08-11T13:53:41Z</time>
      </trkpt>
      <trkpt lat="44.99804" lon="6.0279">
        <ele>2187.62</ele>
        <time>2012-08-11T13:53:50Z</time>
      </trkpt>
      <trkpt lat="44.99805" lon="6.02792">
        <ele>2186.18</ele>
        <time>2012-08-11T13:53:56Z</time>
      </trkpt>
      <trkpt lat="44.99814" lon="6.02801">
        <ele>2183.29</ele>
        <time>2012-08-11T13:54:08Z</time>
      </trkpt>
      <trkpt lat="44.99817" lon="6.02807">
        <ele>2180.41</ele>
        <time>2012-08-11T13:54:20Z</time>
      </trkpt>
      <trkpt lat="44.99818" lon="6.02813">
        <ele>2178</ele>
        <time>2012-08-11T13:54:27Z</time>
      </trkpt>
      <trkpt lat="44.99817" lon="6.02819">
        <ele>2176.08</ele>
        <time>2012-08-11T13:54:33Z</time>
      </trkpt>
      <trkpt lat="44.99816" lon="6.02822">
        <ele>2175.6</ele>
        <time>2012-08-11T13:54:48Z</time>
      </trkpt>
      <trkpt lat="44.99818" lon="6.02823">
        <ele>2175.12</ele>
        <time>2012-08-11T13:55:24Z</time>
      </trkpt>
      <trkpt lat="44.99819" lon="6.02825">
        <ele>2174.64</ele>
        <time>2012-08-11T13:55:41Z</time>
      </trkpt>
      <trkpt lat="44.99821" lon="6.02834">
        <ele>2171.76</ele>
        <time>2012-08-11T13:55:50Z</time>
      </trkpt>
      <trkpt lat="44.99821" lon="6.02835">
        <ele>2171.76</ele>
        <time>2012-08-11T13:55:51Z</time>
      </trkpt>
      <trkpt lat="44.9982" lon="6.0284">
        <ele>2170.79</ele>
        <time>2012-08-11T13:55:56Z</time>
      </trkpt>
      <trkpt lat="44.99823" lon="6.02848">
        <ele>2166.95</ele>
        <time>2012-08-11T13:56:06Z</time>
      </trkpt>
      <trkpt lat="44.99822" lon="6.02858">
        <ele>2164.55</ele>
        <time>2012-08-11T13:56:15Z</time>
      </trkpt>
      <trkpt lat="44.99826" lon="6.02867">
        <ele>2161.66</ele>
        <time>2012-08-11T13:56:26Z</time>
      </trkpt>
      <trkpt lat="44.99826" lon="6.0287">
        <ele>2160.7</ele>
        <time>2012-08-11T13:56:30Z</time>
      </trkpt>
      <trkpt lat="44.99829" lon="6.02876">
        <ele>2159.26</ele>
        <time>2012-08-11T13:56:36Z</time>
      </trkpt>
      <trkpt lat="44.9983" lon="6.0288">
        <ele>2157.34</ele>
        <time>2012-08-11T13:56:40Z</time>
      </trkpt>
      <trkpt lat="44.99834" lon="6.02885">
        <ele>2154.93</ele>
        <time>2012-08-11T13:56:50Z</time>
      </trkpt>
      <trkpt lat="44.99834" lon="6.02887">
        <ele>2154.45</ele>
        <time>2012-08-11T13:56:52Z</time>
      </trkpt>
      <trkpt lat="44.99837" lon="6.0289">
        <ele>2152.53</ele>
        <time>2012-08-11T13:57:03Z</time>
      </trkpt>
      <trkpt lat="44.9984" lon="6.02891">
        <ele>2150.61</ele>
        <time>2012-08-11T13:57:25Z</time>
      </trkpt>
      <trkpt lat="44.99843" lon="6.02889">
        <ele>2149.65</ele>
        <time>2012-08-11T13:57:35Z</time>
      </trkpt>
      <trkpt lat="44.99847" lon="6.02893">
        <ele>2148.2</ele>
        <time>2012-08-11T13:57:45Z</time>
      </trkpt>
      <trkpt lat="44.99855" lon="6.029">
        <ele>2146.28</ele>
        <time>2012-08-11T13:57:56Z</time>
      </trkpt>
      <trkpt lat="44.99857" lon="6.02901">
        <ele>2144.84</ele>
        <time>2012-08-11T13:57:58Z</time>
      </trkpt>
      <trkpt lat="44.99859" lon="6.02908">
        <ele>2142.92</ele>
        <time>2012-08-11T13:58:04Z</time>
      </trkpt>
      <trkpt lat="44.99863" lon="6.02914">
        <ele>2139.55</ele>
        <time>2012-08-11T13:58:15Z</time>
      </trkpt>
      <trkpt lat="44.99865" lon="6.02922">
        <ele>2137.15</ele>
        <time>2012-08-11T13:58:24Z</time>
      </trkpt>
      <trkpt lat="44.99867" lon="6.02928">
        <ele>2133.78</ele>
        <time>2012-08-11T13:58:35Z</time>
      </trkpt>
      <trkpt lat="44.99871" lon="6.02932">
        <ele>2132.82</ele>
        <time>2012-08-11T13:58:40Z</time>
      </trkpt>
      <trkpt lat="44.99873" lon="6.02942">
        <ele>2129.46</ele>
        <time>2012-08-11T13:58:48Z</time>
      </trkpt>
      <trkpt lat="44.99873" lon="6.02943">
        <ele>2128.98</ele>
        <time>2012-08-11T13:58:49Z</time>
      </trkpt>
      <trkpt lat="44.99875" lon="6.02949">
        <ele>2127.53</ele>
        <time>2012-08-11T13:58:54Z</time>
      </trkpt>
      <trkpt lat="44.99877" lon="6.02954">
        <ele>2126.09</ele>
        <time>2012-08-11T13:58:57Z</time>
      </trkpt>
      <trkpt lat="44.99882" lon="6.02963">
        <ele>2123.21</ele>
        <time>2012-08-11T13:59:06Z</time>
      </trkpt>
      <trkpt lat="44.99887" lon="6.02973">
        <ele>2119.84</ele>
        <time>2012-08-11T13:59:18Z</time>
      </trkpt>
      <trkpt lat="44.99889" lon="6.02982">
        <ele>2117.44</ele>
        <time>2012-08-11T13:59:27Z</time>
      </trkpt>
      <trkpt lat="44.99889" lon="6.02984">
        <ele>2116.96</ele>
        <time>2012-08-11T13:59:29Z</time>
      </trkpt>
      <trkpt lat="44.9989" lon="6.02989">
        <ele>2115.52</ele>
        <time>2012-08-11T13:59:32Z</time>
      </trkpt>
      <trkpt lat="44.99891" lon="6.02991">
        <ele>2114.56</ele>
        <time>2012-08-11T13:59:34Z</time>
      </trkpt>
      <trkpt lat="44.99897" lon="6.02996">
        <ele>2114.08</ele>
        <time>2012-08-11T13:59:42Z</time>
      </trkpt>
      <trkpt lat="44.99898" lon="6.03001">
        <ele>2110.71</ele>
        <time>2012-08-11T13:59:51Z</time>
      </trkpt>
      <trkpt lat="44.99899" lon="6.03003">
        <ele>2110.23</ele>
        <time>2012-08-11T13:59:56Z</time>
      </trkpt>
      <trkpt lat="44.99902" lon="6.03009">
        <ele>2108.79</ele>
        <time>2012-08-11T14:00:07Z</time>
      </trkpt>
      <trkpt lat="44.99903" lon="6.03015">
        <ele>2105.42</ele>
        <time>2012-08-11T14:00:21Z</time>
      </trkpt>
      <trkpt lat="44.99903" lon="6.03022">
        <ele>2103.02</ele>
        <time>2012-08-11T14:00:32Z</time>
      </trkpt>
      <trkpt lat="44.99902" lon="6.03029">
        <ele>2100.62</ele>
        <time>2012-08-11T14:00:40Z</time>
      </trkpt>
      <trkpt lat="44.999" lon="6.03035">
        <ele>2098.21</ele>
        <time>2012-08-11T14:00:50Z</time>
      </trkpt>
      <trkpt lat="44.99903" lon="6.03041">
        <ele>2095.33</ele>
        <time>2012-08-11T14:01:42Z</time>
      </trkpt>
      <trkpt lat="44.99901" lon="6.03048">
        <ele>2092.45</ele>
        <time>2012-08-11T14:01:54Z</time>
      </trkpt>
      <trkpt lat="44.99901" lon="6.0305">
        <ele>2091</ele>
        <time>2012-08-11T14:01:58Z</time>
      </trkpt>
      <trkpt lat="44.99903" lon="6.03056">
        <ele>2088.6</ele>
        <time>2012-08-11T14:02:08Z</time>
      </trkpt>
      <trkpt lat="44.99901" lon="6.03059">
        <ele>2087.16</ele>
        <time>2012-08-11T14:02:19Z</time>
      </trkpt>
      <trkpt lat="44.99903" lon="6.0307">
        <ele>2084.28</ele>
        <time>2012-08-11T14:02:28Z</time>
      </trkpt>
      <trkpt lat="44.99902" lon="6.03081">
        <ele>2081.39</ele>
        <time>2012-08-11T14:02:38Z</time>
      </trkpt>
      <trkpt lat="44.999" lon="6.03084">
        <ele>2078.51</ele>
        <time>2012-08-11T14:02:44Z</time>
      </trkpt>
      <trkpt lat="44.99901" lon="6.03092">
        <ele>2075.62</ele>
        <time>2012-08-11T14:03:08Z</time>
      </trkpt>
      <trkpt lat="44.99896" lon="6.03098">
        <ele>2073.7</ele>
        <time>2012-08-11T14:03:14Z</time>
      </trkpt>
      <trkpt lat="44.99899" lon="6.03103">
        <ele>2072.26</ele>
        <time>2012-08-11T14:03:19Z</time>
      </trkpt>
      <trkpt lat="44.99898" lon="6.0311">
        <ele>2069.86</ele>
        <time>2012-08-11T14:03:25Z</time>
      </trkpt>
      <trkpt lat="44.99898" lon="6.03116">
        <ele>2068.89</ele>
        <time>2012-08-11T14:03:29Z</time>
      </trkpt>
      <trkpt lat="44.99899" lon="6.03118">
        <ele>2066.49</ele>
        <time>2012-08-11T14:03:32Z</time>
      </trkpt>
      <trkpt lat="44.99899" lon="6.03122">
        <ele>2066.01</ele>
        <time>2012-08-11T14:03:38Z</time>
      </trkpt>
      <trkpt lat="44.99901" lon="6.03123">
        <ele>2065.05</ele>
        <time>2012-08-11T14:03:40Z</time>
      </trkpt>
      <trkpt lat="44.999" lon="6.03134">
        <ele>2061.68</ele>
        <time>2012-08-11T14:03:50Z</time>
      </trkpt>
      <trkpt lat="44.99898" lon="6.03138">
        <ele>2059.28</ele>
        <time>2012-08-11T14:03:59Z</time>
      </trkpt>
      <trkpt lat="44.99889" lon="6.03138">
        <ele>2057.36</ele>
        <time>2012-08-11T14:04:07Z</time>
      </trkpt>
      <trkpt lat="44.99887" lon="6.03139">
        <ele>2056.88</ele>
        <time>2012-08-11T14:04:11Z</time>
      </trkpt>
      <trkpt lat="44.99879" lon="6.03141">
        <ele>2053.03</ele>
        <time>2012-08-11T14:04:21Z</time>
      </trkpt>
      <trkpt lat="44.99878" lon="6.03141">
        <ele>2053.03</ele>
        <time>2012-08-11T14:04:22Z</time>
      </trkpt>
      <trkpt lat="44.99876" lon="6.03142">
        <ele>2049.67</ele>
        <time>2012-08-11T14:04:38Z</time>
      </trkpt>
      <trkpt lat="44.9987" lon="6.03134">
        <ele>2049.19</ele>
        <time>2012-08-11T14:04:46Z</time>
      </trkpt>
      <trkpt lat="44.99863" lon="6.03132">
        <ele>2046.78</ele>
        <time>2012-08-11T14:04:53Z</time>
      </trkpt>
      <trkpt lat="44.99859" lon="6.03133">
        <ele>2044.38</ele>
        <time>2012-08-11T14:05:04Z</time>
      </trkpt>
      <trkpt lat="44.99859" lon="6.03136">
        <ele>2042.94</ele>
        <time>2012-08-11T14:05:07Z</time>
      </trkpt>
      <trkpt lat="44.99857" lon="6.03143">
        <ele>2041.02</ele>
        <time>2012-08-11T14:05:16Z</time>
      </trkpt>
      <trkpt lat="44.99852" lon="6.03148">
        <ele>2038.13</ele>
        <time>2012-08-11T14:05:26Z</time>
      </trkpt>
      <trkpt lat="44.99848" lon="6.03155">
        <ele>2036.21</ele>
        <time>2012-08-11T14:05:34Z</time>
      </trkpt>
      <trkpt lat="44.99844" lon="6.03159">
        <ele>2032.84</ele>
        <time>2012-08-11T14:05:39Z</time>
      </trkpt>
      <trkpt lat="44.99843" lon="6.03164">
        <ele>2032.84</ele>
        <time>2012-08-11T14:05:44Z</time>
      </trkpt>
      <trkpt lat="44.9984" lon="6.03169">
        <ele>2030.44</ele>
        <time>2012-08-11T14:05:48Z</time>
      </trkpt>
      <trkpt lat="44.99838" lon="6.03174">
        <ele>2029.48</ele>
        <time>2012-08-11T14:05:52Z</time>
      </trkpt>
      <trkpt lat="44.99835" lon="6.03182">
        <ele>2027.08</ele>
        <time>2012-08-11T14:06:00Z</time>
      </trkpt>
      <trkpt lat="44.99835" lon="6.03183">
        <ele>2025.64</ele>
        <time>2012-08-11T14:06:01Z</time>
      </trkpt>
      <trkpt lat="44.99835" lon="6.03188">
        <ele>2025.64</ele>
        <time>2012-08-11T14:06:04Z</time>
      </trkpt>
      <trkpt lat="44.99832" lon="6.0319">
        <ele>2024.19</ele>
        <time>2012-08-11T14:06:08Z</time>
      </trkpt>
      <trkpt lat="44.99832" lon="6.03191">
        <ele>2023.71</ele>
        <time>2012-08-11T14:06:10Z</time>
      </trkpt>
      <trkpt lat="44.99831" lon="6.03194">
        <ele>2022.75</ele>
        <time>2012-08-11T14:06:13Z</time>
      </trkpt>
      <trkpt lat="44.99826" lon="6.03204">
        <ele>2019.39</ele>
        <time>2012-08-11T14:06:23Z</time>
      </trkpt>
      <trkpt lat="44.99825" lon="6.03205">
        <ele>2019.39</ele>
        <time>2012-08-11T14:06:24Z</time>
      </trkpt>
      <trkpt lat="44.99824" lon="6.03213">
        <ele>2017.46</ele>
        <time>2012-08-11T14:06:32Z</time>
      </trkpt>
      <trkpt lat="44.99821" lon="6.03222">
        <ele>2013.62</ele>
        <time>2012-08-11T14:06:41Z</time>
      </trkpt>
      <trkpt lat="44.99821" lon="6.03228">
        <ele>2011.22</ele>
        <time>2012-08-11T14:06:49Z</time>
      </trkpt>
      <trkpt lat="44.9982" lon="6.03231">
        <ele>2009.29</ele>
        <time>2012-08-11T14:06:52Z</time>
      </trkpt>
      <trkpt lat="44.99816" lon="6.0324">
        <ele>2006.89</ele>
        <time>2012-08-11T14:07:00Z</time>
      </trkpt>
      <trkpt lat="44.99818" lon="6.03246">
        <ele>2004.49</ele>
        <time>2012-08-11T14:07:06Z</time>
      </trkpt>
      <trkpt lat="44.99818" lon="6.03247">
        <ele>2004.01</ele>
        <time>2012-08-11T14:07:07Z</time>
      </trkpt>
      <trkpt lat="44.99815" lon="6.03256">
        <ele>2001.6</ele>
        <time>2012-08-11T14:07:17Z</time>
      </trkpt>
      <trkpt lat="44.99813" lon="6.03262">
        <ele>1999.68</ele>
        <time>2012-08-11T14:07:28Z</time>
      </trkpt>
      <trkpt lat="44.99812" lon="6.03264">
        <ele>1998.72</ele>
        <time>2012-08-11T14:07:30Z</time>
      </trkpt>
      <trkpt lat="44.99811" lon="6.03265">
        <ele>1998.72</ele>
        <time>2012-08-11T14:07:32Z</time>
      </trkpt>
      <trkpt lat="44.99806" lon="6.03265">
        <ele>1995.83</ele>
        <time>2012-08-11T14:07:41Z</time>
      </trkpt>
      <trkpt lat="44.99804" lon="6.03269">
        <ele>1993.43</ele>
        <time>2012-08-11T14:07:48Z</time>
      </trkpt>
      <trkpt lat="44.99803" lon="6.03276">
        <ele>1990.07</ele>
        <time>2012-08-11T14:07:58Z</time>
      </trkpt>
      <trkpt lat="44.99805" lon="6.03283">
        <ele>1986.7</ele>
        <time>2012-08-11T14:08:06Z</time>
      </trkpt>
      <trkpt lat="44.99805" lon="6.03284">
        <ele>1986.22</ele>
        <time>2012-08-11T14:08:07Z</time>
      </trkpt>
      <trkpt lat="44.99804" lon="6.03292">
        <ele>1984.3</ele>
        <time>2012-08-11T14:08:17Z</time>
      </trkpt>
      <trkpt lat="44.99805" lon="6.03296">
        <ele>1982.38</ele>
        <time>2012-08-11T14:08:23Z</time>
      </trkpt>
      <trkpt lat="44.99804" lon="6.03299">
        <ele>1981.9</ele>
        <time>2012-08-11T14:08:26Z</time>
      </trkpt>
      <trkpt lat="44.99803" lon="6.03303">
        <ele>1981.41</ele>
        <time>2012-08-11T14:08:29Z</time>
      </trkpt>
      <trkpt lat="44.99799" lon="6.03313">
        <ele>1977.57</ele>
        <time>2012-08-11T14:08:36Z</time>
      </trkpt>
      <trkpt lat="44.99801" lon="6.03315">
        <ele>1976.13</ele>
        <time>2012-08-11T14:08:39Z</time>
      </trkpt>
      <trkpt lat="44.99801" lon="6.03317">
        <ele>1975.65</ele>
        <time>2012-08-11T14:08:42Z</time>
      </trkpt>
      <trkpt lat="44.99802" lon="6.03319">
        <ele>1974.69</ele>
        <time>2012-08-11T14:08:44Z</time>
      </trkpt>
      <trkpt lat="44.99805" lon="6.03322">
        <ele>1973.72</ele>
        <time>2012-08-11T14:08:48Z</time>
      </trkpt>
      <trkpt lat="44.99807" lon="6.03327">
        <ele>1972.28</ele>
        <time>2012-08-11T14:08:52Z</time>
      </trkpt>
      <trkpt lat="44.9981" lon="6.0333">
        <ele>1968.44</ele>
        <time>2012-08-11T14:08:59Z</time>
      </trkpt>
      <trkpt lat="44.9981" lon="6.03331">
        <ele>1968.44</ele>
        <time>2012-08-11T14:09:00Z</time>
      </trkpt>
      <trkpt lat="44.99814" lon="6.03333">
        <ele>1966.03</ele>
        <time>2012-08-11T14:09:09Z</time>
      </trkpt>
      <trkpt lat="44.99818" lon="6.03332">
        <ele>1963.15</ele>
        <time>2012-08-11T14:09:18Z</time>
      </trkpt>
      <trkpt lat="44.99822" lon="6.03335">
        <ele>1961.71</ele>
        <time>2012-08-11T14:09:23Z</time>
      </trkpt>
      <trkpt lat="44.99824" lon="6.03335">
        <ele>1961.71</ele>
        <time>2012-08-11T14:09:25Z</time>
      </trkpt>
      <trkpt lat="44.99828" lon="6.03339">
        <ele>1958.82</ele>
        <time>2012-08-11T14:09:35Z</time>
      </trkpt>
      <trkpt lat="44.99836" lon="6.0334">
        <ele>1955.46</ele>
        <time>2012-08-11T14:09:47Z</time>
      </trkpt>
      <trkpt lat="44.9984" lon="6.03341">
        <ele>1953.06</ele>
        <time>2012-08-11T14:09:55Z</time>
      </trkpt>
      <trkpt lat="44.99842" lon="6.03343">
        <ele>1952.57</ele>
        <time>2012-08-11T14:09:57Z</time>
      </trkpt>
      <trkpt lat="44.99844" lon="6.03344">
        <ele>1951.13</ele>
        <time>2012-08-11T14:09:59Z</time>
      </trkpt>
      <trkpt lat="44.99847" lon="6.03345">
        <ele>1949.69</ele>
        <time>2012-08-11T14:10:04Z</time>
      </trkpt>
      <trkpt lat="44.99852" lon="6.03347">
        <ele>1948.73</ele>
        <time>2012-08-11T14:10:08Z</time>
      </trkpt>
      <trkpt lat="44.99854" lon="6.03349">
        <ele>1946.81</ele>
        <time>2012-08-11T14:10:11Z</time>
      </trkpt>
      <trkpt lat="44.99859" lon="6.03353">
        <ele>1944.4</ele>
        <time>2012-08-11T14:10:20Z</time>
      </trkpt>
      <trkpt lat="44.99866" lon="6.03353">
        <ele>1943.92</ele>
        <time>2012-08-11T14:10:29Z</time>
      </trkpt>
      <trkpt lat="44.99868" lon="6.03354">
        <ele>1943.92</ele>
        <time>2012-08-11T14:10:32Z</time>
      </trkpt>
      <trkpt lat="44.99875" lon="6.03357">
        <ele>1941.52</ele>
        <time>2012-08-11T14:10:40Z</time>
      </trkpt>
      <trkpt lat="44.99884" lon="6.03362">
        <ele>1939.12</ele>
        <time>2012-08-11T14:10:49Z</time>
      </trkpt>
      <trkpt lat="44.9989" lon="6.03368">
        <ele>1937.19</ele>
        <time>2012-08-11T14:10:57Z</time>
      </trkpt>
      <trkpt lat="44.99899" lon="6.03373">
        <ele>1934.79</ele>
        <time>2012-08-11T14:11:06Z</time>
      </trkpt>
      <trkpt lat="44.999" lon="6.03374">
        <ele>1934.79</ele>
        <time>2012-08-11T14:11:07Z</time>
      </trkpt>
      <trkpt lat="44.99902" lon="6.03374">
        <ele>1934.31</ele>
        <time>2012-08-11T14:11:09Z</time>
      </trkpt>
      <trkpt lat="44.99909" lon="6.03378">
        <ele>1932.39</ele>
        <time>2012-08-11T14:11:20Z</time>
      </trkpt>
      <trkpt lat="44.99916" lon="6.03383">
        <ele>1930.95</ele>
        <time>2012-08-11T14:11:28Z</time>
      </trkpt>
      <trkpt lat="44.99925" lon="6.03389">
        <ele>1927.58</ele>
        <time>2012-08-11T14:11:38Z</time>
      </trkpt>
      <trkpt lat="44.9993" lon="6.03389">
        <ele>1925.66</ele>
        <time>2012-08-11T14:11:43Z</time>
      </trkpt>
      <trkpt lat="44.99937" lon="6.03395">
        <ele>1924.22</ele>
        <time>2012-08-11T14:11:51Z</time>
      </trkpt>
      <trkpt lat="44.99942" lon="6.03399">
        <ele>1922.29</ele>
        <time>2012-08-11T14:11:56Z</time>
      </trkpt>
      <trkpt lat="44.99947" lon="6.03401">
        <ele>1919.89</ele>
        <time>2012-08-11T14:12:04Z</time>
      </trkpt>
      <trkpt lat="44.99951" lon="6.03405">
        <ele>1918.93</ele>
        <time>2012-08-11T14:12:12Z</time>
      </trkpt>
      <trkpt lat="44.99954" lon="6.03404">
        <ele>1917.97</ele>
        <time>2012-08-11T14:12:15Z</time>
      </trkpt>
      <trkpt lat="44.99956" lon="6.03404">
        <ele>1917.49</ele>
        <time>2012-08-11T14:12:17Z</time>
      </trkpt>
      <trkpt lat="44.99961" lon="6.03412">
        <ele>1915.08</ele>
        <time>2012-08-11T14:12:26Z</time>
      </trkpt>
      <trkpt lat="44.99967" lon="6.03416">
        <ele>1913.16</ele>
        <time>2012-08-11T14:12:31Z</time>
      </trkpt>
      <trkpt lat="44.99972" lon="6.03418">
        <ele>1911.24</ele>
        <time>2012-08-11T14:12:36Z</time>
      </trkpt>
      <trkpt lat="44.99979" lon="6.0342">
        <ele>1910.28</ele>
        <time>2012-08-11T14:12:41Z</time>
      </trkpt>
      <trkpt lat="44.99986" lon="6.03423">
        <ele>1907.39</ele>
        <time>2012-08-11T14:12:50Z</time>
      </trkpt>
      <trkpt lat="44.99987" lon="6.03423">
        <ele>1907.87</ele>
        <time>2012-08-11T14:12:52Z</time>
      </trkpt>
      <trkpt lat="44.99992" lon="6.03423">
        <ele>1905.95</ele>
        <time>2012-08-11T14:12:58Z</time>
      </trkpt>
      <trkpt lat="45.00001" lon="6.03425">
        <ele>1903.55</ele>
        <time>2012-08-11T14:13:06Z</time>
      </trkpt>
      <trkpt lat="45.00004" lon="6.03426">
        <ele>1902.59</ele>
        <time>2012-08-11T14:13:09Z</time>
      </trkpt>
      <trkpt lat="45.00007" lon="6.03428">
        <ele>1900.66</ele>
        <time>2012-08-11T14:13:18Z</time>
      </trkpt>
      <trkpt lat="45.00006" lon="6.03428">
        <ele>1900.18</ele>
        <time>2012-08-11T14:13:44Z</time>
      </trkpt>
      <trkpt lat="45.00006" lon="6.03428">
        <ele>1899.7</ele>
        <time>2012-08-11T14:13:48Z</time>
      </trkpt>
      <trkpt lat="45.00011" lon="6.03438">
        <ele>1896.82</ele>
        <time>2012-08-11T14:13:59Z</time>
      </trkpt>
      <trkpt lat="45.00015" lon="6.03442">
        <ele>1893.93</ele>
        <time>2012-08-11T14:14:07Z</time>
      </trkpt>
      <trkpt lat="45.0002" lon="6.03445">
        <ele>1892.49</ele>
        <time>2012-08-11T14:14:13Z</time>
      </trkpt>
      <trkpt lat="45.00023" lon="6.03444">
        <ele>1891.53</ele>
        <time>2012-08-11T14:14:16Z</time>
      </trkpt>
      <trkpt lat="45.00027" lon="6.03443">
        <ele>1889.13</ele>
        <time>2012-08-11T14:14:21Z</time>
      </trkpt>
      <trkpt lat="45.0003" lon="6.03447">
        <ele>1887.69</ele>
        <time>2012-08-11T14:14:30Z</time>
      </trkpt>
      <trkpt lat="45.00033" lon="6.03448">
        <ele>1885.76</ele>
        <time>2012-08-11T14:14:35Z</time>
      </trkpt>
      <trkpt lat="45.00038" lon="6.0345">
        <ele>1882.88</ele>
        <time>2012-08-11T14:14:49Z</time>
      </trkpt>
      <trkpt lat="45.00042" lon="6.03452">
        <ele>1880</ele>
        <time>2012-08-11T14:15:01Z</time>
      </trkpt>
      <trkpt lat="45.00046" lon="6.03453">
        <ele>1877.59</ele>
        <time>2012-08-11T14:15:08Z</time>
      </trkpt>
      <trkpt lat="45.00048" lon="6.03458">
        <ele>1875.67</ele>
        <time>2012-08-11T14:15:17Z</time>
      </trkpt>
      <trkpt lat="45.00051" lon="6.03457">
        <ele>1873.75</ele>
        <time>2012-08-11T14:15:23Z</time>
      </trkpt>
      <trkpt lat="45.00052" lon="6.03457">
        <ele>1873.27</ele>
        <time>2012-08-11T14:15:25Z</time>
      </trkpt>
      <trkpt lat="45.00058" lon="6.03454">
        <ele>1871.82</ele>
        <time>2012-08-11T14:15:37Z</time>
      </trkpt>
      <trkpt lat="45.0006" lon="6.03455">
        <ele>1871.34</ele>
        <time>2012-08-11T14:15:40Z</time>
      </trkpt>
      <trkpt lat="45.00063" lon="6.03457">
        <ele>1869.42</ele>
        <time>2012-08-11T14:15:50Z</time>
      </trkpt>
      <trkpt lat="45.00065" lon="6.03459">
        <ele>1867.5</ele>
        <time>2012-08-11T14:15:54Z</time>
      </trkpt>
      <trkpt lat="45.00068" lon="6.03463">
        <ele>1864.61</ele>
        <time>2012-08-11T14:16:06Z</time>
      </trkpt>
      <trkpt lat="45.00071" lon="6.03466">
        <ele>1862.69</ele>
        <time>2012-08-11T14:16:15Z</time>
      </trkpt>
      <trkpt lat="45.00072" lon="6.03467">
        <ele>1861.73</ele>
        <time>2012-08-11T14:16:18Z</time>
      </trkpt>
      <trkpt lat="45.00077" lon="6.03466">
        <ele>1860.77</ele>
        <time>2012-08-11T14:16:23Z</time>
      </trkpt>
      <trkpt lat="45.00085" lon="6.03467">
        <ele>1858.37</ele>
        <time>2012-08-11T14:16:34Z</time>
      </trkpt>
      <trkpt lat="45.00085" lon="6.03468">
        <ele>1856.92</ele>
        <time>2012-08-11T14:17:22Z</time>
      </trkpt>
      <trkpt lat="45.00087" lon="6.03471">
        <ele>1854.04</ele>
        <time>2012-08-11T14:22:36Z</time>
      </trkpt>
      <trkpt lat="45.00088" lon="6.03474">
        <ele>1852.6</ele>
        <time>2012-08-11T14:26:03Z</time>
      </trkpt>
      <trkpt lat="45.00086" lon="6.03478">
        <ele>1850.68</ele>
        <time>2012-08-11T14:26:16Z</time>
      </trkpt>
      <trkpt lat="45.00089" lon="6.03479">
        <ele>1848.27</ele>
        <time>2012-08-11T14:26:28Z</time>
      </trkpt>
      <trkpt lat="45.0009" lon="6.03483">
        <ele>1845.87</ele>
        <time>2012-08-11T14:26:43Z</time>
      </trkpt>
      <trkpt lat="45.0009" lon="6.0349">
        <ele>1842.5</ele>
        <time>2012-08-11T14:26:53Z</time>
      </trkpt>
      <trkpt lat="45.00093" lon="6.03495">
        <ele>1838.66</ele>
        <time>2012-08-11T14:27:04Z</time>
      </trkpt>
      <trkpt lat="45.00094" lon="6.03495">
        <ele>1838.66</ele>
        <time>2012-08-11T14:27:05Z</time>
      </trkpt>
      <trkpt lat="45.00098" lon="6.03497">
        <ele>1836.26</ele>
        <time>2012-08-11T14:27:13Z</time>
      </trkpt>
      <trkpt lat="45.00104" lon="6.03496">
        <ele>1834.81</ele>
        <time>2012-08-11T14:27:20Z</time>
      </trkpt>
      <trkpt lat="45.0011" lon="6.03496">
        <ele>1832.41</ele>
        <time>2012-08-11T14:27:33Z</time>
      </trkpt>
      <trkpt lat="45.00116" lon="6.03494">
        <ele>1829.53</ele>
        <time>2012-08-11T14:27:50Z</time>
      </trkpt>
      <trkpt lat="45.00124" lon="6.03495">
        <ele>1826.16</ele>
        <time>2012-08-11T14:27:59Z</time>
      </trkpt>
      <trkpt lat="45.00129" lon="6.035">
        <ele>1823.28</ele>
        <time>2012-08-11T14:28:08Z</time>
      </trkpt>
      <trkpt lat="45.00131" lon="6.03509">
        <ele>1820.39</ele>
        <time>2012-08-11T14:28:19Z</time>
      </trkpt>
      <trkpt lat="45.00138" lon="6.03511">
        <ele>1817.99</ele>
        <time>2012-08-11T14:28:27Z</time>
      </trkpt>
      <trkpt lat="45.0014" lon="6.03514">
        <ele>1817.03</ele>
        <time>2012-08-11T14:28:31Z</time>
      </trkpt>
      <trkpt lat="45.00143" lon="6.03516">
        <ele>1815.11</ele>
        <time>2012-08-11T14:28:37Z</time>
      </trkpt>
      <trkpt lat="45.00147" lon="6.03517">
        <ele>1812.7</ele>
        <time>2012-08-11T14:28:43Z</time>
      </trkpt>
      <trkpt lat="45.00152" lon="6.03521">
        <ele>1809.82</ele>
        <time>2012-08-11T14:28:54Z</time>
      </trkpt>
      <trkpt lat="45.00159" lon="6.03525">
        <ele>1806.45</ele>
        <time>2012-08-11T14:29:08Z</time>
      </trkpt>
      <trkpt lat="45.00162" lon="6.03522">
        <ele>1805.97</ele>
        <time>2012-08-11T14:29:13Z</time>
      </trkpt>
      <trkpt lat="45.00167" lon="6.0352">
        <ele>1803.09</ele>
        <time>2012-08-11T14:29:17Z</time>
      </trkpt>
      <trkpt lat="45.00174" lon="6.03517">
        <ele>1800.69</ele>
        <time>2012-08-11T14:29:26Z</time>
      </trkpt>
      <trkpt lat="45.00175" lon="6.03517">
        <ele>1800.69</ele>
        <time>2012-08-11T14:29:27Z</time>
      </trkpt>
      <trkpt lat="45.00182" lon="6.03511">
        <ele>1798.76</ele>
        <time>2012-08-11T14:29:35Z</time>
      </trkpt>
      <trkpt lat="45.0019" lon="6.0351">
        <ele>1799.73</ele>
        <time>2012-08-11T14:29:45Z</time>
      </trkpt>
      <trkpt lat="45.00194" lon="6.03512">
        <ele>1797.32</ele>
        <time>2012-08-11T14:29:56Z</time>
      </trkpt>
      <trkpt lat="45.00201" lon="6.03516">
        <ele>1794.44</ele>
        <time>2012-08-11T14:30:09Z</time>
      </trkpt>
      <trkpt lat="45.00206" lon="6.03519">
        <ele>1792.52</ele>
        <time>2012-08-11T14:30:18Z</time>
      </trkpt>
      <trkpt lat="45.00209" lon="6.03521">
        <ele>1790.59</ele>
        <time>2012-08-11T14:30:22Z</time>
      </trkpt>
      <trkpt lat="45.00213" lon="6.03526">
        <ele>1789.15</ele>
        <time>2012-08-11T14:30:31Z</time>
      </trkpt>
      <trkpt lat="45.00219" lon="6.03531">
        <ele>1786.27</ele>
        <time>2012-08-11T14:30:41Z</time>
      </trkpt>
      <trkpt lat="45.00221" lon="6.03533">
        <ele>1785.31</ele>
        <time>2012-08-11T14:30:44Z</time>
      </trkpt>
      <trkpt lat="45.00225" lon="6.03535">
        <ele>1784.82</ele>
        <time>2012-08-11T14:30:48Z</time>
      </trkpt>
      <trkpt lat="45.00236" lon="6.03537">
        <ele>1781.94</ele>
        <time>2012-08-11T14:31:01Z</time>
      </trkpt>
      <trkpt lat="45.00241" lon="6.03538">
        <ele>1780.02</ele>
        <time>2012-08-11T14:31:08Z</time>
      </trkpt>
      <trkpt lat="45.00246" lon="6.03541">
        <ele>1779.06</ele>
        <time>2012-08-11T14:31:13Z</time>
      </trkpt>
      <trkpt lat="45.00248" lon="6.03544">
        <ele>1778.1</ele>
        <time>2012-08-11T14:31:17Z</time>
      </trkpt>
      <trkpt lat="45.0025" lon="6.03547">
        <ele>1776.65</ele>
        <time>2012-08-11T14:31:22Z</time>
      </trkpt>
      <trkpt lat="45.00253" lon="6.0355">
        <ele>1775.21</ele>
        <time>2012-08-11T14:31:25Z</time>
      </trkpt>
      <trkpt lat="45.00254" lon="6.03551">
        <ele>1775.21</ele>
        <time>2012-08-11T14:31:26Z</time>
      </trkpt>
      <trkpt lat="45.00263" lon="6.03552">
        <ele>1773.29</ele>
        <time>2012-08-11T14:31:35Z</time>
      </trkpt>
      <trkpt lat="45.00268" lon="6.03555">
        <ele>1771.85</ele>
        <time>2012-08-11T14:31:41Z</time>
      </trkpt>
      <trkpt lat="45.00271" lon="6.03556">
        <ele>1771.37</ele>
        <time>2012-08-11T14:31:44Z</time>
      </trkpt>
      <trkpt lat="45.0028" lon="6.03557">
        <ele>1768.96</ele>
        <time>2012-08-11T14:31:53Z</time>
      </trkpt>
      <trkpt lat="45.00282" lon="6.03558">
        <ele>1768.96</ele>
        <time>2012-08-11T14:31:54Z</time>
      </trkpt>
      <trkpt lat="45.00286" lon="6.03558">
        <ele>1767.52</ele>
        <time>2012-08-11T14:31:58Z</time>
      </trkpt>
      <trkpt lat="45.00295" lon="6.03562">
        <ele>1765.6</ele>
        <time>2012-08-11T14:32:05Z</time>
      </trkpt>
      <trkpt lat="45.00297" lon="6.03564">
        <ele>1765.12</ele>
        <time>2012-08-11T14:32:07Z</time>
      </trkpt>
      <trkpt lat="45.00307" lon="6.03568">
        <ele>1762.71</ele>
        <time>2012-08-11T14:32:18Z</time>
      </trkpt>
      <trkpt lat="45.00307" lon="6.03568">
        <ele>1762.71</ele>
        <time>2012-08-11T14:32:19Z</time>
      </trkpt>
      <trkpt lat="45.00312" lon="6.03575">
        <ele>1760.31</ele>
        <time>2012-08-11T14:32:27Z</time>
      </trkpt>
      <trkpt lat="45.00315" lon="6.03579">
        <ele>1758.39</ele>
        <time>2012-08-11T14:32:32Z</time>
      </trkpt>
      <trkpt lat="45.00321" lon="6.03584">
        <ele>1756.95</ele>
        <time>2012-08-11T14:32:40Z</time>
      </trkpt>
      <trkpt lat="45.00326" lon="6.03594">
        <ele>1752.62</ele>
        <time>2012-08-11T14:32:55Z</time>
      </trkpt>
      <trkpt lat="45.0033" lon="6.03604">
        <ele>1751.18</ele>
        <time>2012-08-11T14:33:04Z</time>
      </trkpt>
      <trkpt lat="45.00335" lon="6.03613">
        <ele>1750.7</ele>
        <time>2012-08-11T14:33:13Z</time>
      </trkpt>
      <trkpt lat="45.00345" lon="6.03605">
        <ele>1749.26</ele>
        <time>2012-08-11T14:33:24Z</time>
      </trkpt>
      <trkpt lat="45.0035" lon="6.03607">
        <ele>1748.78</ele>
        <time>2012-08-11T14:33:32Z</time>
      </trkpt>
      <trkpt lat="45.00352" lon="6.03609">
        <ele>1746.85</ele>
        <time>2012-08-11T14:33:55Z</time>
      </trkpt>
      <trkpt lat="45.00353" lon="6.03613">
        <ele>1743.97</ele>
        <time>2012-08-11T14:34:16Z</time>
      </trkpt>
      <trkpt lat="45.00353" lon="6.0362">
        <ele>1742.53</ele>
        <time>2012-08-11T14:34:26Z</time>
      </trkpt>
      <trkpt lat="45.00355" lon="6.03627">
        <ele>1740.6</ele>
        <time>2012-08-11T14:34:36Z</time>
      </trkpt>
      <trkpt lat="45.00359" lon="6.03629">
        <ele>1739.16</ele>
        <time>2012-08-11T14:34:42Z</time>
      </trkpt>
      <trkpt lat="45.00365" lon="6.03632">
        <ele>1738.2</ele>
        <time>2012-08-11T14:34:47Z</time>
      </trkpt>
      <trkpt lat="45.00374" lon="6.03633">
        <ele>1737.24</ele>
        <time>2012-08-11T14:34:57Z</time>
      </trkpt>
      <trkpt lat="45.00385" lon="6.03636">
        <ele>1735.8</ele>
        <time>2012-08-11T14:35:05Z</time>
      </trkpt>
      <trkpt lat="45.00392" lon="6.03641">
        <ele>1734.36</ele>
        <time>2012-08-11T14:35:14Z</time>
      </trkpt>
      <trkpt lat="45.00395" lon="6.03643">
        <ele>1734.36</ele>
        <time>2012-08-11T14:35:18Z</time>
      </trkpt>
      <trkpt lat="45.00397" lon="6.03644">
        <ele>1733.39</ele>
        <time>2012-08-11T14:35:20Z</time>
      </trkpt>
      <trkpt lat="45.00405" lon="6.03649">
        <ele>1731.47</ele>
        <time>2012-08-11T14:35:27Z</time>
      </trkpt>
      <trkpt lat="45.00414" lon="6.03657">
        <ele>1730.03</ele>
        <time>2012-08-11T14:35:37Z</time>
      </trkpt>
      <trkpt lat="45.00415" lon="6.03658">
        <ele>1729.07</ele>
        <time>2012-08-11T14:35:39Z</time>
      </trkpt>
      <trkpt lat="45.0042" lon="6.03664">
        <ele>1727.63</ele>
        <time>2012-08-11T14:35:45Z</time>
      </trkpt>
      <trkpt lat="45.00426" lon="6.03672">
        <ele>1726.67</ele>
        <time>2012-08-11T14:35:56Z</time>
      </trkpt>
      <trkpt lat="45.00431" lon="6.03681">
        <ele>1723.78</ele>
        <time>2012-08-11T14:36:06Z</time>
      </trkpt>
      <trkpt lat="45.00432" lon="6.03682">
        <ele>1723.3</ele>
        <time>2012-08-11T14:36:07Z</time>
      </trkpt>
      <trkpt lat="45.0044" lon="6.03684">
        <ele>1723.3</ele>
        <time>2012-08-11T14:36:15Z</time>
      </trkpt>
      <trkpt lat="45.00448" lon="6.03691">
        <ele>1721.86</ele>
        <time>2012-08-11T14:36:25Z</time>
      </trkpt>
      <trkpt lat="45.00459" lon="6.03691">
        <ele>1718.01</ele>
        <time>2012-08-11T14:36:36Z</time>
      </trkpt>
      <trkpt lat="45.00462" lon="6.03693">
        <ele>1718.97</ele>
        <time>2012-08-11T14:36:40Z</time>
      </trkpt>
      <trkpt lat="45.00466" lon="6.03698">
        <ele>1718.01</ele>
        <time>2012-08-11T14:36:49Z</time>
      </trkpt>
      <trkpt lat="45.00468" lon="6.03704">
        <ele>1716.09</ele>
        <time>2012-08-11T14:36:59Z</time>
      </trkpt>
      <trkpt lat="45.00468" lon="6.03706">
        <ele>1715.13</ele>
        <time>2012-08-11T14:37:02Z</time>
      </trkpt>
      <trkpt lat="45.0047" lon="6.03712">
        <ele>1712.73</ele>
        <time>2012-08-11T14:37:09Z</time>
      </trkpt>
      <trkpt lat="45.00479" lon="6.03721">
        <ele>1709.84</ele>
        <time>2012-08-11T14:37:18Z</time>
      </trkpt>
      <trkpt lat="45.00481" lon="6.03723">
        <ele>1709.84</ele>
        <time>2012-08-11T14:37:21Z</time>
      </trkpt>
      <trkpt lat="45.00488" lon="6.0373">
        <ele>1708.88</ele>
        <time>2012-08-11T14:37:31Z</time>
      </trkpt>
      <trkpt lat="45.00496" lon="6.03736">
        <ele>1707.44</ele>
        <time>2012-08-11T14:37:47Z</time>
      </trkpt>
      <trkpt lat="45.00501" lon="6.03741">
        <ele>1706</ele>
        <time>2012-08-11T14:37:57Z</time>
      </trkpt>
      <trkpt lat="45.00507" lon="6.03751">
        <ele>1704.55</ele>
        <time>2012-08-11T14:38:11Z</time>
      </trkpt>
      <trkpt lat="45.0051" lon="6.03756">
        <ele>1703.59</ele>
        <time>2012-08-11T14:38:17Z</time>
      </trkpt>
      <trkpt lat="45.00511" lon="6.03762">
        <ele>1701.67</ele>
        <time>2012-08-11T14:38:22Z</time>
      </trkpt>
      <trkpt lat="45.00514" lon="6.03781">
        <ele>1699.75</ele>
        <time>2012-08-11T14:38:34Z</time>
      </trkpt>
      <trkpt lat="45.00515" lon="6.03786">
        <ele>1696.38</ele>
        <time>2012-08-11T14:38:42Z</time>
      </trkpt>
      <trkpt lat="45.00518" lon="6.03793">
        <ele>1693.98</ele>
        <time>2012-08-11T14:38:50Z</time>
      </trkpt>
      <trkpt lat="45.00528" lon="6.03798">
        <ele>1693.02</ele>
        <time>2012-08-11T14:39:00Z</time>
      </trkpt>
      <trkpt lat="45.00534" lon="6.03805">
        <ele>1690.14</ele>
        <time>2012-08-11T14:39:11Z</time>
      </trkpt>
      <trkpt lat="45.00539" lon="6.03812">
        <ele>1687.73</ele>
        <time>2012-08-11T14:39:19Z</time>
      </trkpt>
      <trkpt lat="45.00544" lon="6.03809">
        <ele>1687.73</ele>
        <time>2012-08-11T14:39:24Z</time>
      </trkpt>
      <trkpt lat="45.00551" lon="6.03811">
        <ele>1686.29</ele>
        <time>2012-08-11T14:39:33Z</time>
      </trkpt>
      <trkpt lat="45.00556" lon="6.03817">
        <ele>1684.85</ele>
        <time>2012-08-11T14:39:40Z</time>
      </trkpt>
      <trkpt lat="45.00557" lon="6.03818">
        <ele>1683.89</ele>
        <time>2012-08-11T14:39:42Z</time>
      </trkpt>
      <trkpt lat="45.00565" lon="6.03823">
        <ele>1682.93</ele>
        <time>2012-08-11T14:39:51Z</time>
      </trkpt>
      <trkpt lat="45.00567" lon="6.03824">
        <ele>1682.44</ele>
        <time>2012-08-11T14:39:53Z</time>
      </trkpt>
      <trkpt lat="45.00577" lon="6.03824">
        <ele>1682.93</ele>
        <time>2012-08-11T14:40:02Z</time>
      </trkpt>
      <trkpt lat="45.00587" lon="6.03825">
        <ele>1681.48</ele>
        <time>2012-08-11T14:40:18Z</time>
      </trkpt>
      <trkpt lat="45.00597" lon="6.03827">
        <ele>1681</ele>
        <time>2012-08-11T14:40:27Z</time>
      </trkpt>
      <trkpt lat="45.00607" lon="6.03828">
        <ele>1681</ele>
        <time>2012-08-11T14:40:36Z</time>
      </trkpt>
      <trkpt lat="45.0061" lon="6.0383">
        <ele>1681.48</ele>
        <time>2012-08-11T14:40:38Z</time>
      </trkpt>
      <trkpt lat="45.00619" lon="6.03835">
        <ele>1682.93</ele>
        <time>2012-08-11T14:40:47Z</time>
      </trkpt>
      <trkpt lat="45.0063" lon="6.03837">
        <ele>1681.96</ele>
        <time>2012-08-11T14:40:58Z</time>
      </trkpt>
      <trkpt lat="45.00638" lon="6.03841">
        <ele>1681</ele>
        <time>2012-08-11T14:41:06Z</time>
      </trkpt>
      <trkpt lat="45.00645" lon="6.03842">
        <ele>1679.08</ele>
        <time>2012-08-11T14:41:13Z</time>
      </trkpt>
      <trkpt lat="45.00646" lon="6.03842">
        <ele>1679.56</ele>
        <time>2012-08-11T14:41:14Z</time>
      </trkpt>
      <trkpt lat="45.00655" lon="6.03851">
        <ele>1680.52</ele>
        <time>2012-08-11T14:41:23Z</time>
      </trkpt>
      <trkpt lat="45.00659" lon="6.0385">
        <ele>1679.56</ele>
        <time>2012-08-11T14:41:31Z</time>
      </trkpt>
      <trkpt lat="45.0066" lon="6.03852">
        <ele>1679.56</ele>
        <time>2012-08-11T14:41:33Z</time>
      </trkpt>
      <trkpt lat="45.00668" lon="6.03858">
        <ele>1678.12</ele>
        <time>2012-08-11T14:41:46Z</time>
      </trkpt>
      <trkpt lat="45.00672" lon="6.03861">
        <ele>1676.2</ele>
        <time>2012-08-11T14:41:52Z</time>
      </trkpt>
      <trkpt lat="45.00678" lon="6.03859">
        <ele>1674.75</ele>
        <time>2012-08-11T14:42:00Z</time>
      </trkpt>
      <trkpt lat="45.00681" lon="6.03864">
        <ele>1671.39</ele>
        <time>2012-08-11T14:42:15Z</time>
      </trkpt>
      <trkpt lat="45.00686" lon="6.03872">
        <ele>1668.99</ele>
        <time>2012-08-11T14:42:28Z</time>
      </trkpt>
      <trkpt lat="45.00688" lon="6.03872">
        <ele>1668.51</ele>
        <time>2012-08-11T14:42:30Z</time>
      </trkpt>
      <trkpt lat="45.00696" lon="6.03876">
        <ele>1665.14</ele>
        <time>2012-08-11T14:42:42Z</time>
      </trkpt>
      <trkpt lat="45.00697" lon="6.03876">
        <ele>1664.66</ele>
        <time>2012-08-11T14:42:43Z</time>
      </trkpt>
      <trkpt lat="45.00698" lon="6.03878">
        <ele>1663.7</ele>
        <time>2012-08-11T14:42:47Z</time>
      </trkpt>
      <trkpt lat="45.00701" lon="6.03882">
        <ele>1661.78</ele>
        <time>2012-08-11T14:42:58Z</time>
      </trkpt>
      <trkpt lat="45.00704" lon="6.03881">
        <ele>1660.33</ele>
        <time>2012-08-11T14:43:01Z</time>
      </trkpt>
      <trkpt lat="45.00711" lon="6.03881">
        <ele>1658.41</ele>
        <time>2012-08-11T14:43:10Z</time>
      </trkpt>
      <trkpt lat="45.00714" lon="6.03889">
        <ele>1655.53</ele>
        <time>2012-08-11T14:43:22Z</time>
      </trkpt>
      <trkpt lat="45.00716" lon="6.03893">
        <ele>1653.12</ele>
        <time>2012-08-11T14:43:30Z</time>
      </trkpt>
      <trkpt lat="45.00719" lon="6.03896">
        <ele>1651.68</ele>
        <time>2012-08-11T14:43:34Z</time>
      </trkpt>
      <trkpt lat="45.00723" lon="6.03903">
        <ele>1649.28</ele>
        <time>2012-08-11T14:43:43Z</time>
      </trkpt>
      <trkpt lat="45.0073" lon="6.03909">
        <ele>1646.4</ele>
        <time>2012-08-11T14:43:52Z</time>
      </trkpt>
      <trkpt lat="45.00738" lon="6.03913">
        <ele>1643.51</ele>
        <time>2012-08-11T14:44:01Z</time>
      </trkpt>
      <trkpt lat="45.00739" lon="6.03913">
        <ele>1643.03</ele>
        <time>2012-08-11T14:44:02Z</time>
      </trkpt>
      <trkpt lat="45.00747" lon="6.03917">
        <ele>1641.11</ele>
        <time>2012-08-11T14:44:14Z</time>
      </trkpt>
      <trkpt lat="45.00751" lon="6.03934">
        <ele>1639.19</ele>
        <time>2012-08-11T14:44:25Z</time>
      </trkpt>
      <trkpt lat="45.00751" lon="6.03939">
        <ele>1636.3</ele>
        <time>2012-08-11T14:44:34Z</time>
      </trkpt>
      <trkpt lat="45.00754" lon="6.0394">
        <ele>1632.94</ele>
        <time>2012-08-11T14:44:42Z</time>
      </trkpt>
      <trkpt lat="45.00761" lon="6.03944">
        <ele>1630.05</ele>
        <time>2012-08-11T14:44:54Z</time>
      </trkpt>
      <trkpt lat="45.00765" lon="6.03949">
        <ele>1626.69</ele>
        <time>2012-08-11T14:45:08Z</time>
      </trkpt>
      <trkpt lat="45.00766" lon="6.03957">
        <ele>1625.25</ele>
        <time>2012-08-11T14:45:16Z</time>
      </trkpt>
      <trkpt lat="45.00766" lon="6.0396">
        <ele>1623.8</ele>
        <time>2012-08-11T14:45:19Z</time>
      </trkpt>
      <trkpt lat="45.00767" lon="6.03965">
        <ele>1620.44</ele>
        <time>2012-08-11T14:45:29Z</time>
      </trkpt>
      <trkpt lat="45.00768" lon="6.03965">
        <ele>1619.48</ele>
        <time>2012-08-11T14:45:32Z</time>
      </trkpt>
      <trkpt lat="45.00775" lon="6.03969">
        <ele>1617.56</ele>
        <time>2012-08-11T14:45:43Z</time>
      </trkpt>
      <trkpt lat="45.00783" lon="6.03975">
        <ele>1614.19</ele>
        <time>2012-08-11T14:46:01Z</time>
      </trkpt>
      <trkpt lat="45.00784" lon="6.03976">
        <ele>1613.23</ele>
        <time>2012-08-11T14:46:03Z</time>
      </trkpt>
      <trkpt lat="45.00791" lon="6.03975">
        <ele>1611.79</ele>
        <time>2012-08-11T14:46:13Z</time>
      </trkpt>
      <trkpt lat="45.00796" lon="6.03981">
        <ele>1608.42</ele>
        <time>2012-08-11T14:46:26Z</time>
      </trkpt>
      <trkpt lat="45.00794" lon="6.0399">
        <ele>1606.5</ele>
        <time>2012-08-11T14:46:40Z</time>
      </trkpt>
      <trkpt lat="45.00796" lon="6.03994">
        <ele>1604.58</ele>
        <time>2012-08-11T14:46:52Z</time>
      </trkpt>
      <trkpt lat="45.00797" lon="6.03992">
        <ele>1603.14</ele>
        <time>2012-08-11T14:46:56Z</time>
      </trkpt>
      <trkpt lat="45.00799" lon="6.03996">
        <ele>1600.73</ele>
        <time>2012-08-11T14:47:09Z</time>
      </trkpt>
      <trkpt lat="45.00802" lon="6.04">
        <ele>1597.37</ele>
        <time>2012-08-11T14:47:21Z</time>
      </trkpt>
      <trkpt lat="45.00806" lon="6.04007">
        <ele>1594</ele>
        <time>2012-08-11T14:47:35Z</time>
      </trkpt>
      <trkpt lat="45.00812" lon="6.04012">
        <ele>1591.12</ele>
        <time>2012-08-11T14:47:46Z</time>
      </trkpt>
      <trkpt lat="45.00815" lon="6.04029">
        <ele>1587.75</ele>
        <time>2012-08-11T14:47:58Z</time>
      </trkpt>
      <trkpt lat="45.00817" lon="6.04036">
        <ele>1586.79</ele>
        <time>2012-08-11T14:48:03Z</time>
      </trkpt>
      <trkpt lat="45.00812" lon="6.0404">
        <ele>1583.43</ele>
        <time>2012-08-11T14:48:17Z</time>
      </trkpt>
      <trkpt lat="45.00808" lon="6.04044">
        <ele>1580.06</ele>
        <time>2012-08-11T14:48:26Z</time>
      </trkpt>
      <trkpt lat="45.00808" lon="6.04046">
        <ele>1578.14</ele>
        <time>2012-08-11T14:48:33Z</time>
      </trkpt>
      <trkpt lat="45.00804" lon="6.04055">
        <ele>1575.26</ele>
        <time>2012-08-11T14:48:43Z</time>
      </trkpt>
      <trkpt lat="45.00805" lon="6.04055">
        <ele>1575.26</ele>
        <time>2012-08-11T14:48:45Z</time>
      </trkpt>
      <trkpt lat="45.00808" lon="6.0406">
        <ele>1573.82</ele>
        <time>2012-08-11T14:48:51Z</time>
      </trkpt>
      <trkpt lat="45.00812" lon="6.04059">
        <ele>1571.41</ele>
        <time>2012-08-11T14:48:59Z</time>
      </trkpt>
      <trkpt lat="45.00813" lon="6.04068">
        <ele>1568.05</ele>
        <time>2012-08-11T14:49:10Z</time>
      </trkpt>
      <trkpt lat="45.00815" lon="6.0407">
        <ele>1566.61</ele>
        <time>2012-08-11T14:49:14Z</time>
      </trkpt>
      <trkpt lat="45.0082" lon="6.04076">
        <ele>1563.72</ele>
        <time>2012-08-11T14:49:23Z</time>
      </trkpt>
      <trkpt lat="45.00824" lon="6.04078">
        <ele>1562.76</ele>
        <time>2012-08-11T14:49:31Z</time>
      </trkpt>
      <trkpt lat="45.00828" lon="6.04086">
        <ele>1558.92</ele>
        <time>2012-08-11T14:49:42Z</time>
      </trkpt>
      <trkpt lat="45.00832" lon="6.04089">
        <ele>1556.99</ele>
        <time>2012-08-11T14:49:50Z</time>
      </trkpt>
      <trkpt lat="45.00842" lon="6.04093">
        <ele>1554.11</ele>
        <time>2012-08-11T14:50:01Z</time>
      </trkpt>
      <trkpt lat="45.0085" lon="6.041">
        <ele>1551.22</ele>
        <time>2012-08-11T14:50:15Z</time>
      </trkpt>
      <trkpt lat="45.00856" lon="6.04108">
        <ele>1547.38</ele>
        <time>2012-08-11T14:50:36Z</time>
      </trkpt>
      <trkpt lat="45.00856" lon="6.04108">
        <ele>1546.9</ele>
        <time>2012-08-11T14:50:37Z</time>
      </trkpt>
      <trkpt lat="45.00858" lon="6.0411">
        <ele>1544.01</ele>
        <time>2012-08-11T14:50:50Z</time>
      </trkpt>
      <trkpt lat="45.0086" lon="6.04111">
        <ele>1543.53</ele>
        <time>2012-08-11T14:50:53Z</time>
      </trkpt>
      <trkpt lat="45.00866" lon="6.04112">
        <ele>1540.65</ele>
        <time>2012-08-11T14:51:02Z</time>
      </trkpt>
      <trkpt lat="45.00874" lon="6.04121">
        <ele>1538.73</ele>
        <time>2012-08-11T14:51:13Z</time>
      </trkpt>
      <trkpt lat="45.00886" lon="6.04116">
        <ele>1538.25</ele>
        <time>2012-08-11T14:51:23Z</time>
      </trkpt>
      <trkpt lat="45.00896" lon="6.04105">
        <ele>1537.29</ele>
        <time>2012-08-11T14:51:34Z</time>
      </trkpt>
      <trkpt lat="45.00909" lon="6.04092">
        <ele>1536.8</ele>
        <time>2012-08-11T14:52:02Z</time>
      </trkpt>
      <trkpt lat="45.00918" lon="6.04082">
        <ele>1535.84</ele>
        <time>2012-08-11T14:52:27Z</time>
      </trkpt>
      <trkpt lat="45.00936" lon="6.04074">
        <ele>1536.32</ele>
        <time>2012-08-11T14:52:51Z</time>
      </trkpt>
      <trkpt lat="45.00938" lon="6.04074">
        <ele>1535.84</ele>
        <time>2012-08-11T14:53:28Z</time>
      </trkpt>
      <trkpt lat="45.00949" lon="6.04066">
        <ele>1534.88</ele>
        <time>2012-08-11T14:54:36Z</time>
      </trkpt>
      <trkpt lat="45.00955" lon="6.04063">
        <ele>1535.36</ele>
        <time>2012-08-11T14:54:44Z</time>
      </trkpt>
      <trkpt lat="45.00964" lon="6.04061">
        <ele>1534.88</ele>
        <time>2012-08-11T14:54:53Z</time>
      </trkpt>
      <trkpt lat="45.00982" lon="6.04057">
        <ele>1531.52</ele>
        <time>2012-08-11T14:55:12Z</time>
      </trkpt>
      <trkpt lat="45.0101" lon="6.04052">
        <ele>1528.15</ele>
        <time>2012-08-11T14:55:46Z</time>
      </trkpt>
      <trkpt lat="45.01011" lon="6.04052">
        <ele>1527.19</ele>
        <time>2012-08-11T14:55:49Z</time>
      </trkpt>
      <trkpt lat="45.01026" lon="6.04048">
        <ele>1524.31</ele>
        <time>2012-08-11T14:56:04Z</time>
      </trkpt>
      <trkpt lat="45.01044" lon="6.04045">
        <ele>1522.39</ele>
        <time>2012-08-11T14:56:16Z</time>
      </trkpt>
      <trkpt lat="45.01087" lon="6.04049">
        <ele>1519.02</ele>
        <time>2012-08-11T14:57:09Z</time>
      </trkpt>
      <trkpt lat="45.01094" lon="6.04044">
        <ele>1518.54</ele>
        <time>2012-08-11T14:57:23Z</time>
      </trkpt>
      <trkpt lat="45.01119" lon="6.04027">
        <ele>1519.5</ele>
        <time>2012-08-11T14:57:48Z</time>
      </trkpt>
      <trkpt lat="45.01135" lon="6.04017">
        <ele>1520.46</ele>
        <time>2012-08-11T14:58:08Z</time>
      </trkpt>
      <trkpt lat="45.01141" lon="6.0401">
        <ele>1520.94</ele>
        <time>2012-08-11T14:58:17Z</time>
      </trkpt>
      <trkpt lat="45.01149" lon="6.04005">
        <ele>1522.39</ele>
        <time>2012-08-11T14:58:26Z</time>
      </trkpt>
      <trkpt lat="45.01167" lon="6.03998">
        <ele>1522.87</ele>
        <time>2012-08-11T14:58:46Z</time>
      </trkpt>
      <trkpt lat="45.01175" lon="6.03999">
        <ele>1521.9</ele>
        <time>2012-08-11T14:58:55Z</time>
      </trkpt>
      <trkpt lat="45.01188" lon="6.03998">
        <ele>1522.87</ele>
        <time>2012-08-11T14:59:06Z</time>
      </trkpt>
      <trkpt lat="45.01206" lon="6.04005">
        <ele>1521.9</ele>
        <time>2012-08-11T14:59:32Z</time>
      </trkpt>
      <trkpt lat="45.01224" lon="6.0402">
        <ele>1520.94</ele>
        <time>2012-08-11T14:59:38Z</time>
      </trkpt>
      <trkpt lat="45.01237" lon="6.04016">
        <ele>1519.5</ele>
        <time>2012-08-11T14:59:43Z</time>
      </trkpt>
      <trkpt lat="45.01252" lon="6.04002">
        <ele>1518.06</ele>
        <time>2012-08-11T14:59:52Z</time>
      </trkpt>
      <trkpt lat="45.01256" lon="6.03989">
        <ele>1518.54</ele>
        <time>2012-08-11T15:00:02Z</time>
      </trkpt>
      <trkpt lat="45.01262" lon="6.0398">
        <ele>1517.58</ele>
        <time>2012-08-11T15:00:14Z</time>
      </trkpt>
      <trkpt lat="45.01266" lon="6.03978">
        <ele>1518.06</ele>
        <time>2012-08-11T15:00:26Z</time>
      </trkpt>
      <trkpt lat="45.01266" lon="6.03976">
        <ele>1516.62</ele>
        <time>2012-08-11T15:00:38Z</time>
      </trkpt>
      <trkpt lat="45.01273" lon="6.03968">
        <ele>1515.66</ele>
        <time>2012-08-11T15:00:53Z</time>
      </trkpt>
      <trkpt lat="45.01273" lon="6.03968">
        <ele>1515.18</ele>
        <time>2012-08-11T15:00:54Z</time>
      </trkpt>
      <trkpt lat="45.01274" lon="6.03964">
        <ele>1514.69</ele>
        <time>2012-08-11T15:01:05Z</time>
      </trkpt>
      <trkpt lat="45.01277" lon="6.03965">
        <ele>1514.69</ele>
        <time>2012-08-11T15:01:11Z</time>
      </trkpt>
      <trkpt lat="45.01278" lon="6.03965">
        <ele>1513.73</ele>
        <time>2012-08-11T15:01:18Z</time>
      </trkpt>
      <trkpt lat="45.01266" lon="6.03962">
        <ele>1510.85</ele>
        <time>2012-08-11T15:01:30Z</time>
      </trkpt>
      <trkpt lat="45.01254" lon="6.03958">
        <ele>1509.89</ele>
        <time>2012-08-11T15:01:45Z</time>
      </trkpt>
      <trkpt lat="45.01251" lon="6.03957">
        <ele>1508.45</ele>
        <time>2012-08-11T15:01:46Z</time>
      </trkpt>
      <trkpt lat="45.01249" lon="6.03956">
        <ele>1509.89</ele>
        <time>2012-08-11T15:01:55Z</time>
      </trkpt>
      <trkpt lat="45.0125" lon="6.03976">
        <ele>1511.33</ele>
        <time>2012-08-11T15:02:04Z</time>
      </trkpt>
      <trkpt lat="45.01273" lon="6.04009">
        <ele>1512.77</ele>
        <time>2012-08-11T15:02:28Z</time>
      </trkpt>
      <trkpt lat="45.01272" lon="6.04043">
        <ele>1515.66</ele>
        <time>2012-08-11T15:02:41Z</time>
      </trkpt>
      <trkpt lat="45.01319" lon="6.04077">
        <ele>1517.58</ele>
        <time>2012-08-11T15:02:51Z</time>
      </trkpt>
      <trkpt lat="45.01345" lon="6.04095">
        <ele>1519.5</ele>
        <time>2012-08-11T15:03:00Z</time>
      </trkpt>
      <trkpt lat="45.01387" lon="6.04115">
        <ele>1522.87</ele>
        <time>2012-08-11T15:03:14Z</time>
      </trkpt>
      <trkpt lat="45.01406" lon="6.0412">
        <ele>1525.75</ele>
        <time>2012-08-11T15:03:38Z</time>
      </trkpt>
      <trkpt lat="45.01364" lon="6.04101">
        <ele>1527.19</ele>
        <time>2012-08-11T15:03:51Z</time>
      </trkpt>
      <trkpt lat="45.01344" lon="6.04112">
        <ele>1529.59</ele>
        <time>2012-08-11T15:04:05Z</time>
      </trkpt>
      <trkpt lat="45.01342" lon="6.04119">
        <ele>1530.56</ele>
        <time>2012-08-11T15:04:14Z</time>
      </trkpt>
      <trkpt lat="45.01346" lon="6.04126">
        <ele>1531.52</ele>
        <time>2012-08-11T15:04:25Z</time>
      </trkpt>
      <trkpt lat="45.01351" lon="6.04136">
        <ele>1532.96</ele>
        <time>2012-08-11T15:04:35Z</time>
      </trkpt>
      <trkpt lat="45.01355" lon="6.04147">
        <ele>1535.36</ele>
        <time>2012-08-11T15:04:48Z</time>
      </trkpt>
      <trkpt lat="45.0136" lon="6.04152">
        <ele>1537.29</ele>
        <time>2012-08-11T15:04:59Z</time>
      </trkpt>
      <trkpt lat="45.01371" lon="6.04155">
        <ele>1538.25</ele>
        <time>2012-08-11T15:05:09Z</time>
      </trkpt>
      <trkpt lat="45.01378" lon="6.0416">
        <ele>1538.73</ele>
        <time>2012-08-11T15:05:17Z</time>
      </trkpt>
      <trkpt lat="45.01391" lon="6.04169">
        <ele>1541.13</ele>
        <time>2012-08-11T15:05:33Z</time>
      </trkpt>
      <trkpt lat="45.01401" lon="6.04174">
        <ele>1543.05</ele>
        <time>2012-08-11T15:05:43Z</time>
      </trkpt>
      <trkpt lat="45.01412" lon="6.04179">
        <ele>1545.46</ele>
        <time>2012-08-11T15:05:55Z</time>
      </trkpt>
      <trkpt lat="45.01414" lon="6.04181">
        <ele>1545.94</ele>
        <time>2012-08-11T15:05:58Z</time>
      </trkpt>
      <trkpt lat="45.01421" lon="6.04188">
        <ele>1548.82</ele>
        <time>2012-08-11T15:06:10Z</time>
      </trkpt>
      <trkpt lat="45.01431" lon="6.04196">
        <ele>1551.71</ele>
        <time>2012-08-11T15:06:24Z</time>
      </trkpt>
      <trkpt lat="45.01442" lon="6.04197">
        <ele>1552.67</ele>
        <time>2012-08-11T15:06:44Z</time>
      </trkpt>
      <trkpt lat="45.0145" lon="6.04199">
        <ele>1554.11</ele>
        <time>2012-08-11T15:06:58Z</time>
      </trkpt>
      <trkpt lat="45.01453" lon="6.04202">
        <ele>1554.11</ele>
        <time>2012-08-11T15:07:02Z</time>
      </trkpt>
      <trkpt lat="45.01472" lon="6.04202">
        <ele>1556.03</ele>
        <time>2012-08-11T15:07:17Z</time>
      </trkpt>
      <trkpt lat="45.0148" lon="6.04204">
        <ele>1556.51</ele>
        <time>2012-08-11T15:07:31Z</time>
      </trkpt>
      <trkpt lat="45.01496" lon="6.04203">
        <ele>1557.47</ele>
        <time>2012-08-11T15:07:45Z</time>
      </trkpt>
      <trkpt lat="45.01516" lon="6.042">
        <ele>1557.47</ele>
        <time>2012-08-11T15:08:02Z</time>
      </trkpt>
      <trkpt lat="45.01526" lon="6.04196">
        <ele>1557.47</ele>
        <time>2012-08-11T15:08:12Z</time>
      </trkpt>
      <trkpt lat="45.01542" lon="6.04185">
        <ele>1557.47</ele>
        <time>2012-08-11T15:08:28Z</time>
      </trkpt>
      <trkpt lat="45.01552" lon="6.04177">
        <ele>1557.95</ele>
        <time>2012-08-11T15:08:42Z</time>
      </trkpt>
      <trkpt lat="45.01559" lon="6.04174">
        <ele>1559.4</ele>
        <time>2012-08-11T15:08:53Z</time>
      </trkpt>
      <trkpt lat="45.01563" lon="6.04172">
        <ele>1560.36</ele>
        <time>2012-08-11T15:09:03Z</time>
      </trkpt>
      <trkpt lat="45.0157" lon="6.04174">
        <ele>1559.88</ele>
        <time>2012-08-11T15:09:20Z</time>
      </trkpt>
      <trkpt lat="45.01583" lon="6.04175">
        <ele>1556.51</ele>
        <time>2012-08-11T15:09:34Z</time>
      </trkpt>
      <trkpt lat="45.01595" lon="6.04174">
        <ele>1554.11</ele>
        <time>2012-08-11T15:09:44Z</time>
      </trkpt>
      <trkpt lat="45.01604" lon="6.04168">
        <ele>1550.74</ele>
        <time>2012-08-11T15:09:54Z</time>
      </trkpt>
      <trkpt lat="45.01613" lon="6.0416">
        <ele>1548.82</ele>
        <time>2012-08-11T15:10:04Z</time>
      </trkpt>
      <trkpt lat="45.01616" lon="6.04157">
        <ele>1548.82</ele>
        <time>2012-08-11T15:10:07Z</time>
      </trkpt>
      <trkpt lat="45.01619" lon="6.04155">
        <ele>1547.38</ele>
        <time>2012-08-11T15:10:09Z</time>
      </trkpt>
      <trkpt lat="45.01631" lon="6.04141">
        <ele>1544.01</ele>
        <time>2012-08-11T15:10:25Z</time>
      </trkpt>
      <trkpt lat="45.01637" lon="6.04135">
        <ele>1542.57</ele>
        <time>2012-08-11T15:10:33Z</time>
      </trkpt>
      <trkpt lat="45.01645" lon="6.04119">
        <ele>1539.21</ele>
        <time>2012-08-11T15:10:48Z</time>
      </trkpt>
      <trkpt lat="45.01646" lon="6.0411">
        <ele>1536.32</ele>
        <time>2012-08-11T15:11:01Z</time>
      </trkpt>
      <trkpt lat="45.01649" lon="6.04095">
        <ele>1534.4</ele>
        <time>2012-08-11T15:11:11Z</time>
      </trkpt>
      <trkpt lat="45.01646" lon="6.04089">
        <ele>1533.92</ele>
        <time>2012-08-11T15:11:15Z</time>
      </trkpt>
      <trkpt lat="45.01645" lon="6.04077">
        <ele>1532.48</ele>
        <time>2012-08-11T15:11:22Z</time>
      </trkpt>
      <trkpt lat="45.01642" lon="6.04064">
        <ele>1531.52</ele>
        <time>2012-08-11T15:11:32Z</time>
      </trkpt>
      <trkpt lat="45.01643" lon="6.0406">
        <ele>1531.52</ele>
        <time>2012-08-11T15:11:46Z</time>
      </trkpt>
      <trkpt lat="45.01653" lon="6.04014">
        <ele>1531.04</ele>
        <time>2012-08-11T15:13:05Z</time>
      </trkpt>
      <trkpt lat="45.01648" lon="6.04019">
        <ele>1532.48</ele>
        <time>2012-08-11T15:13:48Z</time>
      </trkpt>
      <trkpt lat="45.01665" lon="6.0401">
        <ele>1532</ele>
        <time>2012-08-11T15:14:28Z</time>
      </trkpt>
      <trkpt lat="45.01671" lon="6.04">
        <ele>1531.52</ele>
        <time>2012-08-11T15:14:33Z</time>
      </trkpt>
      <trkpt lat="45.01685" lon="6.03987">
        <ele>1529.11</ele>
        <time>2012-08-11T15:14:45Z</time>
      </trkpt>
      <trkpt lat="45.01695" lon="6.03984">
        <ele>1528.63</ele>
        <time>2012-08-11T15:14:54Z</time>
      </trkpt>
      <trkpt lat="45.01712" lon="6.03981">
        <ele>1527.19</ele>
        <time>2012-08-11T15:15:04Z</time>
      </trkpt>
      <trkpt lat="45.01718" lon="6.03967">
        <ele>1526.23</ele>
        <time>2012-08-11T15:15:15Z</time>
      </trkpt>
      <trkpt lat="45.01723" lon="6.03956">
        <ele>1526.23</ele>
        <time>2012-08-11T15:15:28Z</time>
      </trkpt>
      <trkpt lat="45.01713" lon="6.03946">
        <ele>1526.71</ele>
        <time>2012-08-11T15:15:39Z</time>
      </trkpt>
      <trkpt lat="45.017" lon="6.03946">
        <ele>1529.59</ele>
        <time>2012-08-11T15:15:50Z</time>
      </trkpt>
      <trkpt lat="45.01698" lon="6.03946">
        <ele>1529.59</ele>
        <time>2012-08-11T15:15:51Z</time>
      </trkpt>
      <trkpt lat="45.0169" lon="6.0395">
        <ele>1530.56</ele>
        <time>2012-08-11T15:16:16Z</time>
      </trkpt>
      <trkpt lat="45.01689" lon="6.03951">
        <ele>1530.56</ele>
        <time>2012-08-11T15:16:17Z</time>
      </trkpt>
      <trkpt lat="45.01703" lon="6.03957">
        <ele>1530.08</ele>
        <time>2012-08-11T15:16:31Z</time>
      </trkpt>
      <trkpt lat="45.01704" lon="6.03958">
        <ele>1530.08</ele>
        <time>2012-08-11T15:16:33Z</time>
      </trkpt>
      <trkpt lat="45.01712" lon="6.03961">
        <ele>1530.56</ele>
        <time>2012-08-11T15:16:39Z</time>
      </trkpt>
      <trkpt lat="45.01722" lon="6.03968">
        <ele>1531.04</ele>
        <time>2012-08-11T15:16:52Z</time>
      </trkpt>
      <trkpt lat="45.01725" lon="6.03974">
        <ele>1532.48</ele>
        <time>2012-08-11T15:17:04Z</time>
      </trkpt>
      <trkpt lat="45.01742" lon="6.03989">
        <ele>1534.4</ele>
        <time>2012-08-11T15:17:18Z</time>
      </trkpt>
      <trkpt lat="45.01759" lon="6.04001">
        <ele>1535.84</ele>
        <time>2012-08-11T15:17:28Z</time>
      </trkpt>
      <trkpt lat="45.01761" lon="6.04002">
        <ele>1535.84</ele>
        <time>2012-08-11T15:17:29Z</time>
      </trkpt>
      <trkpt lat="45.01769" lon="6.04007">
        <ele>1536.8</ele>
        <time>2012-08-11T15:17:34Z</time>
      </trkpt>
      <trkpt lat="45.01781" lon="6.04018">
        <ele>1539.21</ele>
        <time>2012-08-11T15:17:45Z</time>
      </trkpt>
      <trkpt lat="45.01789" lon="6.04029">
        <ele>1541.13</ele>
        <time>2012-08-11T15:17:57Z</time>
      </trkpt>
      <trkpt lat="45.01788" lon="6.04039">
        <ele>1543.05</ele>
        <time>2012-08-11T15:18:08Z</time>
      </trkpt>
      <trkpt lat="45.0179" lon="6.04044">
        <ele>1543.05</ele>
        <time>2012-08-11T15:18:12Z</time>
      </trkpt>
      <trkpt lat="45.01791" lon="6.04049">
        <ele>1543.05</ele>
        <time>2012-08-11T15:18:15Z</time>
      </trkpt>
      <trkpt lat="45.01791" lon="6.0406">
        <ele>1543.05</ele>
        <time>2012-08-11T15:18:26Z</time>
      </trkpt>
      <trkpt lat="45.0179" lon="6.04064">
        <ele>1542.57</ele>
        <time>2012-08-11T15:18:30Z</time>
      </trkpt>
      <trkpt lat="45.0179" lon="6.04077">
        <ele>1544.01</ele>
        <time>2012-08-11T15:18:42Z</time>
      </trkpt>
      <trkpt lat="45.01789" lon="6.04087">
        <ele>1544.5</ele>
        <time>2012-08-11T15:18:56Z</time>
      </trkpt>
      <trkpt lat="45.01789" lon="6.04088">
        <ele>1540.65</ele>
        <time>2012-08-11T15:19:05Z</time>
      </trkpt>
      <trkpt lat="45.01789" lon="6.04088">
        <ele>1544.5</ele>
        <time>2012-08-11T15:19:08Z</time>
      </trkpt>
      <trkpt lat="45.01789" lon="6.04088">
        <ele>1544.5</ele>
        <time>2012-08-11T15:19:09Z</time>
      </trkpt>
      <trkpt lat="45.01784" lon="6.04095">
        <ele>1544.5</ele>
        <time>2012-08-11T15:19:43Z</time>
      </trkpt>
      <trkpt lat="45.0178" lon="6.04101">
        <ele>1543.05</ele>
        <time>2012-08-11T15:22:32Z</time>
      </trkpt>
      <trkpt lat="45.0178" lon="6.04101">
        <ele>1540.65</ele>
        <time>2012-08-11T15:23:35Z</time>
      </trkpt>
    </trkseg>
  </trk>
</gpx>